Time,TemperatureF,DewpointF,PressureIn,WindDirection,WindDirectionDegrees,WindSpeedMPH,WindSpeedGustMPH,Humidity,HourlyPrecipIn,Conditions,Clouds,dailyrainin,SolarRadiationWatts/m^2,SoftwareType,DateUTC
2013-10-15 00:00:00,34.8,27.7,31.31,North,360,0.0,0.0,75,0.00,,,0.00,0.00,VWS V14.00,2013-10-15 06:00:00,
2013-10-15 00:01:00,34.8,27.7,31.30,North,5,0.0,0.0,75,0.00,,,0.00,0.00,VWS V14.00,2013-10-15 06:01:00,
2013-10-15 00:02:00,34.8,27.7,31.30,North,5,0.0,0.0,75,0.00,,,0.00,0.00,VWS V14.00,2013-10-15 06:02:00,
2013-10-15 00:03:00,34.7,27.6,31.30,North,5,0.0,0.0,75,0.00,,,0.00,0.00,VWS V14.00,2013-10-15 06:03:00,
2013-10-15 00:04:00,34.7,27.6,31.31,North,360,0.0,0.0,75,0.00,,,0.00,0.00,VWS V14.00,2013-10-15 06:04:00,
2013-10-15 00:05:00,34.7,27.6,31.30,North,360,0.0,0.0,75,0.00,,,0.00,0.00,VWS V14.00,2013-10-15 06:05:00,
2013-10-15 00:06:00,34.6,27.5,31.30,North,360,0.0,0.0,75,0.00,,,0.00,0.00,VWS V14.00,2013-10-15 06:06:00,
2013-10-15 00:07:00,34.5,27.4,31.30,North,5,0.0,0.0,75,0.00,,,0.00,0.00,VWS V14.00,2013-10-15 06:07:00,
2013-10-15 00:08:00,34.4,27.3,31.31,North,5,0.0,0.0,75,0.00,,,0.00,0.00,VWS V14.00,2013-10-15 06:08:00,
2013-10-15 00:09:00,34.4,27.0,31.32,North,5,0.0,0.0,74,0.00,,,0.00,0.00,VWS V14.00,2013-10-15 06:09:00,
2013-10-15 00:10:00,34.4,26.7,31.32,North,5,0.0,0.0,73,0.00,,,0.00,0.00,VWS V14.00,2013-10-15 06:10:00,
2013-10-15 00:11:00,34.3,26.6,31.32,North,5,0.0,0.0,73,0.00,,,0.00,0.00,VWS V14.00,2013-10-15 06:11:00,
2013-10-15 00:12:00,34.1,26.4,31.32,North,5,0.0,0.0,73,0.00,,,0.00,0.00,VWS V14.00,2013-10-15 06:12:00,
2013-10-15 00:13:00,33.9,26.2,31.32,North,5,0.0,0.0,73,0.00,,,0.00,0.00,VWS V14.00,2013-10-15 06:13:00,
2013-10-15 00:14:00,33.7,26.3,31.32,North,5,0.0,0.0,74,0.00,,,0.00,0.00,VWS V14.00,2013-10-15 06:14:00,
2013-10-15 00:15:00,33.6,26.5,31.32,North,360,0.0,0.0,75,0.00,,,0.00,0.00,VWS V14.00,2013-10-15 06:15:00,
2013-10-15 00:16:00,33.5,26.8,31.32,North,360,0.0,0.0,76,0.00,,,0.00,0.00,VWS V14.00,2013-10-15 06:16:00,
2013-10-15 00:17:00,33.4,26.7,31.32,North,5,0.0,0.0,76,0.00,,,0.00,0.00,VWS V14.00,2013-10-15 06:17:00,
2013-10-15 00:18:00,33.3,26.6,31.32,North,360,0.0,0.0,76,0.00,,,0.00,0.00,VWS V14.00,2013-10-15 06:18:00,
2013-10-15 00:19:00,33.2,26.8,31.32,North,360,0.0,0.0,77,0.00,,,0.00,0.00,VWS V14.00,2013-10-15 06:19:00,
2013-10-15 00:20:00,33.1,26.7,31.32,North,360,0.0,0.0,77,0.00,,,0.00,0.00,VWS V14.00,2013-10-15 06:20:00,
2013-10-15 00:21:00,33.0,26.6,31.32,North,5,0.0,0.0,77,0.00,,,0.00,0.00,VWS V14.00,2013-10-15 06:21:00,
2013-10-15 00:22:00,33.0,26.9,31.32,North,360,0.0,0.0,78,0.00,,,0.00,0.00,VWS V14.00,2013-10-15 06:22:00,
2013-10-15 00:23:00,33.0,26.9,31.32,North,5,0.0,0.0,78,0.00,,,0.00,0.00,VWS V14.00,2013-10-15 06:23:00,
2013-10-15 00:24:00,32.9,26.8,31.32,North,5,0.0,0.0,78,0.00,,,0.00,0.00,VWS V14.00,2013-10-15 06:24:00,
2013-10-15 00:25:00,32.9,26.8,31.32,North,5,0.0,0.0,78,0.00,,,0.00,0.00,VWS V14.00,2013-10-15 06:25:00,
2013-10-15 00:26:00,32.8,26.7,31.32,North,360,0.0,0.0,78,0.00,,,0.00,0.00,VWS V14.00,2013-10-15 06:26:00,
2013-10-15 00:27:00,32.8,26.7,31.32,North,360,0.0,0.0,78,0.00,,,0.00,0.00,VWS V14.00,2013-10-15 06:27:00,
2013-10-15 00:28:00,32.8,27.0,31.32,North,5,0.0,0.0,79,0.00,,,0.00,0.00,VWS V14.00,2013-10-15 06:28:00,
2013-10-15 00:29:00,32.7,26.9,31.32,North,5,0.0,0.0,79,0.00,,,0.00,0.00,VWS V14.00,2013-10-15 06:29:00,
2013-10-15 00:30:00,32.7,26.9,31.32,North,5,0.0,0.0,79,0.00,,,0.00,0.00,VWS V14.00,2013-10-15 06:30:00,
2013-10-15 00:31:00,32.6,26.8,31.31,North,360,0.0,0.0,79,0.00,,,0.00,0.00,VWS V14.00,2013-10-15 06:31:00,
2013-10-15 00:32:00,32.5,26.1,31.31,North,360,0.0,0.0,77,0.00,,,0.00,0.00,VWS V14.00,2013-10-15 06:32:00,
2013-10-15 00:33:00,32.3,25.6,31.31,North,5,0.0,0.0,76,0.00,,,0.00,0.00,VWS V14.00,2013-10-15 06:33:00,
2013-10-15 00:34:00,32.1,25.4,31.32,North,360,0.0,0.0,76,0.00,,,0.00,0.00,VWS V14.00,2013-10-15 06:34:00,
2013-10-15 00:35:00,32.0,25.6,31.32,North,5,0.0,0.0,77,0.00,,,0.00,0.00,VWS V14.00,2013-10-15 06:35:00,
2013-10-15 00:36:00,31.9,25.5,31.32,North,5,0.0,0.0,77,0.00,,,0.00,0.00,VWS V14.00,2013-10-15 06:36:00,
2013-10-15 00:37:00,31.8,25.4,31.32,North,360,0.0,0.0,77,0.00,,,0.00,0.00,VWS V14.00,2013-10-15 06:37:00,
2013-10-15 00:38:00,31.8,25.7,31.32,North,5,0.0,0.0,78,0.00,,,0.00,0.00,VWS V14.00,2013-10-15 06:38:00,
2013-10-15 00:39:00,31.7,25.9,31.32,North,360,0.0,0.0,79,0.00,,,0.00,0.00,VWS V14.00,2013-10-15 06:39:00,
2013-10-15 00:40:00,31.7,26.2,31.32,North,360,0.0,0.0,80,0.00,,,0.00,0.00,VWS V14.00,2013-10-15 06:40:00,
2013-10-15 00:41:00,31.7,26.2,31.32,North,360,0.0,0.0,80,0.00,,,0.00,0.00,VWS V14.00,2013-10-15 06:41:00,
2013-10-15 00:42:00,31.7,26.2,31.32,North,5,0.0,0.0,80,0.00,,,0.00,0.00,VWS V14.00,2013-10-15 06:42:00,
2013-10-15 00:43:00,31.7,26.5,31.32,North,5,0.0,0.0,81,0.00,,,0.00,0.00,VWS V14.00,2013-10-15 06:43:00,
2013-10-15 00:44:00,31.7,26.5,31.32,North,5,0.0,0.0,81,0.00,,,0.00,0.00,VWS V14.00,2013-10-15 06:44:00,
2013-10-15 00:45:00,31.7,26.5,31.32,North,360,0.0,0.0,81,0.00,,,0.00,0.00,VWS V14.00,2013-10-15 06:45:00,
2013-10-15 00:46:00,31.7,26.5,31.32,North,360,0.0,0.0,81,0.00,,,0.00,0.00,VWS V14.00,2013-10-15 06:46:00,
2013-10-15 00:47:00,31.7,26.5,31.32,North,360,0.0,0.0,81,0.00,,,0.00,0.00,VWS V14.00,2013-10-15 06:47:00,
2013-10-15 00:48:00,31.8,26.6,31.32,North,5,0.0,0.0,81,0.00,,,0.00,0.00,VWS V14.00,2013-10-15 06:48:00,
2013-10-15 00:49:00,31.8,26.6,31.32,North,5,0.0,0.0,81,0.00,,,0.00,0.00,VWS V14.00,2013-10-15 06:49:00,
2013-10-15 00:50:00,31.8,26.6,31.32,North,360,0.0,0.0,81,0.00,,,0.00,0.00,VWS V14.00,2013-10-15 06:50:00,
2013-10-15 00:51:00,31.9,26.7,31.32,North,5,0.0,0.0,81,0.00,,,0.00,0.00,VWS V14.00,2013-10-15 06:51:00,
2013-10-15 00:52:00,31.9,26.7,31.32,North,5,0.0,0.0,81,0.00,,,0.00,0.00,VWS V14.00,2013-10-15 06:52:00,
2013-10-15 00:53:00,31.9,26.7,31.32,North,5,0.0,0.0,81,0.00,,,0.00,0.00,VWS V14.00,2013-10-15 06:53:00,
2013-10-15 00:54:00,31.9,26.7,31.32,North,5,0.0,0.0,81,0.00,,,0.00,0.00,VWS V14.00,2013-10-15 06:54:00,
2013-10-15 00:55:00,32.0,26.8,31.32,North,360,0.0,0.0,81,0.00,,,0.00,0.00,VWS V14.00,2013-10-15 06:55:00,
2013-10-15 00:56:00,32.0,26.8,31.32,North,360,0.0,0.0,81,0.00,,,0.00,0.00,VWS V14.00,2013-10-15 06:56:00,
2013-10-15 00:57:00,32.0,26.8,31.32,North,360,0.0,0.0,81,0.00,,,0.00,0.00,VWS V14.00,2013-10-15 06:57:00,
2013-10-15 00:58:00,32.1,26.9,31.32,North,360,0.0,0.0,81,0.00,,,0.00,0.00,VWS V14.00,2013-10-15 06:58:00,
2013-10-15 00:59:00,32.1,26.9,31.32,North,5,0.0,0.0,81,0.00,,,0.00,0.00,VWS V14.00,2013-10-15 06:59:00,
2013-10-15 01:00:00,32.1,26.9,31.32,North,360,0.0,0.0,81,0.00,,,0.00,0.00,VWS V14.00,2013-10-15 07:00:00,
2013-10-15 01:01:00,32.2,27.0,31.32,North,360,0.0,0.0,81,0.00,,,0.00,0.00,VWS V14.00,2013-10-15 07:01:00,
2013-10-15 01:02:00,32.3,27.1,31.32,North,360,0.0,0.0,81,0.00,,,0.00,0.00,VWS V14.00,2013-10-15 07:02:00,
2013-10-15 01:03:00,32.3,27.1,31.32,North,5,0.0,0.0,81,0.00,,,0.00,0.00,VWS V14.00,2013-10-15 07:03:00,
2013-10-15 01:04:00,32.4,27.2,31.32,North,5,0.0,0.0,81,0.00,,,0.00,0.00,VWS V14.00,2013-10-15 07:04:00,
2013-10-15 01:05:00,32.5,27.3,31.32,North,5,0.0,0.0,81,0.00,,,0.00,0.00,VWS V14.00,2013-10-15 07:05:00,
2013-10-15 01:06:00,32.6,27.4,31.31,North,360,0.0,0.0,81,0.00,,,0.00,0.00,VWS V14.00,2013-10-15 07:06:00,
2013-10-15 01:07:00,32.6,27.4,31.31,North,5,0.0,0.0,81,0.00,,,0.00,0.00,VWS V14.00,2013-10-15 07:07:00,
2013-10-15 01:08:00,32.7,27.5,31.31,North,5,0.0,0.0,81,0.00,,,0.00,0.00,VWS V14.00,2013-10-15 07:08:00,
2013-10-15 01:09:00,32.8,27.6,31.31,North,360,0.0,0.0,81,0.00,,,0.00,0.00,VWS V14.00,2013-10-15 07:09:00,
2013-10-15 01:10:00,32.8,27.6,31.31,North,5,0.0,0.0,81,0.00,,,0.00,0.00,VWS V14.00,2013-10-15 07:10:00,
2013-10-15 01:11:00,32.8,27.6,31.31,North,5,0.0,0.0,81,0.00,,,0.00,0.00,VWS V14.00,2013-10-15 07:11:00,
2013-10-15 01:12:00,32.9,27.7,31.31,North,5,0.0,0.0,81,0.00,,,0.00,0.00,VWS V14.00,2013-10-15 07:12:00,
2013-10-15 01:13:00,33.0,27.8,31.31,North,360,0.0,0.0,81,0.00,,,0.00,0.00,VWS V14.00,2013-10-15 07:13:00,
2013-10-15 01:14:00,33.1,27.6,31.31,North,360,0.0,0.0,80,0.00,,,0.00,0.00,VWS V14.00,2013-10-15 07:14:00,
2013-10-15 01:15:00,33.2,27.7,31.31,North,360,0.0,0.0,80,0.00,,,0.00,0.00,VWS V14.00,2013-10-15 07:15:00,
2013-10-15 01:16:00,33.3,27.8,31.31,North,5,0.0,0.0,80,0.00,,,0.00,0.00,VWS V14.00,2013-10-15 07:16:00,
2013-10-15 01:17:00,33.3,27.8,31.31,North,5,0.0,0.0,80,0.00,,,0.00,0.00,VWS V14.00,2013-10-15 07:17:00,
2013-10-15 01:18:00,33.4,27.6,31.31,North,5,0.0,0.0,79,0.00,,,0.00,0.00,VWS V14.00,2013-10-15 07:18:00,
2013-10-15 01:19:00,33.4,27.6,31.31,North,5,0.0,0.0,79,0.00,,,0.00,0.00,VWS V14.00,2013-10-15 07:19:00,
2013-10-15 01:20:00,33.5,27.7,31.31,North,5,0.0,0.0,79,0.00,,,0.00,0.00,VWS V14.00,2013-10-15 07:20:00,
2013-10-15 01:21:00,33.5,27.4,31.31,North,360,0.0,0.0,78,0.00,,,0.00,0.00,VWS V14.00,2013-10-15 07:21:00,
2013-10-15 01:22:00,33.5,27.4,31.31,North,5,0.0,0.0,78,0.00,,,0.00,0.00,VWS V14.00,2013-10-15 07:22:00,
2013-10-15 01:23:00,33.5,27.7,31.31,North,5,0.0,0.0,79,0.00,,,0.00,0.00,VWS V14.00,2013-10-15 07:23:00,
2013-10-15 01:24:00,33.6,27.8,31.31,North,5,0.0,0.0,79,0.00,,,0.00,0.00,VWS V14.00,2013-10-15 07:24:00,
2013-10-15 01:25:00,33.6,27.5,31.31,North,5,0.0,0.0,78,0.00,,,0.00,0.00,VWS V14.00,2013-10-15 07:25:00,
2013-10-15 01:26:00,33.6,27.2,31.31,North,5,0.0,0.0,77,0.00,,,0.00,0.00,VWS V14.00,2013-10-15 07:26:00,
2013-10-15 01:27:00,33.5,26.8,31.31,North,5,0.0,0.0,76,0.00,,,0.00,0.00,VWS V14.00,2013-10-15 07:27:00,
2013-10-15 01:28:00,33.4,26.7,31.31,North,5,0.0,0.0,76,0.00,,,0.00,0.00,VWS V14.00,2013-10-15 07:28:00,
2013-10-15 01:29:00,33.3,26.6,31.31,North,5,0.0,0.0,76,0.00,,,0.00,0.00,VWS V14.00,2013-10-15 07:29:00,
2013-10-15 01:30:00,33.3,26.9,31.31,North,5,0.0,0.0,77,0.00,,,0.00,0.00,VWS V14.00,2013-10-15 07:30:00,
2013-10-15 01:31:00,33.3,26.9,31.31,North,5,0.0,0.0,77,0.00,,,0.00,0.00,VWS V14.00,2013-10-15 07:31:00,
2013-10-15 01:32:00,33.2,26.8,31.31,North,5,0.0,0.0,77,0.00,,,0.00,0.00,VWS V14.00,2013-10-15 07:32:00,
2013-10-15 01:33:00,33.2,26.8,31.31,North,360,0.0,0.0,77,0.00,,,0.00,0.00,VWS V14.00,2013-10-15 07:33:00,
2013-10-15 01:34:00,33.1,26.7,31.31,North,360,0.0,0.0,77,0.00,,,0.00,0.00,VWS V14.00,2013-10-15 07:34:00,
2013-10-15 01:35:00,33.0,26.9,31.31,North,5,0.0,0.0,78,0.00,,,0.00,0.00,VWS V14.00,2013-10-15 07:35:00,
2013-10-15 01:36:00,33.0,26.9,31.31,North,5,0.0,1.0,78,0.00,,,0.00,0.00,VWS V14.00,2013-10-15 07:36:00,
2013-10-15 01:37:00,33.0,26.9,31.31,North,360,0.0,1.0,78,0.00,,,0.00,0.00,VWS V14.00,2013-10-15 07:37:00,
2013-10-15 01:38:00,33.0,26.9,31.31,North,5,0.0,1.0,78,0.00,,,0.00,0.00,VWS V14.00,2013-10-15 07:38:00,
2013-10-15 01:39:00,32.9,26.8,31.31,North,5,0.0,1.0,78,0.00,,,0.00,0.00,VWS V14.00,2013-10-15 07:39:00,
2013-10-15 01:40:00,32.9,26.8,31.31,North,360,0.0,1.0,78,0.00,,,0.00,0.00,VWS V14.00,2013-10-15 07:40:00,
2013-10-15 01:41:00,32.9,26.8,31.31,North,5,0.0,1.0,78,0.00,,,0.00,0.00,VWS V14.00,2013-10-15 07:41:00,
2013-10-15 01:42:00,32.9,26.8,31.31,North,360,0.0,1.0,78,0.00,,,0.00,0.00,VWS V14.00,2013-10-15 07:42:00,
2013-10-15 01:43:00,32.8,26.7,31.31,North,360,0.0,1.0,78,0.00,,,0.00,0.00,VWS V14.00,2013-10-15 07:43:00,
2013-10-15 01:44:00,32.8,26.7,31.31,North,5,0.0,1.0,78,0.00,,,0.00,0.00,VWS V14.00,2013-10-15 07:44:00,
2013-10-15 01:45:00,32.8,27.0,31.31,North,5,0.0,1.0,79,0.00,,,0.00,0.00,VWS V14.00,2013-10-15 07:45:00,
2013-10-15 01:46:00,32.8,27.0,31.31,North,5,0.0,0.0,79,0.00,,,0.00,0.00,VWS V14.00,2013-10-15 07:46:00,
2013-10-15 01:47:00,32.7,26.9,31.31,North,360,0.0,0.0,79,0.00,,,0.00,0.00,VWS V14.00,2013-10-15 07:47:00,
2013-10-15 01:48:00,32.7,26.6,31.31,North,360,0.0,0.0,78,0.00,,,0.00,0.00,VWS V14.00,2013-10-15 07:48:00,
2013-10-15 01:49:00,32.7,26.9,31.31,North,5,0.0,0.0,79,0.00,,,0.00,0.00,VWS V14.00,2013-10-15 07:49:00,
2013-10-15 01:50:00,32.7,26.9,31.31,North,360,0.0,0.0,79,0.00,,,0.00,0.00,VWS V14.00,2013-10-15 07:50:00,
2013-10-15 01:51:00,32.7,26.9,31.31,North,5,0.0,0.0,79,0.00,,,0.00,0.00,VWS V14.00,2013-10-15 07:51:00,
2013-10-15 01:52:00,32.6,26.8,31.31,North,5,0.0,0.0,79,0.00,,,0.00,0.00,VWS V14.00,2013-10-15 07:52:00,
2013-10-15 01:53:00,32.6,26.8,31.31,North,360,0.0,0.0,79,0.00,,,0.00,0.00,VWS V14.00,2013-10-15 07:53:00,
2013-10-15 01:54:00,32.6,26.8,31.31,North,360,0.0,0.0,79,0.00,,,0.00,0.00,VWS V14.00,2013-10-15 07:54:00,
2013-10-15 01:55:00,32.5,26.4,31.31,North,360,0.0,0.0,78,0.00,,,0.00,0.00,VWS V14.00,2013-10-15 07:55:00,
2013-10-15 01:56:00,32.6,26.5,31.31,North,360,0.0,0.0,78,0.00,,,0.00,0.00,VWS V14.00,2013-10-15 07:56:00,
2013-10-15 01:57:00,32.5,26.4,31.31,North,5,0.0,0.0,78,0.00,,,0.00,0.00,VWS V14.00,2013-10-15 07:57:00,
2013-10-15 01:58:00,32.5,26.4,31.31,North,5,0.0,0.0,78,0.00,,,0.00,0.00,VWS V14.00,2013-10-15 07:58:00,
2013-10-15 01:59:00,32.5,26.4,31.31,North,5,0.0,0.0,78,0.00,,,0.00,0.00,VWS V14.00,2013-10-15 07:59:00,
2013-10-15 02:00:00,32.5,26.7,31.31,North,5,0.0,0.0,79,0.00,,,0.00,0.00,VWS V14.00,2013-10-15 08:00:00,
2013-10-15 02:01:00,32.4,26.6,31.30,North,360,0.0,0.0,79,0.00,,,0.00,0.00,VWS V14.00,2013-10-15 08:01:00,
2013-10-15 02:02:00,32.4,26.6,31.30,North,5,0.0,0.0,79,0.00,,,0.00,0.00,VWS V14.00,2013-10-15 08:02:00,
2013-10-15 02:03:00,32.4,26.6,31.30,North,360,0.0,0.0,79,0.00,,,0.00,0.00,VWS V14.00,2013-10-15 08:03:00,
2013-10-15 02:04:00,32.4,26.6,31.30,North,5,0.0,0.0,79,0.00,,,0.00,0.00,VWS V14.00,2013-10-15 08:04:00,
2013-10-15 02:05:00,32.4,26.6,31.30,North,5,0.0,0.0,79,0.00,,,0.00,0.00,VWS V14.00,2013-10-15 08:05:00,
2013-10-15 02:06:00,32.4,26.6,31.30,North,5,0.0,0.0,79,0.00,,,0.00,0.00,VWS V14.00,2013-10-15 08:06:00,
2013-10-15 02:07:00,32.3,26.5,31.30,North,360,0.0,0.0,79,0.00,,,0.00,0.00,VWS V14.00,2013-10-15 08:07:00,
2013-10-15 02:08:00,32.3,26.2,31.31,North,360,0.0,0.0,78,0.00,,,0.00,0.00,VWS V14.00,2013-10-15 08:08:00,
2013-10-15 02:09:00,32.2,26.1,31.30,North,360,0.0,0.0,78,0.00,,,0.00,0.00,VWS V14.00,2013-10-15 08:09:00,
2013-10-15 02:10:00,32.2,26.1,31.31,North,5,0.0,0.0,78,0.00,,,0.00,0.00,VWS V14.00,2013-10-15 08:10:00,
2013-10-15 02:11:00,32.1,26.0,31.30,North,5,0.0,0.0,78,0.00,,,0.00,0.00,VWS V14.00,2013-10-15 08:11:00,
2013-10-15 02:12:00,32.1,26.3,31.31,North,5,0.0,0.0,79,0.00,,,0.00,0.00,VWS V14.00,2013-10-15 08:12:00,
2013-10-15 02:13:00,32.0,26.2,31.31,North,5,0.0,0.0,79,0.00,,,0.00,0.00,VWS V14.00,2013-10-15 08:13:00,
2013-10-15 02:14:00,32.0,26.2,31.31,North,360,0.0,0.0,79,0.00,,,0.00,0.00,VWS V14.00,2013-10-15 08:14:00,
2013-10-15 02:15:00,31.9,26.1,31.31,North,5,0.0,0.0,79,0.00,,,0.00,0.00,VWS V14.00,2013-10-15 08:15:00,
2013-10-15 02:16:00,31.9,26.1,31.31,North,5,0.0,0.0,79,0.00,,,0.00,0.00,VWS V14.00,2013-10-15 08:16:00,
2013-10-15 02:17:00,31.9,26.1,31.31,North,5,0.0,0.0,79,0.00,,,0.00,0.00,VWS V14.00,2013-10-15 08:17:00,
2013-10-15 02:18:00,31.8,26.0,31.31,North,360,0.0,0.0,79,0.00,,,0.00,0.00,VWS V14.00,2013-10-15 08:18:00,
2013-10-15 02:19:00,31.7,25.9,31.31,North,5,0.0,0.0,79,0.00,,,0.00,0.00,VWS V14.00,2013-10-15 08:19:00,
2013-10-15 02:20:00,31.7,25.9,31.31,North,360,0.0,0.0,79,0.00,,,0.00,0.00,VWS V14.00,2013-10-15 08:20:00,
2013-10-15 02:21:00,31.7,25.9,31.31,North,5,0.0,0.0,79,0.00,,,0.00,0.00,VWS V14.00,2013-10-15 08:21:00,
2013-10-15 02:22:00,31.7,25.9,31.31,North,360,0.0,0.0,79,0.00,,,0.00,0.00,VWS V14.00,2013-10-15 08:22:00,
2013-10-15 02:23:00,31.6,25.9,31.31,North,5,0.0,0.0,79,0.00,,,0.00,0.00,VWS V14.00,2013-10-15 08:23:00,
2013-10-15 02:24:00,31.6,25.9,31.31,North,5,0.0,0.0,79,0.00,,,0.00,0.00,VWS V14.00,2013-10-15 08:24:00,
2013-10-15 02:25:00,31.5,25.8,31.31,North,5,0.0,0.0,79,0.00,,,0.00,0.00,VWS V14.00,2013-10-15 08:25:00,
2013-10-15 02:26:00,31.5,26.0,31.31,North,5,0.0,0.0,80,0.00,,,0.00,0.00,VWS V14.00,2013-10-15 08:26:00,
2013-10-15 02:27:00,31.5,26.0,31.31,North,360,0.0,0.0,80,0.00,,,0.00,0.00,VWS V14.00,2013-10-15 08:27:00,
2013-10-15 02:28:00,31.4,26.0,31.31,North,5,0.0,0.0,80,0.00,,,0.00,0.00,VWS V14.00,2013-10-15 08:28:00,
2013-10-15 02:29:00,31.4,26.0,31.32,North,360,0.0,0.0,80,0.00,,,0.00,0.00,VWS V14.00,2013-10-15 08:29:00,
2013-10-15 02:30:00,31.4,26.0,31.32,North,360,0.0,0.0,80,0.00,,,0.00,0.00,VWS V14.00,2013-10-15 08:30:00,
2013-10-15 02:31:00,31.3,25.9,31.32,North,360,0.0,0.0,80,0.00,,,0.00,0.00,VWS V14.00,2013-10-15 08:31:00,
2013-10-15 02:32:00,31.3,25.9,31.32,North,5,0.0,0.0,80,0.00,,,0.00,0.00,VWS V14.00,2013-10-15 08:32:00,
2013-10-15 02:33:00,31.3,25.9,31.32,North,5,0.0,0.0,80,0.00,,,0.00,0.00,VWS V14.00,2013-10-15 08:33:00,
2013-10-15 02:34:00,31.2,25.8,31.32,North,5,0.0,0.0,80,0.00,,,0.00,0.00,VWS V14.00,2013-10-15 08:34:00,
2013-10-15 02:35:00,31.2,25.8,31.32,North,5,0.0,0.0,80,0.00,,,0.00,0.00,VWS V14.00,2013-10-15 08:35:00,
2013-10-15 02:36:00,31.2,25.8,31.32,North,360,0.0,0.0,80,0.00,,,0.00,0.00,VWS V14.00,2013-10-15 08:36:00,
2013-10-15 02:37:00,31.2,25.8,31.32,North,5,0.0,0.0,80,0.00,,,0.00,0.00,VWS V14.00,2013-10-15 08:37:00,
2013-10-15 02:38:00,31.2,25.8,31.32,North,5,0.0,0.0,80,0.00,,,0.00,0.00,VWS V14.00,2013-10-15 08:38:00,
2013-10-15 02:39:00,31.1,25.7,31.32,North,5,0.0,0.0,80,0.00,,,0.00,0.00,VWS V14.00,2013-10-15 08:39:00,
2013-10-15 02:40:00,31.1,25.7,31.32,North,5,0.0,0.0,80,0.00,,,0.00,0.00,VWS V14.00,2013-10-15 08:40:00,
2013-10-15 02:41:00,31.1,25.7,31.32,North,360,0.0,0.0,80,0.00,,,0.00,0.00,VWS V14.00,2013-10-15 08:41:00,
2013-10-15 02:42:00,31.1,25.7,31.32,North,360,0.0,0.0,80,0.00,,,0.00,0.00,VWS V14.00,2013-10-15 08:42:00,
2013-10-15 02:43:00,31.0,25.6,31.32,North,360,0.0,0.0,80,0.00,,,0.00,0.00,VWS V14.00,2013-10-15 08:43:00,
2013-10-15 02:44:00,31.0,25.3,31.32,North,5,0.0,0.0,79,0.00,,,0.00,0.00,VWS V14.00,2013-10-15 08:44:00,
2013-10-15 02:45:00,31.0,25.3,31.32,North,5,0.0,0.0,79,0.00,,,0.00,0.00,VWS V14.00,2013-10-15 08:45:00,
2013-10-15 02:46:00,30.9,25.2,31.32,North,5,0.0,0.0,79,0.00,,,0.00,0.00,VWS V14.00,2013-10-15 08:46:00,
2013-10-15 02:47:00,30.8,25.1,31.32,North,5,0.0,0.0,79,0.00,,,0.00,0.00,VWS V14.00,2013-10-15 08:47:00,
2013-10-15 02:48:00,30.8,25.4,31.32,North,5,0.0,0.0,80,0.00,,,0.00,0.00,VWS V14.00,2013-10-15 08:48:00,
2013-10-15 02:49:00,30.7,25.3,31.32,North,5,0.0,0.0,80,0.00,,,0.00,0.00,VWS V14.00,2013-10-15 08:49:00,
2013-10-15 02:50:00,30.6,25.2,31.32,North,5,0.0,0.0,80,0.00,,,0.00,0.00,VWS V14.00,2013-10-15 08:50:00,
2013-10-15 02:51:00,30.6,25.2,31.32,North,5,0.0,0.0,80,0.00,,,0.00,0.00,VWS V14.00,2013-10-15 08:51:00,
2013-10-15 02:52:00,30.6,25.2,31.32,North,5,0.0,0.0,80,0.00,,,0.00,0.00,VWS V14.00,2013-10-15 08:52:00,
2013-10-15 02:53:00,30.5,25.1,31.32,North,5,0.0,0.0,80,0.00,,,0.00,0.00,VWS V14.00,2013-10-15 08:53:00,
2013-10-15 02:54:00,30.5,25.1,31.32,North,5,0.0,0.0,80,0.00,,,0.00,0.00,VWS V14.00,2013-10-15 08:54:00,
2013-10-15 02:55:00,30.4,25.0,31.32,North,360,0.0,0.0,80,0.00,,,0.00,0.00,VWS V14.00,2013-10-15 08:55:00,
2013-10-15 02:56:00,30.4,25.0,31.32,North,360,0.0,0.0,80,0.00,,,0.00,0.00,VWS V14.00,2013-10-15 08:56:00,
2013-10-15 02:57:00,30.4,25.0,31.32,North,5,0.0,0.0,80,0.00,,,0.00,0.00,VWS V14.00,2013-10-15 08:57:00,
2013-10-15 02:58:00,30.3,24.9,31.32,North,5,0.0,0.0,80,0.00,,,0.00,0.00,VWS V14.00,2013-10-15 08:58:00,
2013-10-15 02:59:00,30.3,24.9,31.32,North,360,0.0,0.0,80,0.00,,,0.00,0.00,VWS V14.00,2013-10-15 08:59:00,
2013-10-15 03:00:00,30.2,24.8,31.32,North,5,0.0,0.0,80,0.00,,,0.00,0.00,VWS V14.00,2013-10-15 09:00:00,
2013-10-15 03:01:00,30.1,24.7,31.33,North,5,0.0,0.0,80,0.00,,,0.00,0.00,VWS V14.00,2013-10-15 09:01:00,
2013-10-15 03:02:00,30.1,24.7,31.33,North,360,0.0,0.0,80,0.00,,,0.00,0.00,VWS V14.00,2013-10-15 09:02:00,
2013-10-15 03:03:00,30.1,25.0,31.33,North,5,0.0,0.0,81,0.00,,,0.00,0.00,VWS V14.00,2013-10-15 09:03:00,
2013-10-15 03:04:00,30.0,24.9,31.33,North,360,0.0,0.0,81,0.00,,,0.00,0.00,VWS V14.00,2013-10-15 09:04:00,
2013-10-15 03:05:00,30.0,24.9,31.33,North,360,0.0,0.0,81,0.00,,,0.00,0.00,VWS V14.00,2013-10-15 09:05:00,
2013-10-15 03:06:00,29.9,24.8,31.33,North,5,0.0,0.0,81,0.00,,,0.00,0.00,VWS V14.00,2013-10-15 09:06:00,
2013-10-15 03:07:00,29.9,24.8,31.33,North,5,0.0,0.0,81,0.00,,,0.00,0.00,VWS V14.00,2013-10-15 09:07:00,
2013-10-15 03:08:00,29.9,24.8,31.33,North,5,0.0,0.0,81,0.00,,,0.00,0.00,VWS V14.00,2013-10-15 09:08:00,
2013-10-15 03:09:00,29.9,24.8,31.32,North,5,0.0,0.0,81,0.00,,,0.00,0.00,VWS V14.00,2013-10-15 09:09:00,
2013-10-15 03:10:00,29.8,24.7,31.32,North,5,0.0,0.0,81,0.00,,,0.00,0.00,VWS V14.00,2013-10-15 09:10:00,
2013-10-15 03:11:00,29.8,25.0,31.32,North,360,0.0,0.0,82,0.00,,,0.00,0.00,VWS V14.00,2013-10-15 09:11:00,
2013-10-15 03:12:00,29.8,25.0,31.33,North,360,0.0,0.0,82,0.00,,,0.00,0.00,VWS V14.00,2013-10-15 09:12:00,
2013-10-15 03:13:00,29.8,25.0,31.33,North,5,0.0,0.0,82,0.00,,,0.00,0.00,VWS V14.00,2013-10-15 09:13:00,
2013-10-15 03:14:00,29.7,24.9,31.33,North,5,0.0,0.0,82,0.00,,,0.00,0.00,VWS V14.00,2013-10-15 09:14:00,
2013-10-15 03:15:00,29.7,24.9,31.33,North,5,0.0,0.0,82,0.00,,,0.00,0.00,VWS V14.00,2013-10-15 09:15:00,
2013-10-15 03:16:00,29.7,24.9,31.33,North,360,0.0,0.0,82,0.00,,,0.00,0.00,VWS V14.00,2013-10-15 09:16:00,
2013-10-15 03:17:00,29.7,24.9,31.33,North,5,0.0,0.0,82,0.00,,,0.00,0.00,VWS V14.00,2013-10-15 09:17:00,
2013-10-15 03:18:00,29.7,24.9,31.33,North,360,0.0,0.0,82,0.00,,,0.00,0.00,VWS V14.00,2013-10-15 09:18:00,
2013-10-15 03:19:00,29.6,24.8,31.33,North,5,0.0,0.0,82,0.00,,,0.00,0.00,VWS V14.00,2013-10-15 09:19:00,
2013-10-15 03:20:00,29.6,24.8,31.33,North,5,0.0,0.0,82,0.00,,,0.00,0.00,VWS V14.00,2013-10-15 09:20:00,
2013-10-15 03:21:00,29.6,25.1,31.33,North,5,0.0,0.0,83,0.00,,,0.00,0.00,VWS V14.00,2013-10-15 09:21:00,
2013-10-15 03:22:00,29.6,25.1,31.33,North,5,0.0,0.0,83,0.00,,,0.00,0.00,VWS V14.00,2013-10-15 09:22:00,
2013-10-15 03:23:00,29.6,25.1,31.33,North,5,0.0,0.0,83,0.00,,,0.00,0.00,VWS V14.00,2013-10-15 09:23:00,
2013-10-15 03:24:00,29.6,25.4,31.33,North,5,0.0,0.0,84,0.00,,,0.00,0.00,VWS V14.00,2013-10-15 09:24:00,
2013-10-15 03:25:00,29.6,25.4,31.33,North,5,0.0,0.0,84,0.00,,,0.00,0.00,VWS V14.00,2013-10-15 09:25:00,
2013-10-15 03:26:00,29.7,25.5,31.33,North,5,0.0,0.0,84,0.00,,,0.00,0.00,VWS V14.00,2013-10-15 09:26:00,
2013-10-15 03:27:00,29.7,25.5,31.33,North,5,0.0,0.0,84,0.00,,,0.00,0.00,VWS V14.00,2013-10-15 09:27:00,
2013-10-15 03:28:00,29.7,25.5,31.33,North,5,0.0,0.0,84,0.00,,,0.00,0.00,VWS V14.00,2013-10-15 09:28:00,
2013-10-15 03:29:00,29.7,25.8,31.32,North,360,0.0,0.0,85,0.00,,,0.00,0.00,VWS V14.00,2013-10-15 09:29:00,
2013-10-15 03:30:00,29.7,25.8,31.33,North,5,0.0,0.0,85,0.00,,,0.00,0.00,VWS V14.00,2013-10-15 09:30:00,
2013-10-15 03:31:00,29.8,25.9,31.33,North,5,0.0,0.0,85,0.00,,,0.00,0.00,VWS V14.00,2013-10-15 09:31:00,
2013-10-15 03:32:00,29.8,25.9,31.33,North,5,0.0,0.0,85,0.00,,,0.00,0.00,VWS V14.00,2013-10-15 09:32:00,
2013-10-15 03:33:00,29.8,25.9,31.33,North,5,0.0,0.0,85,0.00,,,0.00,0.00,VWS V14.00,2013-10-15 09:33:00,
2013-10-15 03:34:00,29.8,25.6,31.33,North,5,0.0,0.0,84,0.00,,,0.00,0.00,VWS V14.00,2013-10-15 09:34:00,
2013-10-15 03:35:00,29.8,25.6,31.33,North,5,0.0,0.0,84,0.00,,,0.00,0.00,VWS V14.00,2013-10-15 09:35:00,
2013-10-15 03:36:00,29.8,25.6,31.33,North,360,0.0,0.0,84,0.00,,,0.00,0.00,VWS V14.00,2013-10-15 09:36:00,
2013-10-15 03:37:00,29.8,25.6,31.33,North,360,0.0,0.0,84,0.00,,,0.00,0.00,VWS V14.00,2013-10-15 09:37:00,
2013-10-15 03:38:00,29.9,25.7,31.33,North,360,0.0,0.0,84,0.00,,,0.00,0.00,VWS V14.00,2013-10-15 09:38:00,
2013-10-15 03:39:00,29.9,25.7,31.33,North,5,0.0,0.0,84,0.00,,,0.00,0.00,VWS V14.00,2013-10-15 09:39:00,
2013-10-15 03:40:00,29.9,25.7,31.32,North,5,0.0,0.0,84,0.00,,,0.00,0.00,VWS V14.00,2013-10-15 09:40:00,
2013-10-15 03:41:00,30.0,26.0,31.33,North,5,0.0,0.0,85,0.00,,,0.00,0.00,VWS V14.00,2013-10-15 09:41:00,
2013-10-15 03:42:00,30.0,26.0,31.33,North,5,0.0,0.0,85,0.00,,,0.00,0.00,VWS V14.00,2013-10-15 09:42:00,
2013-10-15 03:43:00,30.1,25.9,31.32,North,360,0.0,0.0,84,0.00,,,0.00,0.00,VWS V14.00,2013-10-15 09:43:00,
2013-10-15 03:44:00,30.1,25.9,31.32,North,5,0.0,0.0,84,0.00,,,0.00,0.00,VWS V14.00,2013-10-15 09:44:00,
2013-10-15 03:45:00,30.1,25.9,31.33,North,5,0.0,0.0,84,0.00,,,0.00,0.00,VWS V14.00,2013-10-15 09:45:00,
2013-10-15 03:46:00,30.2,26.0,31.32,North,360,0.0,0.0,84,0.00,,,0.00,0.00,VWS V14.00,2013-10-15 09:46:00,
2013-10-15 03:47:00,30.2,26.0,31.32,North,5,0.0,0.0,84,0.00,,,0.00,0.00,VWS V14.00,2013-10-15 09:47:00,
2013-10-15 03:48:00,30.2,26.0,31.32,North,5,0.0,0.0,84,0.00,,,0.00,0.00,VWS V14.00,2013-10-15 09:48:00,
2013-10-15 03:49:00,30.2,26.0,31.32,North,5,0.0,0.0,84,0.00,,,0.00,0.00,VWS V14.00,2013-10-15 09:49:00,
2013-10-15 03:50:00,30.3,26.1,31.32,North,360,0.0,0.0,84,0.00,,,0.00,0.00,VWS V14.00,2013-10-15 09:50:00,
2013-10-15 03:51:00,30.3,26.1,31.32,North,360,0.0,0.0,84,0.00,,,0.00,0.00,VWS V14.00,2013-10-15 09:51:00,
2013-10-15 03:52:00,30.4,26.1,31.32,North,5,0.0,0.0,84,0.00,,,0.00,0.00,VWS V14.00,2013-10-15 09:52:00,
2013-10-15 03:53:00,30.4,25.9,31.32,North,360,0.0,0.0,83,0.00,,,0.00,0.00,VWS V14.00,2013-10-15 09:53:00,
2013-10-15 03:54:00,30.4,25.9,31.32,North,5,0.0,0.0,83,0.00,,,0.00,0.00,VWS V14.00,2013-10-15 09:54:00,
2013-10-15 03:55:00,30.4,25.9,31.32,North,360,0.0,0.0,83,0.00,,,0.00,0.00,VWS V14.00,2013-10-15 09:55:00,
2013-10-15 03:56:00,30.4,25.9,31.32,North,360,0.0,0.0,83,0.00,,,0.00,0.00,VWS V14.00,2013-10-15 09:56:00,
2013-10-15 03:57:00,30.4,25.9,31.32,North,5,0.0,0.0,83,0.00,,,0.00,0.00,VWS V14.00,2013-10-15 09:57:00,
2013-10-15 03:58:00,30.4,26.1,31.32,North,360,0.0,0.0,84,0.00,,,0.00,0.00,VWS V14.00,2013-10-15 09:58:00,
2013-10-15 03:59:00,30.4,25.9,31.32,North,360,0.0,0.0,83,0.00,,,0.00,0.00,VWS V14.00,2013-10-15 09:59:00,
2013-10-15 04:00:00,30.3,25.5,31.33,North,5,0.0,0.0,82,0.00,,,0.00,0.00,VWS V14.00,2013-10-15 10:00:00,
2013-10-15 04:01:00,30.3,25.5,31.33,North,5,0.0,0.0,82,0.00,,,0.00,0.00,VWS V14.00,2013-10-15 10:01:00,
2013-10-15 04:02:00,30.2,24.8,31.33,North,5,0.0,0.0,80,0.00,,,0.00,0.00,VWS V14.00,2013-10-15 10:02:00,
2013-10-15 04:03:00,30.1,24.7,31.33,North,360,0.0,0.0,80,0.00,,,0.00,0.00,VWS V14.00,2013-10-15 10:03:00,
2013-10-15 04:04:00,29.9,24.2,31.33,North,360,0.0,0.0,79,0.00,,,0.00,0.00,VWS V14.00,2013-10-15 10:04:00,
2013-10-15 04:05:00,29.8,24.4,31.33,North,360,0.0,0.0,80,0.00,,,0.00,0.00,VWS V14.00,2013-10-15 10:05:00,
2013-10-15 04:06:00,29.8,24.4,31.33,North,5,0.0,0.0,80,0.00,,,0.00,0.00,VWS V14.00,2013-10-15 10:06:00,
2013-10-15 04:07:00,29.8,24.4,31.33,North,5,0.0,0.0,80,0.00,,,0.00,0.00,VWS V14.00,2013-10-15 10:07:00,
2013-10-15 04:08:00,29.7,24.0,31.33,North,5,0.0,0.0,79,0.00,,,0.00,0.00,VWS V14.00,2013-10-15 10:08:00,
2013-10-15 04:09:00,29.7,24.0,31.33,North,5,0.0,0.0,79,0.00,,,0.00,0.00,VWS V14.00,2013-10-15 10:09:00,
2013-10-15 04:10:00,29.6,24.2,31.33,North,5,0.0,0.0,80,0.00,,,0.00,0.00,VWS V14.00,2013-10-15 10:10:00,
2013-10-15 04:11:00,29.6,24.2,31.33,North,5,0.0,0.0,80,0.00,,,0.00,0.00,VWS V14.00,2013-10-15 10:11:00,
2013-10-15 04:12:00,29.6,24.2,31.33,North,5,0.0,0.0,80,0.00,,,0.00,0.00,VWS V14.00,2013-10-15 10:12:00,
2013-10-15 04:13:00,29.5,24.1,31.33,North,5,0.0,0.0,80,0.00,,,0.00,0.00,VWS V14.00,2013-10-15 10:13:00,
2013-10-15 04:14:00,29.5,24.1,31.33,North,5,0.0,0.0,80,0.00,,,0.00,0.00,VWS V14.00,2013-10-15 10:14:00,
2013-10-15 04:15:00,29.4,24.0,31.33,North,360,0.0,0.0,80,0.00,,,0.00,0.00,VWS V14.00,2013-10-15 10:15:00,
2013-10-15 04:16:00,29.4,24.0,31.33,North,5,0.0,0.0,80,0.00,,,0.00,0.00,VWS V14.00,2013-10-15 10:16:00,
2013-10-15 04:17:00,29.3,23.9,31.33,North,5,0.0,0.0,80,0.00,,,0.00,0.00,VWS V14.00,2013-10-15 10:17:00,
2013-10-15 04:18:00,29.3,23.9,31.33,North,360,0.0,0.0,80,0.00,,,0.00,0.00,VWS V14.00,2013-10-15 10:18:00,
2013-10-15 04:19:00,29.2,23.8,31.33,North,5,0.0,0.0,80,0.00,,,0.00,0.00,VWS V14.00,2013-10-15 10:19:00,
2013-10-15 04:20:00,29.2,23.8,31.33,North,5,0.0,0.0,80,0.00,,,0.00,0.00,VWS V14.00,2013-10-15 10:20:00,
2013-10-15 04:21:00,29.1,23.7,31.33,North,5,0.0,0.0,80,0.00,,,0.00,0.00,VWS V14.00,2013-10-15 10:21:00,
2013-10-15 04:22:00,29.0,23.6,31.33,North,5,0.0,0.0,80,0.00,,,0.00,0.00,VWS V14.00,2013-10-15 10:22:00,
2013-10-15 04:23:00,28.9,23.5,31.33,North,5,0.0,0.0,80,0.00,,,0.00,0.00,VWS V14.00,2013-10-15 10:23:00,
2013-10-15 04:24:00,28.8,23.4,31.33,North,360,0.0,0.0,80,0.00,,,0.00,0.00,VWS V14.00,2013-10-15 10:24:00,
2013-10-15 04:25:00,28.8,23.4,31.33,North,360,0.0,0.0,80,0.00,,,0.00,0.00,VWS V14.00,2013-10-15 10:25:00,
2013-10-15 04:26:00,28.7,23.3,31.34,North,360,0.0,0.0,80,0.00,,,0.00,0.00,VWS V14.00,2013-10-15 10:26:00,
2013-10-15 04:27:00,28.5,23.1,31.33,North,360,0.0,0.0,80,0.00,,,0.00,0.00,VWS V14.00,2013-10-15 10:27:00,
2013-10-15 04:28:00,28.4,23.3,31.33,North,360,0.0,0.0,81,0.00,,,0.00,0.00,VWS V14.00,2013-10-15 10:28:00,
2013-10-15 04:29:00,28.4,23.3,31.34,North,5,0.0,0.0,81,0.00,,,0.00,0.00,VWS V14.00,2013-10-15 10:29:00,
2013-10-15 04:30:00,28.3,23.2,31.34,North,5,0.0,0.0,81,0.00,,,0.00,0.00,VWS V14.00,2013-10-15 10:30:00,
2013-10-15 04:31:00,28.2,23.1,31.34,North,360,0.0,0.0,81,0.00,,,0.00,0.00,VWS V14.00,2013-10-15 10:31:00,
2013-10-15 04:32:00,28.1,23.0,31.35,North,5,0.0,0.0,81,0.00,,,0.00,0.00,VWS V14.00,2013-10-15 10:32:00,
2013-10-15 04:33:00,28.1,23.0,31.35,North,360,0.0,0.0,81,0.00,,,0.00,0.00,VWS V14.00,2013-10-15 10:33:00,
2013-10-15 04:34:00,28.0,22.9,31.34,North,5,0.0,0.0,81,0.00,,,0.00,0.00,VWS V14.00,2013-10-15 10:34:00,
2013-10-15 04:35:00,27.9,22.8,31.35,North,5,0.0,0.0,81,0.00,,,0.00,0.00,VWS V14.00,2013-10-15 10:35:00,
2013-10-15 04:36:00,27.9,22.8,31.35,North,5,0.0,0.0,81,0.00,,,0.00,0.00,VWS V14.00,2013-10-15 10:36:00,
2013-10-15 04:37:00,27.8,22.7,31.35,North,5,0.0,0.0,81,0.00,,,0.00,0.00,VWS V14.00,2013-10-15 10:37:00,
2013-10-15 04:38:00,27.7,22.6,31.35,North,360,0.0,0.0,81,0.00,,,0.00,0.00,VWS V14.00,2013-10-15 10:38:00,
2013-10-15 04:39:00,27.7,22.9,31.35,North,360,0.0,0.0,82,0.00,,,0.00,0.00,VWS V14.00,2013-10-15 10:39:00,
2013-10-15 04:40:00,27.7,22.9,31.35,North,360,0.0,0.0,82,0.00,,,0.00,0.00,VWS V14.00,2013-10-15 10:40:00,
2013-10-15 04:41:00,27.6,22.8,31.35,North,5,0.0,0.0,82,0.00,,,0.00,0.00,VWS V14.00,2013-10-15 10:41:00,
2013-10-15 04:42:00,27.6,22.8,31.35,North,5,0.0,0.0,82,0.00,,,0.00,0.00,VWS V14.00,2013-10-15 10:42:00,
2013-10-15 04:43:00,27.6,23.1,31.35,North,5,0.0,0.0,83,0.00,,,0.00,0.00,VWS V14.00,2013-10-15 10:43:00,
2013-10-15 04:44:00,27.5,23.0,31.35,North,5,0.0,0.0,83,0.00,,,0.00,0.00,VWS V14.00,2013-10-15 10:44:00,
2013-10-15 04:45:00,27.5,23.0,31.35,North,360,0.0,0.0,83,0.00,,,0.00,0.00,VWS V14.00,2013-10-15 10:45:00,
2013-10-15 04:46:00,27.5,23.0,31.35,North,360,0.0,0.0,83,0.00,,,0.00,0.00,VWS V14.00,2013-10-15 10:46:00,
2013-10-15 04:47:00,27.5,23.0,31.35,North,5,0.0,0.0,83,0.00,,,0.00,0.00,VWS V14.00,2013-10-15 10:47:00,
2013-10-15 04:48:00,27.5,23.0,31.35,North,5,0.0,0.0,83,0.00,,,0.00,0.00,VWS V14.00,2013-10-15 10:48:00,
2013-10-15 04:49:00,27.5,23.0,31.35,North,5,0.0,0.0,83,0.00,,,0.00,0.00,VWS V14.00,2013-10-15 10:49:00,
2013-10-15 04:50:00,27.5,23.3,31.35,North,5,0.0,0.0,84,0.00,,,0.00,0.00,VWS V14.00,2013-10-15 10:50:00,
2013-10-15 04:51:00,27.4,23.2,31.35,North,5,0.0,0.0,84,0.00,,,0.00,0.00,VWS V14.00,2013-10-15 10:51:00,
2013-10-15 04:52:00,27.4,23.2,31.35,North,360,0.0,0.0,84,0.00,,,0.00,0.00,VWS V14.00,2013-10-15 10:52:00,
2013-10-15 04:53:00,27.4,23.2,31.35,North,5,0.0,0.0,84,0.00,,,0.00,0.00,VWS V14.00,2013-10-15 10:53:00,
2013-10-15 04:54:00,27.4,23.2,31.35,North,360,0.0,0.0,84,0.00,,,0.00,0.00,VWS V14.00,2013-10-15 10:54:00,
2013-10-15 04:55:00,27.5,23.3,31.35,North,5,0.0,0.0,84,0.00,,,0.00,0.00,VWS V14.00,2013-10-15 10:55:00,
2013-10-15 04:56:00,27.4,23.2,31.35,North,5,0.0,0.0,84,0.00,,,0.00,0.00,VWS V14.00,2013-10-15 10:56:00,
2013-10-15 04:57:00,27.5,23.3,31.35,North,360,0.0,0.0,84,0.00,,,0.00,0.00,VWS V14.00,2013-10-15 10:57:00,
2013-10-15 04:58:00,27.5,23.6,31.35,North,360,0.0,0.0,85,0.00,,,0.00,0.00,VWS V14.00,2013-10-15 10:58:00,
2013-10-15 04:59:00,27.5,23.6,31.35,North,360,0.0,0.0,85,0.00,,,0.00,0.00,VWS V14.00,2013-10-15 10:59:00,
2013-10-15 05:00:00,27.5,23.6,31.35,North,5,0.0,0.0,85,0.00,,,0.00,0.00,VWS V14.00,2013-10-15 11:00:00,
2013-10-15 05:01:00,27.5,23.6,31.36,North,5,0.0,0.0,85,0.00,,,0.00,0.00,VWS V14.00,2013-10-15 11:01:00,
2013-10-15 05:02:00,27.5,23.6,31.36,North,5,0.0,0.0,85,0.00,,,0.00,0.00,VWS V14.00,2013-10-15 11:02:00,
2013-10-15 05:03:00,27.5,23.6,31.36,North,5,0.0,0.0,85,0.00,,,0.00,0.00,VWS V14.00,2013-10-15 11:03:00,
2013-10-15 05:04:00,27.5,23.6,31.36,North,5,0.0,0.0,85,0.00,,,0.00,0.00,VWS V14.00,2013-10-15 11:04:00,
2013-10-15 05:05:00,27.5,23.6,31.35,North,5,0.0,0.0,85,0.00,,,0.00,0.00,VWS V14.00,2013-10-15 11:05:00,
2013-10-15 05:06:00,27.5,23.6,31.35,North,5,0.0,0.0,85,0.00,,,0.00,0.00,VWS V14.00,2013-10-15 11:06:00,
2013-10-15 05:07:00,27.5,23.9,31.35,North,5,0.0,0.0,86,0.00,,,0.00,0.00,VWS V14.00,2013-10-15 11:07:00,
2013-10-15 05:08:00,27.5,23.9,31.35,North,360,0.0,0.0,86,0.00,,,0.00,0.00,VWS V14.00,2013-10-15 11:08:00,
2013-10-15 05:09:00,27.5,23.9,31.35,North,5,0.0,0.0,86,0.00,,,0.00,0.00,VWS V14.00,2013-10-15 11:09:00,
2013-10-15 05:10:00,27.5,23.9,31.35,North,5,0.0,0.0,86,0.00,,,0.00,0.00,VWS V14.00,2013-10-15 11:10:00,
2013-10-15 05:11:00,27.5,23.9,31.35,North,5,0.0,0.0,86,0.00,,,0.00,0.00,VWS V14.00,2013-10-15 11:11:00,
2013-10-15 05:12:00,27.5,23.9,31.35,North,360,0.0,0.0,86,0.00,,,0.00,0.00,VWS V14.00,2013-10-15 11:12:00,
2013-10-15 05:13:00,27.5,23.9,31.35,North,360,0.0,0.0,86,0.00,,,0.00,0.00,VWS V14.00,2013-10-15 11:13:00,
2013-10-15 05:14:00,27.5,23.9,31.36,North,5,0.0,0.0,86,0.00,,,0.00,0.00,VWS V14.00,2013-10-15 11:14:00,
2013-10-15 05:15:00,27.5,23.9,31.36,North,360,0.0,0.0,86,0.00,,,0.00,0.00,VWS V14.00,2013-10-15 11:15:00,
2013-10-15 05:16:00,27.5,23.9,31.36,North,5,0.0,0.0,86,0.00,,,0.00,0.00,VWS V14.00,2013-10-15 11:16:00,
2013-10-15 05:17:00,27.5,23.9,31.36,North,5,0.0,0.0,86,0.00,,,0.00,0.00,VWS V14.00,2013-10-15 11:17:00,
2013-10-15 05:18:00,27.5,23.9,31.36,North,5,0.0,0.0,86,0.00,,,0.00,0.00,VWS V14.00,2013-10-15 11:18:00,
2013-10-15 05:19:00,27.5,23.9,31.36,North,360,0.0,0.0,86,0.00,,,0.00,0.00,VWS V14.00,2013-10-15 11:19:00,
2013-10-15 05:20:00,27.5,23.9,31.36,North,5,0.0,0.0,86,0.00,,,0.00,0.00,VWS V14.00,2013-10-15 11:20:00,
2013-10-15 05:21:00,27.5,23.9,31.36,North,360,0.0,0.0,86,0.00,,,0.00,0.00,VWS V14.00,2013-10-15 11:21:00,
2013-10-15 05:22:00,27.5,23.9,31.36,North,5,0.0,0.0,86,0.00,,,0.00,0.00,VWS V14.00,2013-10-15 11:22:00,
2013-10-15 05:23:00,27.5,23.9,31.36,North,5,0.0,0.0,86,0.00,,,0.00,0.00,VWS V14.00,2013-10-15 11:23:00,
2013-10-15 05:24:00,27.4,23.8,31.36,North,5,0.0,0.0,86,0.00,,,0.00,0.00,VWS V14.00,2013-10-15 11:24:00,
2013-10-15 05:25:00,27.4,23.8,31.37,North,5,0.0,0.0,86,0.00,,,0.00,0.00,VWS V14.00,2013-10-15 11:25:00,
2013-10-15 05:26:00,27.4,23.8,31.37,North,360,0.0,0.0,86,0.00,,,0.00,0.00,VWS V14.00,2013-10-15 11:26:00,
2013-10-15 05:27:00,27.4,23.8,31.37,North,360,0.0,0.0,86,0.00,,,0.00,0.00,VWS V14.00,2013-10-15 11:27:00,
2013-10-15 05:28:00,27.4,23.8,31.37,North,5,0.0,0.0,86,0.00,,,0.00,0.00,VWS V14.00,2013-10-15 11:28:00,
2013-10-15 05:29:00,27.3,23.4,31.37,North,5,0.0,0.0,85,0.00,,,0.00,0.00,VWS V14.00,2013-10-15 11:29:00,
2013-10-15 05:30:00,27.3,23.4,31.37,North,5,0.0,0.0,85,0.00,,,0.00,0.00,VWS V14.00,2013-10-15 11:30:00,
2013-10-15 05:31:00,27.2,23.0,31.37,North,360,0.0,0.0,84,0.00,,,0.00,0.00,VWS V14.00,2013-10-15 11:31:00,
2013-10-15 05:32:00,27.1,22.9,31.37,North,5,0.0,0.0,84,0.00,,,0.00,0.00,VWS V14.00,2013-10-15 11:32:00,
2013-10-15 05:33:00,27.1,22.9,31.37,North,360,0.0,0.0,84,0.00,,,0.00,0.00,VWS V14.00,2013-10-15 11:33:00,
2013-10-15 05:34:00,27.0,22.8,31.37,North,5,0.0,0.0,84,0.00,,,0.00,0.00,VWS V14.00,2013-10-15 11:34:00,
2013-10-15 05:35:00,26.9,22.7,31.37,North,5,0.0,0.0,84,0.00,,,0.00,0.00,VWS V14.00,2013-10-15 11:35:00,
2013-10-15 05:36:00,26.9,22.7,31.37,North,5,0.0,0.0,84,0.00,,,0.00,0.00,VWS V14.00,2013-10-15 11:36:00,
2013-10-15 05:37:00,26.8,22.6,31.37,North,5,0.0,0.0,84,0.00,,,0.00,0.00,VWS V14.00,2013-10-15 11:37:00,
2013-10-15 05:38:00,26.7,22.2,31.38,North,5,0.0,0.0,83,0.00,,,0.00,0.00,VWS V14.00,2013-10-15 11:38:00,
2013-10-15 05:39:00,26.6,22.1,31.38,North,360,0.0,0.0,83,0.00,,,0.00,0.00,VWS V14.00,2013-10-15 11:39:00,
2013-10-15 05:40:00,26.6,22.1,31.38,North,5,0.0,0.0,83,0.00,,,0.00,0.00,VWS V14.00,2013-10-15 11:40:00,
2013-10-15 05:41:00,26.5,22.0,31.38,North,360,0.0,0.0,83,0.00,,,0.00,0.00,VWS V14.00,2013-10-15 11:41:00,
2013-10-15 05:42:00,26.4,22.0,31.38,North,5,0.0,0.0,83,0.00,,,0.00,0.00,VWS V14.00,2013-10-15 11:42:00,
2013-10-15 05:43:00,26.4,22.0,31.38,North,360,0.0,0.0,83,0.00,,,0.00,0.00,VWS V14.00,2013-10-15 11:43:00,
2013-10-15 05:44:00,26.4,22.0,31.38,North,5,0.0,0.0,83,0.00,,,0.00,0.00,VWS V14.00,2013-10-15 11:44:00,
2013-10-15 05:45:00,26.4,22.0,31.38,North,5,0.0,0.0,83,0.00,,,0.00,0.00,VWS V14.00,2013-10-15 11:45:00,
2013-10-15 05:46:00,26.3,21.9,31.38,North,5,0.0,0.0,83,0.00,,,0.00,0.00,VWS V14.00,2013-10-15 11:46:00,
2013-10-15 05:47:00,26.3,21.9,31.38,North,360,0.0,0.0,83,0.00,,,0.00,0.00,VWS V14.00,2013-10-15 11:47:00,
2013-10-15 05:48:00,26.3,21.9,31.38,North,5,0.0,0.0,83,0.00,,,0.00,0.00,VWS V14.00,2013-10-15 11:48:00,
2013-10-15 05:49:00,26.3,22.1,31.38,North,360,0.0,0.0,84,0.00,,,0.00,0.00,VWS V14.00,2013-10-15 11:49:00,
2013-10-15 05:50:00,26.3,22.1,31.38,North,5,0.0,0.0,84,0.00,,,0.00,0.00,VWS V14.00,2013-10-15 11:50:00,
2013-10-15 05:51:00,26.3,22.1,31.38,North,5,0.0,0.0,84,0.00,,,0.00,0.00,VWS V14.00,2013-10-15 11:51:00,
2013-10-15 05:52:00,26.3,22.4,31.38,North,5,0.0,0.0,85,0.00,,,0.00,0.00,VWS V14.00,2013-10-15 11:52:00,
2013-10-15 05:53:00,26.3,22.4,31.38,North,5,0.0,0.0,85,0.00,,,0.00,0.00,VWS V14.00,2013-10-15 11:53:00,
2013-10-15 05:54:00,26.3,22.4,31.38,North,5,0.0,0.0,85,0.00,,,0.00,0.00,VWS V14.00,2013-10-15 11:54:00,
2013-10-15 05:55:00,26.3,22.4,31.38,North,360,0.0,0.0,85,0.00,,,0.00,0.00,VWS V14.00,2013-10-15 11:55:00,
2013-10-15 05:56:00,26.3,22.7,31.38,North,360,0.0,0.0,86,0.00,,,0.00,0.00,VWS V14.00,2013-10-15 11:56:00,
2013-10-15 05:57:00,26.3,22.7,31.38,North,5,0.0,0.0,86,0.00,,,0.00,0.00,VWS V14.00,2013-10-15 11:57:00,
2013-10-15 05:58:00,26.3,22.7,31.38,North,5,0.0,0.0,86,0.00,,,0.00,0.00,VWS V14.00,2013-10-15 11:58:00,
2013-10-15 05:59:00,26.3,22.7,31.38,North,360,0.0,0.0,86,0.00,,,0.00,0.00,VWS V14.00,2013-10-15 11:59:00,
2013-10-15 06:00:00,26.3,22.7,31.38,North,5,0.0,0.0,86,0.00,,,0.00,0.00,VWS V14.00,2013-10-15 12:00:00,
2013-10-15 06:01:00,26.3,22.7,31.38,North,360,0.0,0.0,86,0.00,,,0.00,0.00,VWS V14.00,2013-10-15 12:01:00,
2013-10-15 06:02:00,26.3,22.7,31.41,North,360,0.0,0.0,86,0.00,,,0.00,0.00,VWS V14.00,2013-10-15 12:02:00,
2013-10-15 06:03:00,26.3,22.7,31.41,North,5,0.0,0.0,86,0.00,,,0.00,0.00,VWS V14.00,2013-10-15 12:03:00,
2013-10-15 06:04:00,26.3,22.7,31.41,North,5,0.0,0.0,86,0.00,,,0.00,0.00,VWS V14.00,2013-10-15 12:04:00,
2013-10-15 06:05:00,26.3,22.7,31.41,North,5,0.0,0.0,86,0.00,,,0.00,0.00,VWS V14.00,2013-10-15 12:05:00,
2013-10-15 06:06:00,26.3,22.7,31.41,North,360,0.0,0.0,86,0.00,,,0.00,0.00,VWS V14.00,2013-10-15 12:06:00,
2013-10-15 06:07:00,26.4,22.8,31.41,North,360,0.0,0.0,86,0.00,,,0.00,0.00,VWS V14.00,2013-10-15 12:07:00,
2013-10-15 06:08:00,26.4,22.8,31.41,North,5,0.0,0.0,86,0.00,,,0.00,0.00,VWS V14.00,2013-10-15 12:08:00,
2013-10-15 06:09:00,26.4,22.8,31.41,North,5,0.0,0.0,86,0.00,,,0.00,0.00,VWS V14.00,2013-10-15 12:09:00,
2013-10-15 06:10:00,26.4,22.8,31.41,North,5,0.0,0.0,86,0.00,,,0.00,0.00,VWS V14.00,2013-10-15 12:10:00,
2013-10-15 06:11:00,26.4,23.1,31.41,North,5,0.0,0.0,87,0.00,,,0.00,0.00,VWS V14.00,2013-10-15 12:11:00,
2013-10-15 06:12:00,26.4,22.8,31.41,North,5,0.0,0.0,86,0.00,,,0.00,0.00,VWS V14.00,2013-10-15 12:12:00,
2013-10-15 06:13:00,26.4,22.8,31.41,North,5,0.0,0.0,86,0.00,,,0.00,0.00,VWS V14.00,2013-10-15 12:13:00,
2013-10-15 06:14:00,26.4,22.8,31.41,North,360,0.0,0.0,86,0.00,,,0.00,0.00,VWS V14.00,2013-10-15 12:14:00,
2013-10-15 06:15:00,26.4,23.1,31.41,North,5,0.0,0.0,87,0.00,,,0.00,0.00,VWS V14.00,2013-10-15 12:15:00,
2013-10-15 06:16:00,26.5,23.2,31.41,North,360,0.0,0.0,87,0.00,,,0.00,0.00,VWS V14.00,2013-10-15 12:16:00,
2013-10-15 06:17:00,26.5,23.2,31.40,North,5,0.0,0.0,87,0.00,,,0.00,0.00,VWS V14.00,2013-10-15 12:17:00,
2013-10-15 06:18:00,26.6,23.3,31.40,North,5,0.0,0.0,87,0.00,,,0.00,0.00,VWS V14.00,2013-10-15 12:18:00,
2013-10-15 06:19:00,26.6,23.3,31.40,North,360,0.0,0.0,87,0.00,,,0.00,0.00,VWS V14.00,2013-10-15 12:19:00,
2013-10-15 06:20:00,26.6,23.3,31.40,North,360,0.0,0.0,87,0.00,,,0.00,0.00,VWS V14.00,2013-10-15 12:20:00,
2013-10-15 06:21:00,26.7,23.4,31.40,North,360,0.0,0.0,87,0.00,,,0.00,0.00,VWS V14.00,2013-10-15 12:21:00,
2013-10-15 06:22:00,26.7,23.4,31.40,North,5,0.0,0.0,87,0.00,,,0.00,0.00,VWS V14.00,2013-10-15 12:22:00,
2013-10-15 06:23:00,26.8,23.5,31.40,North,360,0.0,0.0,87,0.00,,,0.00,0.00,VWS V14.00,2013-10-15 12:23:00,
2013-10-15 06:24:00,26.8,23.5,31.40,North,5,0.0,0.0,87,0.00,,,0.00,0.00,VWS V14.00,2013-10-15 12:24:00,
2013-10-15 06:25:00,26.9,23.6,31.40,North,5,0.0,0.0,87,0.00,,,0.00,0.00,VWS V14.00,2013-10-15 12:25:00,
2013-10-15 06:26:00,26.9,23.6,31.40,North,5,0.0,0.0,87,0.00,,,0.00,0.00,VWS V14.00,2013-10-15 12:26:00,
2013-10-15 06:27:00,26.9,23.6,31.40,North,360,0.0,0.0,87,0.00,,,0.00,0.00,VWS V14.00,2013-10-15 12:27:00,
2013-10-15 06:28:00,27.0,23.6,31.40,North,360,0.0,0.0,87,0.00,,,0.00,0.00,VWS V14.00,2013-10-15 12:28:00,
2013-10-15 06:29:00,27.0,23.6,31.40,North,5,0.0,0.0,87,0.00,,,0.00,0.00,VWS V14.00,2013-10-15 12:29:00,
2013-10-15 06:30:00,27.0,23.6,31.40,North,5,0.0,0.0,87,0.00,,,0.00,0.00,VWS V14.00,2013-10-15 12:30:00,
2013-10-15 06:31:00,27.0,23.6,31.40,North,5,0.0,0.0,87,0.00,,,0.00,0.00,VWS V14.00,2013-10-15 12:31:00,
2013-10-15 06:32:00,27.0,23.6,31.40,North,5,0.0,0.0,87,0.00,,,0.00,0.00,VWS V14.00,2013-10-15 12:32:00,
2013-10-15 06:33:00,27.0,23.6,31.40,North,360,0.0,0.0,87,0.00,,,0.00,0.00,VWS V14.00,2013-10-15 12:33:00,
2013-10-15 06:34:00,27.0,23.6,31.40,North,360,0.0,0.0,87,0.00,,,0.00,0.00,VWS V14.00,2013-10-15 12:34:00,
2013-10-15 06:35:00,27.0,23.6,31.40,North,5,0.0,0.0,87,0.00,,,0.00,0.00,VWS V14.00,2013-10-15 12:35:00,
2013-10-15 06:36:00,27.1,23.8,31.40,North,360,0.0,0.0,87,0.00,,,0.00,0.00,VWS V14.00,2013-10-15 12:36:00,
2013-10-15 06:37:00,27.1,23.8,31.40,North,360,0.0,0.0,87,0.00,,,0.00,0.00,VWS V14.00,2013-10-15 12:37:00,
2013-10-15 06:38:00,27.1,23.8,31.40,North,5,0.0,0.0,87,0.00,,,0.00,0.00,VWS V14.00,2013-10-15 12:38:00,
2013-10-15 06:39:00,27.1,23.8,31.40,North,5,0.0,0.0,87,0.00,,,0.00,0.00,VWS V14.00,2013-10-15 12:39:00,
2013-10-15 06:40:00,27.2,23.9,31.40,North,360,0.0,0.0,87,0.00,,,0.00,0.00,VWS V14.00,2013-10-15 12:40:00,
2013-10-15 06:41:00,27.2,23.9,31.40,North,360,0.0,0.0,87,0.00,,,0.00,0.00,VWS V14.00,2013-10-15 12:41:00,
2013-10-15 06:42:00,27.2,23.9,31.40,North,360,0.0,0.0,87,0.00,,,0.00,0.00,VWS V14.00,2013-10-15 12:42:00,
2013-10-15 06:43:00,27.3,24.0,31.40,North,360,0.0,0.0,87,0.00,,,0.00,0.00,VWS V14.00,2013-10-15 12:43:00,
2013-10-15 06:44:00,27.3,24.2,31.40,North,5,0.0,0.0,88,0.00,,,0.00,0.00,VWS V14.00,2013-10-15 12:44:00,
2013-10-15 06:45:00,27.3,24.2,31.40,North,5,0.0,0.0,88,0.00,,,0.00,0.00,VWS V14.00,2013-10-15 12:45:00,
2013-10-15 06:46:00,27.4,24.3,31.40,North,5,0.0,0.0,88,0.00,,,0.00,0.00,VWS V14.00,2013-10-15 12:46:00,
2013-10-15 06:47:00,27.4,24.3,31.40,North,5,0.0,0.0,88,0.00,,,0.00,0.00,VWS V14.00,2013-10-15 12:47:00,
2013-10-15 06:48:00,27.4,24.3,31.40,North,5,0.0,0.0,88,0.00,,,0.00,0.00,VWS V14.00,2013-10-15 12:48:00,
2013-10-15 06:49:00,27.4,24.3,31.40,North,5,0.0,0.0,88,0.00,,,0.00,0.00,VWS V14.00,2013-10-15 12:49:00,
2013-10-15 06:50:00,27.4,24.0,31.39,North,5,0.0,0.0,87,0.00,,,0.00,0.00,VWS V14.00,2013-10-15 12:50:00,
2013-10-15 06:51:00,27.4,24.3,31.39,North,5,0.0,0.0,88,0.00,,,0.00,0.00,VWS V14.00,2013-10-15 12:51:00,
2013-10-15 06:52:00,27.4,24.3,31.39,North,5,0.0,0.0,88,0.00,,,0.00,0.00,VWS V14.00,2013-10-15 12:52:00,
2013-10-15 06:53:00,27.4,24.3,31.40,North,5,0.0,0.0,88,0.00,,,0.00,0.00,VWS V14.00,2013-10-15 12:53:00,
2013-10-15 06:54:00,27.4,24.3,31.40,North,360,0.0,0.0,88,0.00,,,0.00,0.00,VWS V14.00,2013-10-15 12:54:00,
2013-10-15 06:55:00,27.4,24.3,31.40,North,360,0.0,0.0,88,0.00,,,0.00,0.00,VWS V14.00,2013-10-15 12:55:00,
2013-10-15 06:56:00,27.4,24.3,31.39,North,5,0.0,0.0,88,0.00,,,0.00,0.00,VWS V14.00,2013-10-15 12:56:00,
2013-10-15 06:57:00,27.5,24.4,31.39,North,5,0.0,0.0,88,0.00,,,0.00,0.00,VWS V14.00,2013-10-15 12:57:00,
2013-10-15 06:58:00,27.5,24.4,31.40,North,5,0.0,0.0,88,0.00,,,0.00,0.00,VWS V14.00,2013-10-15 12:58:00,
2013-10-15 06:59:00,27.5,24.4,31.40,North,5,0.0,0.0,88,0.00,,,0.00,0.00,VWS V14.00,2013-10-15 12:59:00,
2013-10-15 07:00:00,27.5,24.4,31.40,North,360,0.0,0.0,88,0.00,,,0.00,0.00,VWS V14.00,2013-10-15 13:00:00,
2013-10-15 07:01:00,27.5,24.4,31.40,North,5,0.0,0.0,88,0.00,,,0.00,0.00,VWS V14.00,2013-10-15 13:01:00,
2013-10-15 07:02:00,27.5,24.4,31.41,North,360,0.0,0.0,88,0.00,,,0.00,0.00,VWS V14.00,2013-10-15 13:02:00,
2013-10-15 07:03:00,27.5,24.4,31.40,North,5,0.0,0.0,88,0.00,,,0.00,0.00,VWS V14.00,2013-10-15 13:03:00,
2013-10-15 07:04:00,27.5,24.4,31.41,North,5,0.0,0.0,88,0.00,,,0.00,0.00,VWS V14.00,2013-10-15 13:04:00,
2013-10-15 07:05:00,27.4,24.3,31.41,North,5,0.0,0.0,88,0.00,,,0.00,0.00,VWS V14.00,2013-10-15 13:05:00,
2013-10-15 07:06:00,27.4,24.0,31.42,North,360,0.0,0.0,87,0.00,,,0.00,0.00,VWS V14.00,2013-10-15 13:06:00,
2013-10-15 07:07:00,27.4,24.0,31.42,North,5,0.0,0.0,87,0.00,,,0.00,0.00,VWS V14.00,2013-10-15 13:07:00,
2013-10-15 07:08:00,27.4,24.0,31.41,North,360,0.0,0.0,87,0.00,,,0.00,0.00,VWS V14.00,2013-10-15 13:08:00,
2013-10-15 07:09:00,27.4,24.0,31.41,North,5,0.0,0.0,87,0.00,,,0.00,0.00,VWS V14.00,2013-10-15 13:09:00,
2013-10-15 07:10:00,27.4,24.0,31.41,North,5,0.0,0.0,87,0.00,,,0.00,0.00,VWS V14.00,2013-10-15 13:10:00,
2013-10-15 07:11:00,27.4,24.0,31.41,North,5,0.0,0.0,87,0.00,,,0.00,0.00,VWS V14.00,2013-10-15 13:11:00,
2013-10-15 07:12:00,27.4,24.0,31.42,North,5,0.0,0.0,87,0.00,,,0.00,0.00,VWS V14.00,2013-10-15 13:12:00,
2013-10-15 07:13:00,27.4,24.0,31.42,North,5,0.0,0.0,87,0.00,,,0.00,0.00,VWS V14.00,2013-10-15 13:13:00,
2013-10-15 07:14:00,27.4,24.3,31.41,North,5,0.0,0.0,88,0.00,,,0.00,0.00,VWS V14.00,2013-10-15 13:14:00,
2013-10-15 07:15:00,27.4,24.0,31.42,North,5,0.0,0.0,87,0.00,,,0.00,0.00,VWS V14.00,2013-10-15 13:15:00,
2013-10-15 07:17:00,27.4,24.3,31.42,North,5,0.0,0.0,88,0.00,,,0.00,0.00,VWS V14.00,2013-10-15 13:17:00,
2013-10-15 07:18:00,27.4,24.3,31.42,North,360,0.0,0.0,88,0.00,,,0.00,0.00,VWS V14.00,2013-10-15 13:18:00,
2013-10-15 07:19:00,27.4,24.3,31.42,North,5,0.0,0.0,88,0.00,,,0.00,0.00,VWS V14.00,2013-10-15 13:19:00,
2013-10-15 07:20:00,27.4,24.3,31.42,North,5,0.0,0.0,88,0.00,,,0.00,0.00,VWS V14.00,2013-10-15 13:20:00,
2013-10-15 07:21:00,27.4,24.3,31.41,North,5,0.0,0.0,88,0.00,,,0.00,0.00,VWS V14.00,2013-10-15 13:21:00,
2013-10-15 07:22:00,27.4,24.3,31.42,North,5,0.0,0.0,88,0.00,,,0.00,0.00,VWS V14.00,2013-10-15 13:22:00,
2013-10-15 07:23:00,27.4,24.3,31.41,North,5,0.0,0.0,88,0.00,,,0.00,0.00,VWS V14.00,2013-10-15 13:23:00,
2013-10-15 07:24:00,27.4,24.3,31.42,North,360,0.0,0.0,88,0.00,,,0.00,0.00,VWS V14.00,2013-10-15 13:24:00,
2013-10-15 07:25:00,27.4,24.3,31.42,North,5,0.0,0.0,88,0.00,,,0.00,0.00,VWS V14.00,2013-10-15 13:25:00,
2013-10-15 07:26:00,27.4,24.3,31.42,North,5,0.0,0.0,88,0.00,,,0.00,0.00,VWS V14.00,2013-10-15 13:26:00,
2013-10-15 07:27:00,27.4,24.3,31.41,North,5,0.0,0.0,88,0.00,,,0.00,0.00,VWS V14.00,2013-10-15 13:27:00,
2013-10-15 07:28:00,27.4,24.3,31.41,North,360,0.0,0.0,88,0.00,,,0.00,0.00,VWS V14.00,2013-10-15 13:28:00,
2013-10-15 07:29:00,27.4,24.3,31.42,North,5,0.0,0.0,88,0.00,,,0.00,0.00,VWS V14.00,2013-10-15 13:29:00,
2013-10-15 07:30:00,27.4,24.3,31.42,North,360,0.0,0.0,88,0.00,,,0.00,0.00,VWS V14.00,2013-10-15 13:30:00,
2013-10-15 07:31:00,27.4,24.3,31.42,North,5,0.0,0.0,88,0.00,,,0.00,0.00,VWS V14.00,2013-10-15 13:31:00,
2013-10-15 07:32:00,27.4,24.3,31.41,North,5,0.0,0.0,88,0.00,,,0.00,0.00,VWS V14.00,2013-10-15 13:32:00,
2013-10-15 07:33:00,27.4,24.3,31.41,North,5,0.0,0.0,88,0.00,,,0.00,0.00,VWS V14.00,2013-10-15 13:33:00,
2013-10-15 07:34:00,27.4,24.3,31.42,North,5,0.0,0.0,88,0.00,,,0.00,0.00,VWS V14.00,2013-10-15 13:34:00,
2013-10-15 07:35:00,27.4,24.3,31.41,North,360,0.0,0.0,88,0.00,,,0.00,0.00,VWS V14.00,2013-10-15 13:35:00,
2013-10-15 07:36:00,27.4,24.3,31.41,North,360,0.0,0.0,88,0.00,,,0.00,0.00,VWS V14.00,2013-10-15 13:36:00,
2013-10-15 07:37:00,27.4,24.3,31.41,North,5,0.0,0.0,88,0.00,,,0.00,0.00,VWS V14.00,2013-10-15 13:37:00,
2013-10-15 07:38:00,27.4,24.3,31.41,North,5,0.0,0.0,88,0.00,,,0.00,0.00,VWS V14.00,2013-10-15 13:38:00,
2013-10-15 07:39:00,27.4,24.3,31.41,North,360,0.0,0.0,88,0.00,,,0.00,0.00,VWS V14.00,2013-10-15 13:39:00,
2013-10-15 07:40:00,27.4,24.3,31.42,North,5,0.0,0.0,88,0.00,,,0.00,0.00,VWS V14.00,2013-10-15 13:40:00,
2013-10-15 07:41:00,27.4,24.3,31.42,North,5,0.0,0.0,88,0.00,,,0.00,0.00,VWS V14.00,2013-10-15 13:41:00,
2013-10-15 07:42:00,27.4,24.3,31.41,North,5,0.0,0.0,88,0.00,,,0.00,0.00,VWS V14.00,2013-10-15 13:42:00,
2013-10-15 07:43:00,27.4,24.3,31.42,North,5,0.0,0.0,88,0.00,,,0.00,0.00,VWS V14.00,2013-10-15 13:43:00,
2013-10-15 07:46:00,27.3,24.2,31.41,North,5,0.0,0.0,88,0.00,,,0.00,0.00,VWS V14.00,2013-10-15 13:46:00,
2013-10-15 07:47:00,27.2,24.1,31.41,North,5,0.0,0.0,88,0.00,,,0.00,0.00,VWS V14.00,2013-10-15 13:47:00,
2013-10-15 07:48:00,27.2,24.1,31.41,North,5,0.0,0.0,88,0.00,,,0.00,0.00,VWS V14.00,2013-10-15 13:48:00,
2013-10-15 07:49:00,27.2,24.1,31.41,North,360,0.0,0.0,88,0.00,,,0.00,5.00,VWS V14.00,2013-10-15 13:49:00,
2013-10-15 07:50:00,27.1,23.8,31.41,North,5,0.0,0.0,87,0.00,,,0.00,5.00,VWS V14.00,2013-10-15 13:50:00,
2013-10-15 07:51:00,27.1,23.8,31.41,North,5,0.0,0.0,87,0.00,,,0.00,5.00,VWS V14.00,2013-10-15 13:51:00,
2013-10-15 07:52:00,27.1,23.8,31.41,North,5,0.0,0.0,87,0.00,,,0.00,5.00,VWS V14.00,2013-10-15 13:52:00,
2013-10-15 07:53:00,27.1,23.8,31.41,North,5,0.0,0.0,87,0.00,,,0.00,5.00,VWS V14.00,2013-10-15 13:53:00,
2013-10-15 07:54:00,27.0,23.6,31.42,North,5,0.0,0.0,87,0.00,,,0.00,5.00,VWS V14.00,2013-10-15 13:54:00,
2013-10-15 07:55:00,27.0,23.6,31.41,North,5,0.0,0.0,87,0.00,,,0.00,7.00,VWS V14.00,2013-10-15 13:55:00,
2013-10-15 07:56:00,27.0,23.6,31.41,North,5,0.0,0.0,87,0.00,,,0.00,7.00,VWS V14.00,2013-10-15 13:56:00,
2013-10-15 07:57:00,26.9,23.6,31.41,North,5,0.0,0.0,87,0.00,,,0.00,7.00,VWS V14.00,2013-10-15 13:57:00,
2013-10-15 07:58:00,26.9,23.6,31.41,North,5,0.0,0.0,87,0.00,,,0.00,7.00,VWS V14.00,2013-10-15 13:58:00,
2013-10-15 07:59:00,26.9,23.6,31.41,North,360,0.0,0.0,87,0.00,,,0.00,7.00,VWS V14.00,2013-10-15 13:59:00,
2013-10-15 08:00:00,26.9,23.6,31.41,North,360,0.0,0.0,87,0.00,,,0.00,7.00,VWS V14.00,2013-10-15 14:00:00,
2013-10-15 08:01:00,26.8,23.5,31.41,North,5,0.0,0.0,87,0.00,,,0.00,9.00,VWS V14.00,2013-10-15 14:01:00,
2013-10-15 08:02:00,26.7,23.4,31.42,North,5,0.0,0.0,87,0.00,,,0.00,9.00,VWS V14.00,2013-10-15 14:02:00,
2013-10-15 08:03:00,26.6,23.0,31.42,North,5,0.0,0.0,86,0.00,,,0.00,9.00,VWS V14.00,2013-10-15 14:03:00,
2013-10-15 08:04:00,26.4,24.4,31.42,North,360,0.0,0.0,92,0.00,,,0.00,9.00,VWS V14.00,2013-10-15 14:04:00,
2013-10-15 08:05:00,26.2,22.0,31.42,North,5,0.0,0.0,84,0.00,,,0.00,9.00,VWS V14.00,2013-10-15 14:05:00,
2013-10-15 08:06:00,26.1,21.9,31.43,North,5,0.0,0.0,84,0.00,,,0.00,11.00,VWS V14.00,2013-10-15 14:06:00,
2013-10-15 08:07:00,26.0,21.6,31.43,North,5,0.0,0.0,83,0.00,,,0.00,11.00,VWS V14.00,2013-10-15 14:07:00,
2013-10-15 08:08:00,25.8,21.4,31.43,North,5,0.0,0.0,83,0.00,,,0.00,11.00,VWS V14.00,2013-10-15 14:08:00,
2013-10-15 08:09:00,25.8,21.6,31.43,North,360,0.0,0.0,84,0.00,,,0.00,11.00,VWS V14.00,2013-10-15 14:09:00,
2013-10-15 08:10:00,25.7,21.5,31.43,North,5,0.0,0.0,84,0.00,,,0.00,11.00,VWS V14.00,2013-10-15 14:10:00,
2013-10-15 08:11:00,25.6,21.5,31.43,North,360,0.0,0.0,84,0.00,,,0.00,12.00,VWS V14.00,2013-10-15 14:11:00,
2013-10-15 08:12:00,25.6,21.5,31.43,North,5,0.0,0.0,84,0.00,,,0.00,12.00,VWS V14.00,2013-10-15 14:12:00,
2013-10-15 08:13:00,25.5,21.6,31.43,North,360,0.0,0.0,85,0.00,,,0.00,12.00,VWS V14.00,2013-10-15 14:13:00,
2013-10-15 08:14:00,25.4,21.5,31.43,North,5,0.0,0.0,85,0.00,,,0.00,12.00,VWS V14.00,2013-10-15 14:14:00,
2013-10-15 08:15:00,25.4,21.5,31.43,North,5,0.0,0.0,85,0.00,,,0.00,14.00,VWS V14.00,2013-10-15 14:15:00,
2013-10-15 08:16:00,25.4,21.5,31.43,North,5,0.0,0.0,85,0.00,,,0.00,14.00,VWS V14.00,2013-10-15 14:16:00,
2013-10-15 08:17:00,25.3,21.4,31.43,North,360,0.0,0.0,85,0.00,,,0.00,14.00,VWS V14.00,2013-10-15 14:17:00,
2013-10-15 08:18:00,25.3,21.4,31.43,North,5,0.0,0.0,85,0.00,,,0.00,14.00,VWS V14.00,2013-10-15 14:18:00,
2013-10-15 08:19:00,25.3,21.7,31.43,North,360,0.0,1.0,86,0.00,,,0.00,14.00,VWS V14.00,2013-10-15 14:19:00,
2013-10-15 08:20:00,25.4,21.8,31.43,North,5,0.0,1.0,86,0.00,,,0.00,14.00,VWS V14.00,2013-10-15 14:20:00,
2013-10-15 08:21:00,25.4,21.8,31.43,North,360,0.0,1.0,86,0.00,,,0.00,16.00,VWS V14.00,2013-10-15 14:21:00,
2013-10-15 08:22:00,25.4,21.8,31.43,North,5,0.0,1.0,86,0.00,,,0.00,16.00,VWS V14.00,2013-10-15 14:22:00,
2013-10-15 08:23:00,25.4,21.8,31.43,North,5,0.0,1.0,86,0.00,,,0.00,16.00,VWS V14.00,2013-10-15 14:23:00,
2013-10-15 08:24:00,25.4,21.8,31.43,North,360,0.0,1.0,86,0.00,,,0.00,16.00,VWS V14.00,2013-10-15 14:24:00,
2013-10-15 08:25:00,25.4,21.8,31.43,North,5,0.0,1.0,86,0.00,,,0.00,16.00,VWS V14.00,2013-10-15 14:25:00,
2013-10-15 08:26:00,25.3,21.7,31.43,North,5,0.0,1.0,86,0.00,,,0.00,16.00,VWS V14.00,2013-10-15 14:26:00,
2013-10-15 08:27:00,25.3,21.7,31.43,North,360,0.0,1.0,86,0.00,,,0.00,16.00,VWS V14.00,2013-10-15 14:27:00,
2013-10-15 08:28:00,25.4,22.1,31.43,North,5,0.0,1.0,87,0.00,,,0.00,18.00,VWS V14.00,2013-10-15 14:28:00,
2013-10-15 08:29:00,25.4,22.1,31.43,North,5,0.0,1.0,87,0.00,,,0.00,18.00,VWS V14.00,2013-10-15 14:29:00,
2013-10-15 08:30:00,25.4,22.1,31.43,North,5,0.0,1.0,87,0.00,,,0.00,18.00,VWS V14.00,2013-10-15 14:30:00,
2013-10-15 08:31:00,25.4,22.1,31.43,North,5,0.0,0.0,87,0.00,,,0.00,18.00,VWS V14.00,2013-10-15 14:31:00,
2013-10-15 08:32:00,25.4,22.1,31.43,North,5,0.0,0.0,87,0.00,,,0.00,18.00,VWS V14.00,2013-10-15 14:32:00,
2013-10-15 08:33:00,25.5,22.2,31.43,North,360,0.0,0.0,87,0.00,,,0.00,18.00,VWS V14.00,2013-10-15 14:33:00,
2013-10-15 08:34:00,25.6,22.3,31.43,North,5,0.0,0.0,87,0.00,,,0.00,18.00,VWS V14.00,2013-10-15 14:34:00,
2013-10-15 08:35:00,25.7,22.6,31.43,North,5,0.0,0.0,88,0.00,,,0.00,18.00,VWS V14.00,2013-10-15 14:35:00,
2013-10-15 08:36:00,25.8,22.7,31.43,North,5,0.0,0.0,88,0.00,,,0.00,19.00,VWS V14.00,2013-10-15 14:36:00,
2013-10-15 08:37:00,26.0,22.9,31.43,North,360,0.0,0.0,88,0.00,,,0.00,19.00,VWS V14.00,2013-10-15 14:37:00,
2013-10-15 08:38:00,26.2,23.1,31.43,North,360,0.0,0.0,88,0.00,,,0.00,19.00,VWS V14.00,2013-10-15 14:38:00,
2013-10-15 08:39:00,26.3,23.5,31.43,North,5,0.0,0.0,89,0.00,,,0.00,19.00,VWS V14.00,2013-10-15 14:39:00,
2013-10-15 08:40:00,26.5,23.7,31.43,North,360,0.0,0.0,89,0.00,,,0.00,19.00,VWS V14.00,2013-10-15 14:40:00,
2013-10-15 08:41:00,26.6,23.8,31.42,North,5,0.0,0.0,89,0.00,,,0.00,19.00,VWS V14.00,2013-10-15 14:41:00,
2013-10-15 08:42:00,26.8,24.0,31.42,North,5,0.0,0.0,89,0.00,,,0.00,19.00,VWS V14.00,2013-10-15 14:42:00,
2013-10-15 08:43:00,26.9,24.1,31.42,North,5,0.0,0.0,89,0.00,,,0.00,19.00,VWS V14.00,2013-10-15 14:43:00,
2013-10-15 08:44:00,27.0,24.2,31.42,North,5,0.0,0.0,89,0.00,,,0.00,19.00,VWS V14.00,2013-10-15 14:44:00,
2013-10-15 08:45:00,27.1,24.3,31.42,North,360,0.0,0.0,89,0.00,,,0.00,19.00,VWS V14.00,2013-10-15 14:45:00,
2013-10-15 08:46:00,27.2,24.4,31.42,North,360,0.0,0.0,89,0.00,,,0.00,21.00,VWS V14.00,2013-10-15 14:46:00,
2013-10-15 08:47:00,27.2,24.4,31.42,North,5,0.0,0.0,89,0.00,,,0.00,21.00,VWS V14.00,2013-10-15 14:47:00,
2013-10-15 08:48:00,27.3,24.5,31.42,North,5,0.0,0.0,89,0.00,,,0.00,21.00,VWS V14.00,2013-10-15 14:48:00,
2013-10-15 08:49:00,27.4,24.6,31.42,North,5,0.0,0.0,89,0.00,,,0.00,21.00,VWS V14.00,2013-10-15 14:49:00,
2013-10-15 08:50:00,27.5,24.7,31.42,North,5,0.0,0.0,89,0.00,,,0.00,21.00,VWS V14.00,2013-10-15 14:50:00,
2013-10-15 08:51:00,27.6,24.8,31.42,North,360,0.0,0.0,89,0.00,,,0.00,21.00,VWS V14.00,2013-10-15 14:51:00,
2013-10-15 08:52:00,27.6,24.8,31.42,North,5,0.0,0.0,89,0.00,,,0.00,21.00,VWS V14.00,2013-10-15 14:52:00,
2013-10-15 08:53:00,27.6,24.8,31.42,North,5,0.0,0.0,89,0.00,,,0.00,21.00,VWS V14.00,2013-10-15 14:53:00,
2013-10-15 08:54:00,27.7,24.9,31.42,North,5,0.0,0.0,89,0.00,,,0.00,21.00,VWS V14.00,2013-10-15 14:54:00,
2013-10-15 08:55:00,27.7,24.9,31.42,North,5,0.0,0.0,89,0.00,,,0.00,21.00,VWS V14.00,2013-10-15 14:55:00,
2013-10-15 08:56:00,27.8,25.0,31.42,North,5,0.0,0.0,89,0.00,,,0.00,21.00,VWS V14.00,2013-10-15 14:56:00,
2013-10-15 08:57:00,27.8,25.0,31.42,North,5,0.0,0.0,89,0.00,,,0.00,23.00,VWS V14.00,2013-10-15 14:57:00,
2013-10-15 08:58:00,27.8,25.0,31.42,North,5,0.0,0.0,89,0.00,,,0.00,23.00,VWS V14.00,2013-10-15 14:58:00,
2013-10-15 08:59:00,27.8,25.0,31.42,North,5,0.0,0.0,89,0.00,,,0.00,23.00,VWS V14.00,2013-10-15 14:59:00,
2013-10-15 09:00:00,27.8,25.0,31.42,North,360,0.0,0.0,89,0.00,,,0.00,23.00,VWS V14.00,2013-10-15 15:00:00,
2013-10-15 09:01:00,27.9,25.1,31.42,North,5,0.0,0.0,89,0.00,,,0.00,23.00,VWS V14.00,2013-10-15 15:01:00,
2013-10-15 09:02:00,27.9,25.1,31.43,North,5,0.0,0.0,89,0.00,,,0.00,23.00,VWS V14.00,2013-10-15 15:02:00,
2013-10-15 09:03:00,28.0,25.2,31.42,North,360,0.0,0.0,89,0.00,,,0.00,23.00,VWS V14.00,2013-10-15 15:03:00,
2013-10-15 09:04:00,28.0,25.2,31.42,North,5,0.0,0.0,89,0.00,,,0.00,23.00,VWS V14.00,2013-10-15 15:04:00,
2013-10-15 09:05:00,28.1,25.3,31.42,North,5,0.0,0.0,89,0.00,,,0.00,23.00,VWS V14.00,2013-10-15 15:05:00,
2013-10-15 09:06:00,28.1,25.3,31.42,North,5,0.0,0.0,89,0.00,,,0.00,23.00,VWS V14.00,2013-10-15 15:06:00,
2013-10-15 09:07:00,28.2,25.4,31.42,North,360,0.0,0.0,89,0.00,,,0.00,23.00,VWS V14.00,2013-10-15 15:07:00,
2013-10-15 09:08:00,28.2,25.4,31.43,North,5,0.0,1.0,89,0.00,,,0.00,23.00,VWS V14.00,2013-10-15 15:08:00,
2013-10-15 09:09:00,28.2,25.4,31.42,North,360,0.0,1.0,89,0.00,,,0.00,25.00,VWS V14.00,2013-10-15 15:09:00,
2013-10-15 09:10:00,28.3,25.5,31.42,North,360,0.0,1.0,89,0.00,,,0.00,25.00,VWS V14.00,2013-10-15 15:10:00,
2013-10-15 09:11:00,28.3,25.5,31.42,North,360,1.0,2.0,89,0.00,,,0.00,25.00,VWS V14.00,2013-10-15 15:11:00,
2013-10-15 09:12:00,28.4,25.6,31.42,North,5,0.0,2.0,89,0.00,,,0.00,25.00,VWS V14.00,2013-10-15 15:12:00,
2013-10-15 09:13:00,28.4,25.6,31.42,North,360,2.0,2.0,89,0.00,,,0.00,25.00,VWS V14.00,2013-10-15 15:13:00,
2013-10-15 09:14:00,28.5,25.7,31.42,North,360,0.0,2.0,89,0.00,,,0.00,25.00,VWS V14.00,2013-10-15 15:14:00,
2013-10-15 09:15:00,28.6,25.8,31.42,North,360,0.0,2.0,89,0.00,,,0.00,25.00,VWS V14.00,2013-10-15 15:15:00,
2013-10-15 09:16:00,28.6,25.8,31.42,North,5,0.0,0.0,89,0.00,,,0.00,25.00,VWS V14.00,2013-10-15 15:16:00,
2013-10-15 09:17:00,28.7,25.9,31.42,North,360,0.0,0.0,89,0.00,,,0.00,25.00,VWS V14.00,2013-10-15 15:17:00,
2013-10-15 09:18:00,28.8,26.0,31.42,North,5,0.0,0.0,89,0.00,,,0.00,25.00,VWS V14.00,2013-10-15 15:18:00,
2013-10-15 09:19:00,28.8,26.0,31.42,North,5,0.0,0.0,89,0.00,,,0.00,25.00,VWS V14.00,2013-10-15 15:19:00,
2013-10-15 09:20:00,28.8,26.2,31.42,North,360,0.0,0.0,90,0.00,,,0.00,25.00,VWS V14.00,2013-10-15 15:20:00,
2013-10-15 09:21:00,28.9,26.1,31.42,North,360,0.0,0.0,89,0.00,,,0.00,25.00,VWS V14.00,2013-10-15 15:21:00,
2013-10-15 09:22:00,29.0,26.2,31.42,North,360,0.0,0.0,89,0.00,,,0.00,25.00,VWS V14.00,2013-10-15 15:22:00,
2013-10-15 09:23:00,29.0,26.2,31.42,North,5,0.0,0.0,89,0.00,,,0.00,25.00,VWS V14.00,2013-10-15 15:23:00,
2013-10-15 09:24:00,29.0,26.2,31.42,North,5,0.0,0.0,89,0.00,,,0.00,26.00,VWS V14.00,2013-10-15 15:24:00,
2013-10-15 09:25:00,29.1,26.3,31.42,North,5,0.0,0.0,89,0.00,,,0.00,26.00,VWS V14.00,2013-10-15 15:25:00,
2013-10-15 09:26:00,29.2,26.4,31.42,North,5,0.0,0.0,89,0.00,,,0.00,26.00,VWS V14.00,2013-10-15 15:26:00,
2013-10-15 09:27:00,29.2,26.4,31.42,North,360,0.0,0.0,89,0.00,,,0.00,26.00,VWS V14.00,2013-10-15 15:27:00,
2013-10-15 09:28:00,29.2,26.4,31.42,North,5,0.0,0.0,89,0.00,,,0.00,26.00,VWS V14.00,2013-10-15 15:28:00,
2013-10-15 09:29:00,29.3,26.5,31.42,North,360,0.0,0.0,89,0.00,,,0.00,26.00,VWS V14.00,2013-10-15 15:29:00,
2013-10-15 09:30:00,29.4,26.6,31.42,North,5,0.0,0.0,89,0.00,,,0.00,26.00,VWS V14.00,2013-10-15 15:30:00,
2013-10-15 09:31:00,29.4,26.6,31.42,North,360,0.0,0.0,89,0.00,,,0.00,26.00,VWS V14.00,2013-10-15 15:31:00,
2013-10-15 09:32:00,29.5,26.7,31.42,North,5,0.0,0.0,89,0.00,,,0.00,26.00,VWS V14.00,2013-10-15 15:32:00,
2013-10-15 09:33:00,29.6,26.8,31.41,North,360,0.0,0.0,89,0.00,,,0.00,26.00,VWS V14.00,2013-10-15 15:33:00,
2013-10-15 09:34:00,29.6,26.8,31.41,North,5,0.0,0.0,89,0.00,,,0.00,26.00,VWS V14.00,2013-10-15 15:34:00,
2013-10-15 09:35:00,29.6,26.8,31.41,North,5,0.0,0.0,89,0.00,,,0.00,26.00,VWS V14.00,2013-10-15 15:35:00,
2013-10-15 09:36:00,29.7,26.9,31.41,North,5,0.0,0.0,89,0.00,,,0.00,26.00,VWS V14.00,2013-10-15 15:36:00,
2013-10-15 09:37:00,29.7,26.9,31.41,North,5,0.0,0.0,89,0.00,,,0.00,26.00,VWS V14.00,2013-10-15 15:37:00,
2013-10-15 09:38:00,29.8,27.0,31.41,North,5,0.0,0.0,89,0.00,,,0.00,26.00,VWS V14.00,2013-10-15 15:38:00,
2013-10-15 09:39:00,29.8,27.0,31.41,North,360,0.0,0.0,89,0.00,,,0.00,26.00,VWS V14.00,2013-10-15 15:39:00,
2013-10-15 09:40:00,29.9,27.1,31.41,North,5,0.0,0.0,89,0.00,,,0.00,26.00,VWS V14.00,2013-10-15 15:40:00,
2013-10-15 09:41:00,29.9,27.1,31.41,North,360,0.0,0.0,89,0.00,,,0.00,28.00,VWS V14.00,2013-10-15 15:41:00,
2013-10-15 09:42:00,30.0,27.2,31.41,North,5,0.0,0.0,89,0.00,,,0.00,28.00,VWS V14.00,2013-10-15 15:42:00,
2013-10-15 09:43:00,30.1,27.3,31.41,North,360,0.0,0.0,89,0.00,,,0.00,28.00,VWS V14.00,2013-10-15 15:43:00,
2013-10-15 09:44:00,30.2,27.4,31.41,North,5,0.0,0.0,89,0.00,,,0.00,28.00,VWS V14.00,2013-10-15 15:44:00,
2013-10-15 09:45:00,30.2,27.4,31.41,North,360,0.0,0.0,89,0.00,,,0.00,28.00,VWS V14.00,2013-10-15 15:45:00,
2013-10-15 09:46:00,30.3,27.5,31.41,North,5,0.0,0.0,89,0.00,,,0.00,28.00,VWS V14.00,2013-10-15 15:46:00,
2013-10-15 09:47:00,30.4,27.3,31.41,North,5,0.0,0.0,88,0.00,,,0.00,28.00,VWS V14.00,2013-10-15 15:47:00,
2013-10-15 09:48:00,30.4,27.3,31.41,North,5,0.0,0.0,88,0.00,,,0.00,28.00,VWS V14.00,2013-10-15 15:48:00,
2013-10-15 09:49:00,30.5,27.4,31.41,North,360,0.0,1.0,88,0.00,,,0.00,28.00,VWS V14.00,2013-10-15 15:49:00,
2013-10-15 09:50:00,30.6,27.5,31.41,North,360,0.0,1.0,88,0.00,,,0.00,28.00,VWS V14.00,2013-10-15 15:50:00,
2013-10-15 09:51:00,30.7,27.6,31.40,North,360,0.0,1.0,88,0.00,,,0.00,28.00,VWS V14.00,2013-10-15 15:51:00,
2013-10-15 09:52:00,30.8,27.7,31.40,North,5,0.0,1.0,88,0.00,,,0.00,28.00,VWS V14.00,2013-10-15 15:52:00,
2013-10-15 09:53:00,30.8,27.7,31.40,North,5,0.0,1.0,88,0.00,,,0.00,28.00,VWS V14.00,2013-10-15 15:53:00,
2013-10-15 09:54:00,30.9,27.5,31.40,North,5,0.0,1.0,87,0.00,,,0.00,28.00,VWS V14.00,2013-10-15 15:54:00,
2013-10-15 09:55:00,31.0,27.6,31.40,North,360,0.0,1.0,87,0.00,,,0.00,28.00,VWS V14.00,2013-10-15 15:55:00,
2013-10-15 09:56:00,31.1,27.7,31.40,North,360,0.0,1.0,87,0.00,,,0.00,30.00,VWS V14.00,2013-10-15 15:56:00,
2013-10-15 09:57:00,31.1,27.7,31.40,North,5,0.0,1.0,87,0.00,,,0.00,30.00,VWS V14.00,2013-10-15 15:57:00,
2013-10-15 09:58:00,31.2,27.8,31.40,North,5,0.0,1.0,87,0.00,,,0.00,30.00,VWS V14.00,2013-10-15 15:58:00,
2013-10-15 09:59:00,31.3,27.9,31.40,North,360,0.0,1.0,87,0.00,,,0.00,30.00,VWS V14.00,2013-10-15 15:59:00,
2013-10-15 10:00:00,31.4,28.0,31.40,North,5,0.0,1.0,87,0.00,,,0.00,30.00,VWS V14.00,2013-10-15 16:00:00,
2013-10-15 10:01:00,31.5,28.1,31.41,North,360,0.0,0.0,87,0.00,,,0.00,30.00,VWS V14.00,2013-10-15 16:01:00,
2013-10-15 10:02:00,31.6,28.2,31.40,North,5,0.0,0.0,87,0.00,,,0.00,30.00,VWS V14.00,2013-10-15 16:02:00,
2013-10-15 10:03:00,31.7,28.3,31.40,North,5,0.0,0.0,87,0.00,,,0.00,30.00,VWS V14.00,2013-10-15 16:03:00,
2013-10-15 10:04:00,31.8,28.4,31.40,North,5,0.0,0.0,87,0.00,,,0.00,30.00,VWS V14.00,2013-10-15 16:04:00,
2013-10-15 10:05:00,32.0,28.6,31.40,North,360,0.0,0.0,87,0.00,,,0.00,30.00,VWS V14.00,2013-10-15 16:05:00,
2013-10-15 10:06:00,32.1,28.7,31.40,North,5,0.0,0.0,87,0.00,,,0.00,32.00,VWS V14.00,2013-10-15 16:06:00,
2013-10-15 10:07:00,32.2,28.8,31.40,North,5,0.0,0.0,87,0.00,,,0.00,32.00,VWS V14.00,2013-10-15 16:07:00,
2013-10-15 10:08:00,32.3,28.9,31.40,North,5,0.0,0.0,87,0.00,,,0.00,32.00,VWS V14.00,2013-10-15 16:08:00,
2013-10-15 10:09:00,32.4,28.7,31.40,North,5,0.0,0.0,86,0.00,,,0.00,32.00,VWS V14.00,2013-10-15 16:09:00,
2013-10-15 10:10:00,32.5,28.8,31.40,North,5,0.0,0.0,86,0.00,,,0.00,32.00,VWS V14.00,2013-10-15 16:10:00,
2013-10-15 10:11:00,32.6,28.9,31.40,North,5,0.0,0.0,86,0.00,,,0.00,32.00,VWS V14.00,2013-10-15 16:11:00,
2013-10-15 10:12:00,32.7,29.0,31.40,North,360,0.0,0.0,86,0.00,,,0.00,37.00,VWS V14.00,2013-10-15 16:12:00,
2013-10-15 10:13:00,32.8,28.8,31.40,North,5,0.0,0.0,85,0.00,,,0.00,47.00,VWS V14.00,2013-10-15 16:13:00,
2013-10-15 10:14:00,32.9,28.9,31.40,North,360,0.0,0.0,85,0.00,,,0.00,111.00,VWS V14.00,2013-10-15 16:14:00,
2013-10-15 10:15:00,32.9,28.9,31.40,North,5,1.0,3.0,85,0.00,,,0.00,178.00,VWS V14.00,2013-10-15 16:15:00,
2013-10-15 10:16:00,33.0,29.0,31.40,North,5,1.0,2.0,85,0.00,,,0.00,343.00,VWS V14.00,2013-10-15 16:16:00,
2013-10-15 10:17:00,33.1,29.1,31.40,North,5,0.0,2.0,85,0.00,,,0.00,345.00,VWS V14.00,2013-10-15 16:17:00,
2013-10-15 10:18:00,33.2,28.9,31.40,North,5,0.0,2.0,84,0.00,,,0.00,346.00,VWS V14.00,2013-10-15 16:18:00,
2013-10-15 10:19:00,33.3,29.0,31.40,North,5,0.0,2.0,84,0.00,,,0.00,346.00,VWS V14.00,2013-10-15 16:19:00,
2013-10-15 10:20:00,33.4,29.1,31.40,North,360,0.0,2.0,84,0.00,,,0.00,348.00,VWS V14.00,2013-10-15 16:20:00,
2013-10-15 10:21:00,33.5,29.2,31.40,North,5,0.0,2.0,84,0.00,,,0.00,350.00,VWS V14.00,2013-10-15 16:21:00,
2013-10-15 10:22:00,33.6,29.3,31.39,North,5,0.0,2.0,84,0.00,,,0.00,352.00,VWS V14.00,2013-10-15 16:22:00,
2013-10-15 10:23:00,33.7,29.4,31.39,North,360,2.0,2.0,84,0.00,,,0.00,355.00,VWS V14.00,2013-10-15 16:23:00,
2013-10-15 10:24:00,33.9,29.6,31.39,North,5,0.0,2.0,84,0.00,,,0.00,357.00,VWS V14.00,2013-10-15 16:24:00,
2013-10-15 10:25:00,33.9,29.3,31.39,North,5,0.0,2.0,83,0.00,,,0.00,359.00,VWS V14.00,2013-10-15 16:25:00,
2013-10-15 10:26:00,34.1,29.5,31.39,North,5,0.0,2.0,83,0.00,,,0.00,360.00,VWS V14.00,2013-10-15 16:26:00,
2013-10-15 10:27:00,34.2,29.3,31.39,North,5,0.0,2.0,82,0.00,,,0.00,366.00,VWS V14.00,2013-10-15 16:27:00,
2013-10-15 10:28:00,34.4,29.8,31.39,North,5,0.0,2.0,83,0.00,,,0.00,367.00,VWS V14.00,2013-10-15 16:28:00,
2013-10-15 10:29:00,34.4,29.8,31.39,North,5,0.0,2.0,83,0.00,,,0.00,371.00,VWS V14.00,2013-10-15 16:29:00,
2013-10-15 10:30:00,34.4,29.5,31.39,North,360,0.0,2.0,82,0.00,,,0.00,371.00,VWS V14.00,2013-10-15 16:30:00,
2013-10-15 10:31:00,34.5,29.6,31.39,North,360,0.0,0.0,82,0.00,,,0.00,374.00,VWS V14.00,2013-10-15 16:31:00,
2013-10-15 10:32:00,34.7,29.8,31.39,North,5,0.0,0.0,82,0.00,,,0.00,380.00,VWS V14.00,2013-10-15 16:32:00,
2013-10-15 10:33:00,34.9,30.0,31.39,North,360,2.0,2.0,82,0.00,,,0.00,387.00,VWS V14.00,2013-10-15 16:33:00,
2013-10-15 10:34:00,35.1,30.2,31.39,North,360,0.0,2.0,82,0.00,,,0.00,388.00,VWS V14.00,2013-10-15 16:34:00,
2013-10-15 10:35:00,35.3,30.1,31.39,North,5,0.0,2.0,81,0.00,,,0.00,392.00,VWS V14.00,2013-10-15 16:35:00,
2013-10-15 10:36:00,35.4,29.9,31.38,North,5,0.0,2.0,80,0.00,,,0.00,397.00,VWS V14.00,2013-10-15 16:36:00,
2013-10-15 10:37:00,35.7,29.5,31.37,North,360,0.0,2.0,78,0.00,,,0.00,401.00,VWS V14.00,2013-10-15 16:37:00,
2013-10-15 10:38:00,35.9,29.7,31.37,North,5,0.0,2.0,78,0.00,,,0.00,406.00,VWS V14.00,2013-10-15 16:38:00,
2013-10-15 10:39:00,36.1,29.9,31.37,North,360,0.0,2.0,78,0.00,,,0.00,408.00,VWS V14.00,2013-10-15 16:39:00,
2013-10-15 10:40:00,36.3,29.8,31.37,North,5,0.0,2.0,77,0.00,,,0.00,410.00,VWS V14.00,2013-10-15 16:40:00,
2013-10-15 10:41:00,36.6,30.4,31.37,North,5,0.0,2.0,78,0.00,,,0.00,411.00,VWS V14.00,2013-10-15 16:41:00,
2013-10-15 10:42:00,36.8,30.3,31.37,North,360,0.0,2.0,77,0.00,,,0.00,413.00,VWS V14.00,2013-10-15 16:42:00,
2013-10-15 10:43:00,37.1,30.9,31.37,North,360,0.0,2.0,78,0.00,,,0.00,415.00,VWS V14.00,2013-10-15 16:43:00,
2013-10-15 10:44:00,37.4,30.9,31.37,North,5,0.0,2.0,77,0.00,,,0.00,418.00,VWS V14.00,2013-10-15 16:44:00,
2013-10-15 10:45:00,37.7,31.1,31.36,North,5,0.0,2.0,77,0.00,,,0.00,420.00,VWS V14.00,2013-10-15 16:45:00,
2013-10-15 10:46:00,37.9,31.0,31.36,North,5,2.0,3.0,76,0.00,,,0.00,424.00,VWS V14.00,2013-10-15 16:46:00,
2013-10-15 10:47:00,38.2,31.6,31.36,North,360,0.0,3.0,77,0.00,,,0.00,424.00,VWS V14.00,2013-10-15 16:47:00,
2013-10-15 10:48:00,38.3,31.1,31.36,North,5,2.0,3.0,75,0.00,,,0.00,427.00,VWS V14.00,2013-10-15 16:48:00,
2013-10-15 10:49:00,38.4,31.2,31.36,North,360,2.0,3.0,75,0.00,,,0.00,429.00,VWS V14.00,2013-10-15 16:49:00,
2013-10-15 10:50:00,38.6,31.4,31.36,North,5,0.0,3.0,75,0.00,,,0.00,429.00,VWS V14.00,2013-10-15 16:50:00,
2013-10-15 10:51:00,38.7,31.8,31.36,North,5,1.0,4.0,76,0.00,,,0.00,432.00,VWS V14.00,2013-10-15 16:51:00,
2013-10-15 10:52:00,38.8,31.2,31.36,North,5,0.0,4.0,74,0.00,,,0.00,434.00,VWS V14.00,2013-10-15 16:52:00,
2013-10-15 10:53:00,39.0,31.1,31.36,North,360,0.0,4.0,73,0.00,,,0.00,436.00,VWS V14.00,2013-10-15 16:53:00,
2013-10-15 10:54:00,39.1,30.9,31.36,North,5,0.0,4.0,72,0.00,,,0.00,436.00,VWS V14.00,2013-10-15 16:54:00,
2013-10-15 10:55:00,39.2,31.3,31.36,North,5,0.0,4.0,73,0.00,,,0.00,438.00,VWS V14.00,2013-10-15 16:55:00,
2013-10-15 10:56:00,39.3,31.7,31.36,North,5,2.0,4.0,74,0.00,,,0.00,443.00,VWS V14.00,2013-10-15 16:56:00,
2013-10-15 10:57:00,39.4,31.8,31.35,North,360,0.0,4.0,74,0.00,,,0.00,443.00,VWS V14.00,2013-10-15 16:57:00,
2013-10-15 10:58:00,39.5,31.9,31.35,North,360,0.0,4.0,74,0.00,,,0.00,445.00,VWS V14.00,2013-10-15 16:58:00,
2013-10-15 10:59:00,39.6,31.7,31.34,North,5,0.0,4.0,73,0.00,,,0.00,446.00,VWS V14.00,2013-10-15 16:59:00,
2013-10-15 11:00:00,39.7,31.8,31.34,North,5,0.0,4.0,73,0.00,,,0.00,448.00,VWS V14.00,2013-10-15 17:00:00,
2013-10-15 11:01:00,39.8,31.9,31.35,North,360,0.0,0.0,73,0.00,,,0.00,450.00,VWS V14.00,2013-10-15 17:01:00,
2013-10-15 11:02:00,39.9,32.0,31.35,North,5,0.0,0.0,73,0.00,,,0.00,452.00,VWS V14.00,2013-10-15 17:02:00,
2013-10-15 11:03:00,40.0,31.7,31.35,North,360,0.0,0.0,72,0.00,,,0.00,454.00,VWS V14.00,2013-10-15 17:03:00,
2013-10-15 11:04:00,40.1,31.5,31.35,North,360,0.0,2.0,71,0.00,,,0.00,455.00,VWS V14.00,2013-10-15 17:04:00,
2013-10-15 11:05:00,40.3,31.7,31.35,North,5,0.0,2.0,71,0.00,,,0.00,457.00,VWS V14.00,2013-10-15 17:05:00,
2013-10-15 11:06:00,40.4,31.8,31.35,North,360,0.0,2.0,71,0.00,,,0.00,457.00,VWS V14.00,2013-10-15 17:06:00,
2013-10-15 11:07:00,40.6,33.0,31.35,North,5,0.0,2.0,74,0.00,,,0.00,459.00,VWS V14.00,2013-10-15 17:07:00,
2013-10-15 11:08:00,40.7,32.0,31.33,North,5,0.0,2.0,71,0.00,,,0.00,462.00,VWS V14.00,2013-10-15 17:08:00,
2013-10-15 11:09:00,40.8,31.8,31.34,North,5,0.0,2.0,70,0.00,,,0.00,464.00,VWS V14.00,2013-10-15 17:09:00,
2013-10-15 11:10:00,40.9,31.5,31.34,North,5,0.0,2.0,69,0.00,,,0.00,464.00,VWS V14.00,2013-10-15 17:10:00,
2013-10-15 11:11:00,41.0,31.3,31.34,North,360,0.0,2.0,68,0.00,,,0.00,468.00,VWS V14.00,2013-10-15 17:11:00,
2013-10-15 11:12:00,41.1,31.7,31.34,North,5,0.0,2.0,69,0.00,,,0.00,468.00,VWS V14.00,2013-10-15 17:12:00,
2013-10-15 11:13:00,41.2,32.5,31.33,North,5,0.0,2.0,71,0.00,,,0.00,469.00,VWS V14.00,2013-10-15 17:13:00,
2013-10-15 11:14:00,41.4,32.0,31.33,North,5,0.0,2.0,69,0.00,,,0.00,471.00,VWS V14.00,2013-10-15 17:14:00,
2013-10-15 11:15:00,41.5,31.7,31.33,North,5,0.0,2.0,68,0.00,,,0.00,473.00,VWS V14.00,2013-10-15 17:15:00,
2013-10-15 11:16:00,41.6,31.8,31.33,North,5,0.0,0.0,68,0.00,,,0.00,475.00,VWS V14.00,2013-10-15 17:16:00,
2013-10-15 11:17:00,41.6,31.1,31.33,North,360,0.0,0.0,66,0.00,,,0.00,476.00,VWS V14.00,2013-10-15 17:17:00,
2013-10-15 11:18:00,41.8,31.3,31.33,North,360,0.0,0.0,66,0.00,,,0.00,478.00,VWS V14.00,2013-10-15 17:18:00,
2013-10-15 11:19:00,41.9,31.4,31.33,North,5,0.0,0.0,66,0.00,,,0.00,478.00,VWS V14.00,2013-10-15 17:19:00,
2013-10-15 11:20:00,42.1,32.3,31.33,North,5,0.0,0.0,68,0.00,,,0.00,482.00,VWS V14.00,2013-10-15 17:20:00,
2013-10-15 11:21:00,42.3,31.8,31.33,North,5,0.0,0.0,66,0.00,,,0.00,483.00,VWS V14.00,2013-10-15 17:21:00,
2013-10-15 11:22:00,42.4,31.5,31.33,North,360,0.0,0.0,65,0.00,,,0.00,487.00,VWS V14.00,2013-10-15 17:22:00,
2013-10-15 11:23:00,42.6,31.7,31.33,North,5,0.0,1.0,65,0.00,,,0.00,487.00,VWS V14.00,2013-10-15 17:23:00,
2013-10-15 11:24:00,42.7,30.6,31.32,North,360,0.0,1.0,62,0.00,,,0.00,490.00,VWS V14.00,2013-10-15 17:24:00,
2013-10-15 11:25:00,42.9,30.8,31.32,North,5,0.0,1.0,62,0.00,,,0.00,492.00,VWS V14.00,2013-10-15 17:25:00,
2013-10-15 11:26:00,43.0,30.5,31.32,North,360,0.0,1.0,61,0.00,,,0.00,494.00,VWS V14.00,2013-10-15 17:26:00,
2013-10-15 11:27:00,43.1,31.0,31.32,North,5,0.0,1.0,62,0.00,,,0.00,494.00,VWS V14.00,2013-10-15 17:27:00,
2013-10-15 11:28:00,43.2,30.7,31.32,North,5,0.0,1.0,61,0.00,,,0.00,496.00,VWS V14.00,2013-10-15 17:28:00,
2013-10-15 11:29:00,43.3,30.8,31.32,North,360,0.0,1.0,61,0.00,,,0.00,497.00,VWS V14.00,2013-10-15 17:29:00,
2013-10-15 11:30:00,43.4,31.3,31.32,North,5,0.0,1.0,62,0.00,,,0.00,497.00,VWS V14.00,2013-10-15 17:30:00,
2013-10-15 11:31:00,43.5,31.8,31.32,North,360,0.0,0.0,63,0.00,,,0.00,499.00,VWS V14.00,2013-10-15 17:31:00,
2013-10-15 11:32:00,43.6,31.5,31.31,North,360,0.0,0.0,62,0.00,,,0.00,501.00,VWS V14.00,2013-10-15 17:32:00,
2013-10-15 11:33:00,43.7,31.5,31.32,North,360,0.0,2.0,62,0.00,,,0.00,503.00,VWS V14.00,2013-10-15 17:33:00,
2013-10-15 11:34:00,43.7,31.1,31.32,North,360,0.0,2.0,61,0.00,,,0.00,506.00,VWS V14.00,2013-10-15 17:34:00,
2013-10-15 11:35:00,43.8,31.2,31.31,North,360,0.0,2.0,61,0.00,,,0.00,504.00,VWS V14.00,2013-10-15 17:35:00,
2013-10-15 11:36:00,43.8,31.2,31.31,North,360,0.0,2.0,61,0.00,,,0.00,504.00,VWS V14.00,2013-10-15 17:36:00,
2013-10-15 11:37:00,43.9,31.3,31.31,North,360,0.0,2.0,61,0.00,,,0.00,508.00,VWS V14.00,2013-10-15 17:37:00,
2013-10-15 11:38:00,44.0,31.4,31.31,North,360,0.0,2.0,61,0.00,,,0.00,510.00,VWS V14.00,2013-10-15 17:38:00,
2013-10-15 11:39:00,44.0,31.0,31.31,North,360,0.0,2.0,60,0.00,,,0.00,512.00,VWS V14.00,2013-10-15 17:39:00,
2013-10-15 11:40:00,44.0,31.0,31.31,North,360,0.0,2.0,60,0.00,,,0.00,512.00,VWS V14.00,2013-10-15 17:40:00,
2013-10-15 11:41:00,44.0,31.4,31.31,North,360,0.0,2.0,61,0.00,,,0.00,513.00,VWS V14.00,2013-10-15 17:41:00,
2013-10-15 11:42:00,44.1,31.9,31.31,North,360,0.0,2.0,62,0.00,,,0.00,513.00,VWS V14.00,2013-10-15 17:42:00,
2013-10-15 11:43:00,44.1,31.9,31.31,North,360,0.0,2.0,62,0.00,,,0.00,517.00,VWS V14.00,2013-10-15 17:43:00,
2013-10-15 11:44:00,44.2,32.0,31.31,North,360,0.0,2.0,62,0.00,,,0.00,517.00,VWS V14.00,2013-10-15 17:44:00,
2013-10-15 11:45:00,44.3,32.1,31.31,North,360,0.0,2.0,62,0.00,,,0.00,517.00,VWS V14.00,2013-10-15 17:45:00,
2013-10-15 11:46:00,44.3,31.7,31.30,North,360,3.0,4.0,61,0.00,,,0.00,517.00,VWS V14.00,2013-10-15 17:46:00,
2013-10-15 11:47:00,44.5,33.9,31.30,North,360,0.0,4.0,66,0.00,,,0.00,519.00,VWS V14.00,2013-10-15 17:47:00,
2013-10-15 11:48:00,44.6,33.6,31.29,North,360,0.0,4.0,65,0.00,,,0.00,519.00,VWS V14.00,2013-10-15 17:48:00,
2013-10-15 11:49:00,44.7,33.3,31.29,North,360,0.0,4.0,64,0.00,,,0.00,522.00,VWS V14.00,2013-10-15 17:49:00,
2013-10-15 11:50:00,44.8,33.0,31.29,North,360,2.0,4.0,63,0.00,,,0.00,524.00,VWS V14.00,2013-10-15 17:50:00,
2013-10-15 11:51:00,44.9,33.1,31.29,North,360,3.0,4.0,63,0.00,,,0.00,524.00,VWS V14.00,2013-10-15 17:51:00,
2013-10-15 11:52:00,45.0,32.8,31.29,North,360,2.0,5.0,62,0.00,,,0.00,524.00,VWS V14.00,2013-10-15 17:52:00,
2013-10-15 11:53:00,45.0,33.2,31.29,North,360,2.0,5.0,63,0.00,,,0.00,526.00,VWS V14.00,2013-10-15 17:53:00,
2013-10-15 11:54:00,45.0,32.8,31.29,North,360,4.0,5.0,62,0.00,,,0.00,527.00,VWS V14.00,2013-10-15 17:54:00,
2013-10-15 11:55:00,45.0,32.4,31.29,North,355,2.0,5.0,61,0.00,,,0.00,527.00,VWS V14.00,2013-10-15 17:55:00,
2013-10-15 11:56:00,45.1,32.9,31.29,North,355,5.0,5.0,62,0.00,,,0.00,529.00,VWS V14.00,2013-10-15 17:56:00,
2013-10-15 11:57:00,45.1,32.5,31.28,North,355,0.0,5.0,61,0.00,,,0.00,529.00,VWS V14.00,2013-10-15 17:57:00,
2013-10-15 11:58:00,45.1,32.1,31.29,North,355,0.0,5.0,60,0.00,,,0.00,529.00,VWS V14.00,2013-10-15 17:58:00,
2013-10-15 11:59:00,45.2,32.2,31.29,North,355,0.0,5.0,60,0.00,,,0.00,529.00,VWS V14.00,2013-10-15 17:59:00,
2013-10-15 12:00:00,45.2,32.6,31.29,North,355,0.0,5.0,61,0.00,,,0.00,531.00,VWS V14.00,2013-10-15 18:00:00,
2013-10-15 12:01:00,45.2,32.2,31.31,North,355,2.0,2.0,60,0.00,,,0.00,533.00,VWS V14.00,2013-10-15 18:01:00,
2013-10-15 12:02:00,45.3,32.7,31.31,North,355,3.0,3.0,61,0.00,,,0.00,533.00,VWS V14.00,2013-10-15 18:02:00,
2013-10-15 12:03:00,45.4,32.8,31.31,North,355,4.0,4.0,61,0.00,,,0.00,534.00,VWS V14.00,2013-10-15 18:03:00,
2013-10-15 12:04:00,45.4,32.8,31.31,North,355,0.0,4.0,61,0.00,,,0.00,534.00,VWS V14.00,2013-10-15 18:04:00,
2013-10-15 12:05:00,45.5,33.7,31.31,North,355,0.0,4.0,63,0.00,,,0.00,536.00,VWS V14.00,2013-10-15 18:05:00,
2013-10-15 12:06:00,45.6,32.9,31.30,North,355,0.0,4.0,61,0.00,,,0.00,538.00,VWS V14.00,2013-10-15 18:06:00,
2013-10-15 12:07:00,45.6,32.5,31.29,North,355,0.0,4.0,60,0.00,,,0.00,538.00,VWS V14.00,2013-10-15 18:07:00,
2013-10-15 12:08:00,45.7,32.6,31.30,North,355,0.0,4.0,60,0.00,,,0.00,540.00,VWS V14.00,2013-10-15 18:08:00,
2013-10-15 12:09:00,45.8,31.9,31.30,North,355,0.0,4.0,58,0.00,,,0.00,540.00,VWS V14.00,2013-10-15 18:09:00,
2013-10-15 12:10:00,45.8,32.3,31.30,North,355,0.0,4.0,59,0.00,,,0.00,541.00,VWS V14.00,2013-10-15 18:10:00,
2013-10-15 12:11:00,45.9,32.4,31.30,North,355,0.0,4.0,59,0.00,,,0.00,541.00,VWS V14.00,2013-10-15 18:11:00,
2013-10-15 12:12:00,45.9,32.4,31.30,North,355,1.0,4.0,59,0.00,,,0.00,543.00,VWS V14.00,2013-10-15 18:12:00,
2013-10-15 12:13:00,46.0,32.9,31.30,North,355,0.0,5.0,60,0.00,,,0.00,545.00,VWS V14.00,2013-10-15 18:13:00,
2013-10-15 12:14:00,46.1,32.2,31.29,North,355,2.0,5.0,58,0.00,,,0.00,545.00,VWS V14.00,2013-10-15 18:14:00,
2013-10-15 12:15:00,46.1,32.2,31.29,North,355,0.0,5.0,58,0.00,,,0.00,545.00,VWS V14.00,2013-10-15 18:15:00,
2013-10-15 12:16:00,46.1,32.6,31.29,North,355,0.0,0.0,59,0.00,,,0.00,545.00,VWS V14.00,2013-10-15 18:16:00,
2013-10-15 12:17:00,46.2,31.8,31.29,North,355,0.0,0.0,57,0.00,,,0.00,545.00,VWS V14.00,2013-10-15 18:17:00,
2013-10-15 12:18:00,46.2,32.2,31.29,North,355,0.0,0.0,58,0.00,,,0.00,547.00,VWS V14.00,2013-10-15 18:18:00,
2013-10-15 12:19:00,46.2,32.2,31.29,NNW,344,0.0,4.0,58,0.00,,,0.00,548.00,VWS V14.00,2013-10-15 18:19:00,
2013-10-15 12:20:00,46.3,31.9,31.29,NNW,342,1.0,4.0,57,0.00,,,0.00,548.00,VWS V14.00,2013-10-15 18:20:00,
2013-10-15 12:21:00,46.3,32.3,31.29,NW,317,3.0,4.0,58,0.00,,,0.00,548.00,VWS V14.00,2013-10-15 18:21:00,
2013-10-15 12:22:00,46.4,32.9,31.29,NW,315,0.0,4.0,59,0.00,,,0.00,550.00,VWS V14.00,2013-10-15 18:22:00,
2013-10-15 12:23:00,46.5,33.0,31.29,NW,315,0.0,4.0,59,0.00,,,0.00,550.00,VWS V14.00,2013-10-15 18:23:00,
2013-10-15 12:24:00,46.6,32.6,31.29,NW,315,0.0,4.0,58,0.00,,,0.00,552.00,VWS V14.00,2013-10-15 18:24:00,
2013-10-15 12:25:00,46.7,32.7,31.29,SSE,159,0.0,4.0,58,0.00,,,0.00,552.00,VWS V14.00,2013-10-15 18:25:00,
2013-10-15 12:26:00,46.8,32.8,31.29,NE,36,4.0,6.0,58,0.00,,,0.00,552.00,VWS V14.00,2013-10-15 18:26:00,
2013-10-15 12:27:00,46.9,33.8,31.28,NNE,13,4.0,6.0,60,0.00,,,0.00,554.00,VWS V14.00,2013-10-15 18:27:00,
2013-10-15 12:28:00,46.9,32.9,31.28,NNE,19,3.0,6.0,58,0.00,,,0.00,554.00,VWS V14.00,2013-10-15 18:28:00,
2013-10-15 12:29:00,47.0,32.6,31.28,North,351,4.0,6.0,57,0.00,,,0.00,555.00,VWS V14.00,2013-10-15 18:29:00,
2013-10-15 12:30:00,47.0,32.6,31.29,North,351,1.0,6.0,57,0.00,,,0.00,555.00,VWS V14.00,2013-10-15 18:30:00,
2013-10-15 12:31:00,47.0,33.0,31.29,North,351,0.0,2.0,58,0.00,,,0.00,555.00,VWS V14.00,2013-10-15 18:31:00,
2013-10-15 12:32:00,47.1,32.7,31.28,North,350,3.0,3.0,57,0.00,,,0.00,555.00,VWS V14.00,2013-10-15 18:32:00,
2013-10-15 12:33:00,47.2,33.2,31.28,North,351,0.0,4.0,58,0.00,,,0.00,555.00,VWS V14.00,2013-10-15 18:33:00,
2013-10-15 12:34:00,47.3,33.3,31.28,North,351,2.0,4.0,58,0.00,,,0.00,555.00,VWS V14.00,2013-10-15 18:34:00,
2013-10-15 12:35:00,47.4,33.0,31.28,NNW,340,2.0,4.0,57,0.00,,,0.00,555.00,VWS V14.00,2013-10-15 18:35:00,
2013-10-15 12:36:00,47.4,33.0,31.28,NNW,340,0.0,4.0,57,0.00,,,0.00,555.00,VWS V14.00,2013-10-15 18:36:00,
2013-10-15 12:37:00,47.5,33.0,31.28,NNW,340,0.0,4.0,57,0.00,,,0.00,557.00,VWS V14.00,2013-10-15 18:37:00,
2013-10-15 12:38:00,47.6,32.7,31.27,NNW,340,0.0,4.0,56,0.00,,,0.00,557.00,VWS V14.00,2013-10-15 18:38:00,
2013-10-15 12:39:00,47.7,33.7,31.27,NNW,340,0.0,4.0,58,0.00,,,0.00,559.00,VWS V14.00,2013-10-15 18:39:00,
2013-10-15 12:40:00,47.8,32.9,31.27,NNW,340,0.0,4.0,56,0.00,,,0.00,559.00,VWS V14.00,2013-10-15 18:40:00,
2013-10-15 12:41:00,47.8,33.3,31.27,NNW,340,3.0,5.0,57,0.00,,,0.00,561.00,VWS V14.00,2013-10-15 18:41:00,
2013-10-15 12:42:00,47.9,33.0,31.27,NNW,346,4.0,5.0,56,0.00,,,0.00,563.00,VWS V14.00,2013-10-15 18:42:00,
2013-10-15 12:43:00,47.9,32.5,31.27,NNW,346,0.0,5.0,55,0.00,,,0.00,561.00,VWS V14.00,2013-10-15 18:43:00,
2013-10-15 12:44:00,47.9,33.4,31.27,NNW,346,1.0,5.0,57,0.00,,,0.00,561.00,VWS V14.00,2013-10-15 18:44:00,
2013-10-15 12:45:00,47.9,33.4,31.26,NNW,346,0.0,5.0,57,0.00,,,0.00,559.00,VWS V14.00,2013-10-15 18:45:00,
2013-10-15 12:46:00,48.1,34.0,31.26,NNW,346,0.0,0.0,58,0.00,,,0.00,559.00,VWS V14.00,2013-10-15 18:46:00,
2013-10-15 12:47:00,48.2,33.7,31.26,NNW,345,4.0,6.0,57,0.00,,,0.00,561.00,VWS V14.00,2013-10-15 18:47:00,
2013-10-15 12:48:00,48.2,32.8,31.26,NNW,344,4.0,6.0,55,0.00,,,0.00,561.00,VWS V14.00,2013-10-15 18:48:00,
2013-10-15 12:49:00,48.2,32.8,31.26,NNW,342,4.0,6.0,55,0.00,,,0.00,561.00,VWS V14.00,2013-10-15 18:49:00,
2013-10-15 12:50:00,48.2,32.8,31.26,NNW,340,3.0,6.0,55,0.00,,,0.00,561.00,VWS V14.00,2013-10-15 18:50:00,
2013-10-15 12:51:00,48.2,32.8,31.26,NNW,340,3.0,6.0,55,0.00,,,0.00,563.00,VWS V14.00,2013-10-15 18:51:00,
2013-10-15 12:52:00,48.3,32.4,31.26,NNW,340,0.0,6.0,54,0.00,,,0.00,561.00,VWS V14.00,2013-10-15 18:52:00,
2013-10-15 12:53:00,48.3,32.9,31.26,NNW,340,2.0,6.0,55,0.00,,,0.00,563.00,VWS V14.00,2013-10-15 18:53:00,
2013-10-15 12:54:00,48.3,32.9,31.26,NNW,345,3.0,6.0,55,0.00,,,0.00,563.00,VWS V14.00,2013-10-15 18:54:00,
2013-10-15 12:55:00,48.3,32.9,31.26,NNW,345,4.0,6.0,55,0.00,,,0.00,563.00,VWS V14.00,2013-10-15 18:55:00,
2013-10-15 12:56:00,48.3,32.9,31.26,NNW,345,3.0,6.0,55,0.00,,,0.00,563.00,VWS V14.00,2013-10-15 18:56:00,
2013-10-15 12:57:00,48.3,32.4,31.26,NNW,346,3.0,6.0,54,0.00,,,0.00,563.00,VWS V14.00,2013-10-15 18:57:00,
2013-10-15 12:58:00,48.3,32.9,31.26,North,349,0.0,6.0,55,0.00,,,0.00,561.00,VWS V14.00,2013-10-15 18:58:00,
2013-10-15 12:59:00,48.3,33.3,31.26,North,349,0.0,6.0,56,0.00,,,0.00,561.00,VWS V14.00,2013-10-15 18:59:00,
2013-10-15 13:00:00,48.4,33.0,31.25,North,349,0.0,6.0,55,0.00,,,0.00,563.00,VWS V14.00,2013-10-15 19:00:00,
2013-10-15 13:01:00,48.4,32.5,31.25,North,349,0.0,0.0,54,0.00,,,0.00,563.00,VWS V14.00,2013-10-15 19:01:00,
2013-10-15 13:02:00,48.5,32.6,31.26,North,349,2.0,3.0,54,0.00,,,0.00,564.00,VWS V14.00,2013-10-15 19:02:00,
2013-10-15 13:03:00,48.5,32.6,31.25,North,349,0.0,3.0,54,0.00,,,0.00,563.00,VWS V14.00,2013-10-15 19:03:00,
2013-10-15 13:04:00,48.6,33.2,31.25,North,349,0.0,3.0,55,0.00,,,0.00,563.00,VWS V14.00,2013-10-15 19:04:00,
2013-10-15 13:05:00,48.6,32.3,31.24,North,349,0.0,3.0,53,0.00,,,0.00,563.00,VWS V14.00,2013-10-15 19:05:00,
2013-10-15 13:06:00,48.7,32.3,31.25,North,349,0.0,3.0,53,0.00,,,0.00,564.00,VWS V14.00,2013-10-15 19:06:00,
2013-10-15 13:07:00,48.8,33.4,31.25,North,349,0.0,3.0,55,0.00,,,0.00,563.00,VWS V14.00,2013-10-15 19:07:00,
2013-10-15 13:08:00,49.0,33.1,31.24,North,349,0.0,3.0,54,0.00,,,0.00,564.00,VWS V14.00,2013-10-15 19:08:00,
2013-10-15 13:09:00,49.1,33.7,31.24,North,349,0.0,4.0,55,0.00,,,0.00,564.00,VWS V14.00,2013-10-15 19:09:00,
2013-10-15 13:10:00,49.2,33.7,31.24,North,349,0.0,4.0,55,0.00,,,0.00,564.00,VWS V14.00,2013-10-15 19:10:00,
2013-10-15 13:11:00,49.3,33.8,31.24,North,349,3.0,4.0,55,0.00,,,0.00,564.00,VWS V14.00,2013-10-15 19:11:00,
2013-10-15 13:12:00,49.4,33.5,31.24,North,349,2.0,4.0,54,0.00,,,0.00,564.00,VWS V14.00,2013-10-15 19:12:00,
2013-10-15 13:13:00,49.5,33.1,31.24,North,349,3.0,4.0,53,0.00,,,0.00,563.00,VWS V14.00,2013-10-15 19:13:00,
2013-10-15 13:14:00,49.6,33.7,31.24,North,349,1.0,4.0,54,0.00,,,0.00,564.00,VWS V14.00,2013-10-15 19:14:00,
2013-10-15 13:15:00,49.6,33.7,31.24,North,349,0.0,4.0,54,0.00,,,0.00,564.00,VWS V14.00,2013-10-15 19:15:00,
2013-10-15 13:16:00,49.7,33.8,31.24,North,349,3.0,3.0,54,0.00,,,0.00,563.00,VWS V14.00,2013-10-15 19:16:00,
2013-10-15 13:17:00,49.9,33.9,31.23,North,349,2.0,4.0,54,0.00,,,0.00,563.00,VWS V14.00,2013-10-15 19:17:00,
2013-10-15 13:18:00,49.9,33.9,31.23,North,349,0.0,4.0,54,0.00,,,0.00,564.00,VWS V14.00,2013-10-15 19:18:00,
2013-10-15 13:19:00,50.0,33.6,31.23,North,350,3.0,6.0,53,0.00,,,0.00,564.00,VWS V14.00,2013-10-15 19:19:00,
2013-10-15 13:20:00,50.0,33.6,31.23,North,349,1.0,6.0,53,0.00,,,0.00,564.00,VWS V14.00,2013-10-15 19:20:00,
2013-10-15 13:21:00,50.1,34.1,31.23,North,349,1.0,6.0,54,0.00,,,0.00,564.00,VWS V14.00,2013-10-15 19:21:00,
2013-10-15 13:22:00,50.2,34.2,31.23,North,350,0.0,6.0,54,0.00,,,0.00,564.00,VWS V14.00,2013-10-15 19:22:00,
2013-10-15 13:23:00,50.2,34.7,31.23,North,350,3.0,6.0,55,0.00,,,0.00,563.00,VWS V14.00,2013-10-15 19:23:00,
2013-10-15 13:24:00,50.2,33.7,31.23,North,350,0.0,6.0,53,0.00,,,0.00,563.00,VWS V14.00,2013-10-15 19:24:00,
2013-10-15 13:25:00,50.3,33.4,31.23,North,350,3.0,6.0,52,0.00,,,0.00,563.00,VWS V14.00,2013-10-15 19:25:00,
2013-10-15 13:26:00,50.3,34.3,31.23,North,349,0.0,6.0,54,0.00,,,0.00,561.00,VWS V14.00,2013-10-15 19:26:00,
2013-10-15 13:27:00,50.4,33.9,31.23,North,350,2.0,6.0,53,0.00,,,0.00,563.00,VWS V14.00,2013-10-15 19:27:00,
2013-10-15 13:28:00,50.5,34.5,31.23,North,349,0.0,6.0,54,0.00,,,0.00,561.00,VWS V14.00,2013-10-15 19:28:00,
2013-10-15 13:29:00,50.5,35.0,31.22,North,350,4.0,6.0,55,0.00,,,0.00,559.00,VWS V14.00,2013-10-15 19:29:00,
2013-10-15 13:30:00,50.6,33.6,31.22,North,350,2.0,6.0,52,0.00,,,0.00,561.00,VWS V14.00,2013-10-15 19:30:00,
2013-10-15 13:31:00,50.6,33.2,31.22,North,350,0.0,2.0,51,0.00,,,0.00,561.00,VWS V14.00,2013-10-15 19:31:00,
2013-10-15 13:32:00,50.6,33.2,31.22,North,349,0.0,2.0,51,0.00,,,0.00,559.00,VWS V14.00,2013-10-15 19:32:00,
2013-10-15 13:33:00,50.7,32.8,31.22,North,349,0.0,2.0,50,0.00,,,0.00,559.00,VWS V14.00,2013-10-15 19:33:00,
2013-10-15 13:34:00,50.7,32.2,31.22,North,349,0.0,2.0,49,0.00,,,0.00,561.00,VWS V14.00,2013-10-15 19:34:00,
2013-10-15 13:35:00,50.7,32.8,31.22,North,349,0.0,2.0,50,0.00,,,0.00,559.00,VWS V14.00,2013-10-15 19:35:00,
2013-10-15 13:36:00,50.7,32.2,31.22,North,350,0.0,5.0,49,0.00,,,0.00,559.00,VWS V14.00,2013-10-15 19:36:00,
2013-10-15 13:37:00,50.7,32.2,31.22,North,350,0.0,5.0,49,0.00,,,0.00,559.00,VWS V14.00,2013-10-15 19:37:00,
2013-10-15 13:38:00,50.8,32.8,31.21,North,350,0.0,5.0,50,0.00,,,0.00,559.00,VWS V14.00,2013-10-15 19:38:00,
2013-10-15 13:39:00,50.8,32.8,31.21,North,349,0.0,5.0,50,0.00,,,0.00,559.00,VWS V14.00,2013-10-15 19:39:00,
2013-10-15 13:40:00,50.8,33.3,31.21,NNW,335,2.0,5.0,51,0.00,,,0.00,557.00,VWS V14.00,2013-10-15 19:40:00,
2013-10-15 13:41:00,50.9,32.4,31.21,NNW,335,0.0,5.0,49,0.00,,,0.00,555.00,VWS V14.00,2013-10-15 19:41:00,
2013-10-15 13:42:00,50.9,33.4,31.21,NNW,333,2.0,5.0,51,0.00,,,0.00,557.00,VWS V14.00,2013-10-15 19:42:00,
2013-10-15 13:43:00,51.0,33.0,31.21,NNW,336,2.0,5.0,50,0.00,,,0.00,555.00,VWS V14.00,2013-10-15 19:43:00,
2013-10-15 13:44:00,51.1,32.6,31.21,NNW,336,0.0,5.0,49,0.00,,,0.00,555.00,VWS V14.00,2013-10-15 19:44:00,
2013-10-15 13:45:00,51.1,32.6,31.21,NNW,336,0.0,5.0,49,0.00,,,0.00,555.00,VWS V14.00,2013-10-15 19:45:00,
2013-10-15 13:46:00,51.3,33.8,31.21,NNW,336,0.0,3.0,51,0.00,,,0.00,554.00,VWS V14.00,2013-10-15 19:46:00,
2013-10-15 13:47:00,51.4,33.9,31.21,NNW,336,0.0,3.0,51,0.00,,,0.00,552.00,VWS V14.00,2013-10-15 19:47:00,
2013-10-15 13:48:00,51.5,33.0,31.21,NNW,336,0.0,3.0,49,0.00,,,0.00,552.00,VWS V14.00,2013-10-15 19:48:00,
2013-10-15 13:49:00,51.5,33.0,31.21,NNW,336,0.0,3.0,49,0.00,,,0.00,552.00,VWS V14.00,2013-10-15 19:49:00,
2013-10-15 13:50:00,51.5,33.0,31.20,NNW,336,0.0,3.0,49,0.00,,,0.00,552.00,VWS V14.00,2013-10-15 19:50:00,
2013-10-15 13:51:00,51.5,33.5,31.20,NNW,336,0.0,3.0,50,0.00,,,0.00,548.00,VWS V14.00,2013-10-15 19:51:00,
2013-10-15 13:52:00,51.6,33.6,31.20,NNW,336,0.0,3.0,50,0.00,,,0.00,550.00,VWS V14.00,2013-10-15 19:52:00,
2013-10-15 13:53:00,51.7,32.7,31.20,NNW,336,0.0,3.0,48,0.00,,,0.00,550.00,VWS V14.00,2013-10-15 19:53:00,
2013-10-15 13:54:00,51.8,34.3,31.21,NNW,338,5.0,6.0,51,0.00,,,0.00,548.00,VWS V14.00,2013-10-15 19:54:00,
2013-10-15 13:55:00,51.9,32.3,31.21,NNW,337,1.0,6.0,47,0.00,,,0.00,550.00,VWS V14.00,2013-10-15 19:55:00,
2013-10-15 13:56:00,51.9,32.8,31.21,NNW,341,0.0,6.0,48,0.00,,,0.00,548.00,VWS V14.00,2013-10-15 19:56:00,
2013-10-15 13:57:00,52.0,33.5,31.20,NNW,342,2.0,6.0,49,0.00,,,0.00,548.00,VWS V14.00,2013-10-15 19:57:00,
2013-10-15 13:58:00,52.1,33.5,31.20,NNW,340,4.0,6.0,49,0.00,,,0.00,547.00,VWS V14.00,2013-10-15 19:58:00,
2013-10-15 13:59:00,52.1,33.5,31.20,NNW,338,3.0,6.0,49,0.00,,,0.00,545.00,VWS V14.00,2013-10-15 19:59:00,
2013-10-15 14:00:00,52.1,33.5,31.20,NNW,336,0.0,6.0,49,0.00,,,0.00,545.00,VWS V14.00,2013-10-15 20:00:00,
2013-10-15 14:01:00,52.3,33.7,31.21,NNW,336,1.0,4.0,49,0.00,,,0.00,543.00,VWS V14.00,2013-10-15 20:01:00,
2013-10-15 14:02:00,52.3,32.7,31.21,NNW,336,0.0,4.0,47,0.00,,,0.00,543.00,VWS V14.00,2013-10-15 20:02:00,
2013-10-15 14:03:00,52.3,32.2,31.21,NNW,336,3.0,4.0,46,0.00,,,0.00,543.00,VWS V14.00,2013-10-15 20:03:00,
2013-10-15 14:04:00,52.4,32.8,31.21,NNW,336,0.0,4.0,47,0.00,,,0.00,541.00,VWS V14.00,2013-10-15 20:04:00,
2013-10-15 14:05:00,52.4,32.2,31.21,NNW,336,0.0,4.0,46,0.00,,,0.00,540.00,VWS V14.00,2013-10-15 20:05:00,
2013-10-15 14:06:00,52.6,33.5,31.21,NNW,336,0.0,4.0,48,0.00,,,0.00,540.00,VWS V14.00,2013-10-15 20:06:00,
2013-10-15 14:07:00,52.6,31.9,31.21,NNW,336,0.0,4.0,45,0.00,,,0.00,540.00,VWS V14.00,2013-10-15 20:07:00,
2013-10-15 14:08:00,52.7,32.5,31.21,NNW,336,0.0,4.0,46,0.00,,,0.00,538.00,VWS V14.00,2013-10-15 20:08:00,
2013-10-15 14:09:00,52.7,32.5,31.21,NNW,336,3.0,4.0,46,0.00,,,0.00,538.00,VWS V14.00,2013-10-15 20:09:00,
2013-10-15 14:10:00,52.7,32.5,31.21,NNW,336,0.0,4.0,46,0.00,,,0.00,536.00,VWS V14.00,2013-10-15 20:10:00,
2013-10-15 14:11:00,52.7,32.5,31.21,NNW,337,3.0,4.0,46,0.00,,,0.00,536.00,VWS V14.00,2013-10-15 20:11:00,
2013-10-15 14:12:00,52.7,32.0,31.21,NNW,337,2.0,4.0,45,0.00,,,0.00,534.00,VWS V14.00,2013-10-15 20:12:00,
2013-10-15 14:13:00,52.7,31.4,31.21,NNW,337,0.0,4.0,44,0.00,,,0.00,534.00,VWS V14.00,2013-10-15 20:13:00,
2013-10-15 14:14:00,52.7,31.4,31.21,NNW,337,0.0,4.0,44,0.00,,,0.00,533.00,VWS V14.00,2013-10-15 20:14:00,
2013-10-15 14:15:00,52.7,31.4,31.21,NNW,337,2.0,4.0,44,0.00,,,0.00,531.00,VWS V14.00,2013-10-15 20:15:00,
2013-10-15 14:16:00,52.8,32.6,31.21,NNW,336,1.0,1.0,46,0.00,,,0.00,529.00,VWS V14.00,2013-10-15 20:16:00,
2013-10-15 14:17:00,52.8,32.1,31.21,NNW,336,0.0,6.0,45,0.00,,,0.00,527.00,VWS V14.00,2013-10-15 20:17:00,
2013-10-15 14:18:00,52.8,32.6,31.21,NNW,336,3.0,6.0,46,0.00,,,0.00,527.00,VWS V14.00,2013-10-15 20:18:00,
2013-10-15 14:19:00,52.8,32.1,31.21,NNW,336,0.0,6.0,45,0.00,,,0.00,526.00,VWS V14.00,2013-10-15 20:19:00,
2013-10-15 14:20:00,52.8,32.1,31.20,NNW,336,0.0,6.0,45,0.00,,,0.00,526.00,VWS V14.00,2013-10-15 20:20:00,
2013-10-15 14:21:00,52.8,32.1,31.20,NNW,336,3.0,6.0,45,0.00,,,0.00,524.00,VWS V14.00,2013-10-15 20:21:00,
2013-10-15 14:22:00,52.8,32.1,31.20,NNW,336,0.0,6.0,45,0.00,,,0.00,522.00,VWS V14.00,2013-10-15 20:22:00,
2013-10-15 14:23:00,52.8,32.1,31.20,NNW,336,0.0,6.0,45,0.00,,,0.00,522.00,VWS V14.00,2013-10-15 20:23:00,
2013-10-15 14:24:00,52.8,32.1,31.20,NNW,336,0.0,6.0,45,0.00,,,0.00,522.00,VWS V14.00,2013-10-15 20:24:00,
2013-10-15 14:25:00,52.8,32.1,31.20,NNW,336,1.0,6.0,45,0.00,,,0.00,520.00,VWS V14.00,2013-10-15 20:25:00,
2013-10-15 14:26:00,52.8,32.6,31.20,NNW,336,4.0,6.0,46,0.00,,,0.00,519.00,VWS V14.00,2013-10-15 20:26:00,
2013-10-15 14:27:00,52.8,32.1,31.20,NNW,336,0.0,6.0,45,0.00,,,0.00,519.00,VWS V14.00,2013-10-15 20:27:00,
2013-10-15 14:28:00,52.8,32.1,31.20,NNW,336,0.0,6.0,45,0.00,,,0.00,517.00,VWS V14.00,2013-10-15 20:28:00,
2013-10-15 14:29:00,52.9,32.2,31.20,NNW,336,0.0,6.0,45,0.00,,,0.00,517.00,VWS V14.00,2013-10-15 20:29:00,
2013-10-15 14:30:00,52.9,32.2,31.20,NNW,336,1.0,6.0,45,0.00,,,0.00,513.00,VWS V14.00,2013-10-15 20:30:00,
2013-10-15 14:31:00,53.0,33.3,31.20,NNW,337,5.0,5.0,47,0.00,,,0.00,513.00,VWS V14.00,2013-10-15 20:31:00,
2013-10-15 14:32:00,53.0,31.7,31.19,NNW,338,3.0,5.0,44,0.00,,,0.00,513.00,VWS V14.00,2013-10-15 20:32:00,
2013-10-15 14:33:00,53.0,31.1,31.20,NNW,338,0.0,5.0,43,0.00,,,0.00,512.00,VWS V14.00,2013-10-15 20:33:00,
2013-10-15 14:34:00,53.0,31.1,31.20,NNW,338,0.0,5.0,43,0.00,,,0.00,510.00,VWS V14.00,2013-10-15 20:34:00,
2013-10-15 14:35:00,53.0,30.5,31.20,NNW,337,0.0,5.0,42,0.00,,,0.00,508.00,VWS V14.00,2013-10-15 20:35:00,
2013-10-15 14:36:00,53.0,31.7,31.20,NNW,337,2.0,6.0,44,0.00,,,0.00,508.00,VWS V14.00,2013-10-15 20:36:00,
2013-10-15 14:37:00,53.1,32.9,31.20,NNW,337,0.0,6.0,46,0.00,,,0.00,506.00,VWS V14.00,2013-10-15 20:37:00,
2013-10-15 14:38:00,53.1,31.8,31.19,NNW,338,4.0,6.0,44,0.00,,,0.00,504.00,VWS V14.00,2013-10-15 20:38:00,
2013-10-15 14:39:00,53.2,31.9,31.19,NNW,338,0.0,6.0,44,0.00,,,0.00,503.00,VWS V14.00,2013-10-15 20:39:00,
2013-10-15 14:40:00,53.2,32.4,31.20,NNW,338,0.0,6.0,45,0.00,,,0.00,503.00,VWS V14.00,2013-10-15 20:40:00,
2013-10-15 14:41:00,53.3,32.5,31.19,NNW,338,0.0,6.0,45,0.00,,,0.00,501.00,VWS V14.00,2013-10-15 20:41:00,
2013-10-15 14:42:00,53.3,32.0,31.19,NNW,338,0.0,6.0,44,0.00,,,0.00,497.00,VWS V14.00,2013-10-15 20:42:00,
2013-10-15 14:43:00,53.4,31.5,31.19,NNW,338,0.0,6.0,43,0.00,,,0.00,499.00,VWS V14.00,2013-10-15 20:43:00,
2013-10-15 14:44:00,53.4,31.5,31.19,NNW,338,0.0,6.0,43,0.00,,,0.00,497.00,VWS V14.00,2013-10-15 20:44:00,
2013-10-15 14:45:00,53.5,32.1,31.19,NNW,338,0.0,6.0,44,0.00,,,0.00,496.00,VWS V14.00,2013-10-15 20:45:00,
2013-10-15 14:46:00,53.5,31.6,31.18,NNW,338,0.0,0.0,43,0.00,,,0.00,494.00,VWS V14.00,2013-10-15 20:46:00,
2013-10-15 14:47:00,53.6,31.1,31.18,NNW,338,0.0,0.0,42,0.00,,,0.00,492.00,VWS V14.00,2013-10-15 20:47:00,
2013-10-15 14:48:00,53.6,31.7,31.18,NNW,338,0.0,0.0,43,0.00,,,0.00,492.00,VWS V14.00,2013-10-15 20:48:00,
2013-10-15 14:49:00,53.7,32.3,31.18,NNW,338,0.0,0.0,44,0.00,,,0.00,492.00,VWS V14.00,2013-10-15 20:49:00,
2013-10-15 14:50:00,53.8,31.9,31.18,NNW,338,0.0,0.0,43,0.00,,,0.00,489.00,VWS V14.00,2013-10-15 20:50:00,
2013-10-15 14:51:00,53.8,31.9,31.18,NNW,338,0.0,1.0,43,0.00,,,0.00,487.00,VWS V14.00,2013-10-15 20:51:00,
2013-10-15 14:52:00,53.9,33.1,31.18,NNW,331,1.0,4.0,45,0.00,,,0.00,485.00,VWS V14.00,2013-10-15 20:52:00,
2013-10-15 14:53:00,54.1,34.3,31.17,North,11,1.0,6.0,47,0.00,,,0.00,485.00,VWS V14.00,2013-10-15 20:53:00,
2013-10-15 14:54:00,54.1,32.7,31.17,North,5,0.0,6.0,44,0.00,,,0.00,483.00,VWS V14.00,2013-10-15 20:54:00,
2013-10-15 14:55:00,54.2,32.8,31.17,North,360,2.0,6.0,44,0.00,,,0.00,482.00,VWS V14.00,2013-10-15 20:55:00,
2013-10-15 14:56:00,54.3,32.9,31.17,North,5,0.0,6.0,44,0.00,,,0.00,482.00,VWS V14.00,2013-10-15 20:56:00,
2013-10-15 14:57:00,54.4,33.0,31.17,North,360,3.0,6.0,44,0.00,,,0.00,480.00,VWS V14.00,2013-10-15 20:57:00,
2013-10-15 14:58:00,54.4,31.8,31.17,North,355,0.0,6.0,42,0.00,,,0.00,478.00,VWS V14.00,2013-10-15 20:58:00,
2013-10-15 14:59:00,54.4,32.4,31.17,North,355,0.0,6.0,43,0.00,,,0.00,476.00,VWS V14.00,2013-10-15 20:59:00,
2013-10-15 15:00:00,54.5,33.0,31.17,North,355,0.0,6.0,44,0.00,,,0.00,475.00,VWS V14.00,2013-10-15 21:00:00,
2013-10-15 15:01:00,54.5,32.5,31.17,North,355,0.0,0.0,43,0.00,,,0.00,475.00,VWS V14.00,2013-10-15 21:01:00,
2013-10-15 15:02:00,54.5,31.9,31.17,North,10,1.0,2.0,42,0.00,,,0.00,473.00,VWS V14.00,2013-10-15 21:02:00,
2013-10-15 15:03:00,54.5,31.3,31.17,North,10,0.0,6.0,41,0.00,,,0.00,471.00,VWS V14.00,2013-10-15 21:03:00,
2013-10-15 15:04:00,54.5,31.9,31.17,North,10,0.0,6.0,42,0.00,,,0.00,468.00,VWS V14.00,2013-10-15 21:04:00,
2013-10-15 15:05:00,54.5,32.5,31.17,NW,324,4.0,6.0,43,0.00,,,0.00,468.00,VWS V14.00,2013-10-15 21:05:00,
2013-10-15 15:06:00,54.4,31.2,31.17,NNW,332,1.0,6.0,41,0.00,,,0.00,468.00,VWS V14.00,2013-10-15 21:06:00,
2013-10-15 15:07:00,54.4,31.8,31.17,NNW,332,1.0,6.0,42,0.00,,,0.00,464.00,VWS V14.00,2013-10-15 21:07:00,
2013-10-15 15:08:00,54.4,31.8,31.17,NNW,331,1.0,6.0,42,0.00,,,0.00,462.00,VWS V14.00,2013-10-15 21:08:00,
2013-10-15 15:09:00,54.4,31.8,31.17,NNW,332,0.0,6.0,42,0.00,,,0.00,461.00,VWS V14.00,2013-10-15 21:09:00,
2013-10-15 15:10:00,54.4,31.2,31.17,NNW,332,0.0,6.0,41,0.00,,,0.00,459.00,VWS V14.00,2013-10-15 21:10:00,
2013-10-15 15:11:00,54.4,30.6,31.17,NNW,331,0.0,6.0,40,0.00,,,0.00,459.00,VWS V14.00,2013-10-15 21:11:00,
2013-10-15 15:12:00,54.5,31.9,31.17,NNW,332,0.0,6.0,42,0.00,,,0.00,457.00,VWS V14.00,2013-10-15 21:12:00,
2013-10-15 15:13:00,54.5,31.9,31.16,NNW,333,0.0,6.0,42,0.00,,,0.00,455.00,VWS V14.00,2013-10-15 21:13:00,
2013-10-15 15:14:00,54.5,31.3,31.16,NNW,332,0.0,6.0,41,0.00,,,0.00,452.00,VWS V14.00,2013-10-15 21:14:00,
2013-10-15 15:15:00,54.4,30.6,31.16,NNW,331,1.0,6.0,40,0.00,,,0.00,450.00,VWS V14.00,2013-10-15 21:15:00,
2013-10-15 15:16:00,54.5,31.9,31.16,NNW,331,0.0,1.0,42,0.00,,,0.00,450.00,VWS V14.00,2013-10-15 21:16:00,
2013-10-15 15:17:00,54.5,31.3,31.16,NNW,329,0.0,1.0,41,0.00,,,0.00,448.00,VWS V14.00,2013-10-15 21:17:00,
2013-10-15 15:18:00,54.5,31.3,31.16,NNW,329,0.0,4.0,41,0.00,,,0.00,446.00,VWS V14.00,2013-10-15 21:18:00,
2013-10-15 15:19:00,54.6,31.4,31.16,NNW,329,0.0,4.0,41,0.00,,,0.00,445.00,VWS V14.00,2013-10-15 21:19:00,
2013-10-15 15:20:00,54.6,30.8,31.16,NNW,329,0.0,4.0,40,0.00,,,0.00,443.00,VWS V14.00,2013-10-15 21:20:00,
2013-10-15 15:21:00,54.6,30.2,31.16,NNW,329,0.0,4.0,39,0.00,,,0.00,441.00,VWS V14.00,2013-10-15 21:21:00,
2013-10-15 15:22:00,54.7,30.9,31.16,NNW,329,0.0,4.0,40,0.00,,,0.00,438.00,VWS V14.00,2013-10-15 21:22:00,
2013-10-15 15:23:00,54.7,30.9,31.16,NNW,329,0.0,4.0,40,0.00,,,0.00,438.00,VWS V14.00,2013-10-15 21:23:00,
2013-10-15 15:24:00,54.7,30.9,31.16,NNW,329,0.0,4.0,40,0.00,,,0.00,436.00,VWS V14.00,2013-10-15 21:24:00,
2013-10-15 15:25:00,54.8,31.6,31.16,NNW,328,4.0,4.0,41,0.00,,,0.00,434.00,VWS V14.00,2013-10-15 21:25:00,
2013-10-15 15:26:00,54.8,31.0,31.16,NNW,331,1.0,5.0,40,0.00,,,0.00,432.00,VWS V14.00,2013-10-15 21:26:00,
2013-10-15 15:27:00,54.8,31.6,31.16,NNW,329,5.0,5.0,41,0.00,,,0.00,431.00,VWS V14.00,2013-10-15 21:27:00,
2013-10-15 15:28:00,54.8,31.0,31.16,NNW,327,1.0,5.0,40,0.00,,,0.00,429.00,VWS V14.00,2013-10-15 21:28:00,
2013-10-15 15:29:00,54.8,31.0,31.16,NNW,327,3.0,5.0,40,0.00,,,0.00,427.00,VWS V14.00,2013-10-15 21:29:00,
2013-10-15 15:30:00,54.8,31.0,31.16,NNW,327,3.0,5.0,40,0.00,,,0.00,425.00,VWS V14.00,2013-10-15 21:30:00,
2013-10-15 15:31:00,54.9,32.3,31.16,NNW,327,0.0,2.0,42,0.00,,,0.00,422.00,VWS V14.00,2013-10-15 21:31:00,
2013-10-15 15:32:00,54.9,31.7,31.15,NNW,327,0.0,2.0,41,0.00,,,0.00,420.00,VWS V14.00,2013-10-15 21:32:00,
2013-10-15 15:33:00,55.0,31.8,31.16,NNW,327,0.0,2.0,41,0.00,,,0.00,418.00,VWS V14.00,2013-10-15 21:33:00,
2013-10-15 15:34:00,55.0,31.1,31.16,NNW,327,0.0,2.0,40,0.00,,,0.00,417.00,VWS V14.00,2013-10-15 21:34:00,
2013-10-15 15:35:00,55.0,30.5,31.16,NNW,327,0.0,2.0,39,0.00,,,0.00,415.00,VWS V14.00,2013-10-15 21:35:00,
2013-10-15 15:36:00,55.1,31.2,31.15,NNW,327,0.0,2.0,40,0.00,,,0.00,411.00,VWS V14.00,2013-10-15 21:36:00,
2013-10-15 15:37:00,55.1,31.8,31.16,NNW,327,0.0,2.0,41,0.00,,,0.00,410.00,VWS V14.00,2013-10-15 21:37:00,
2013-10-15 15:38:00,55.2,32.5,31.15,NW,326,2.0,5.0,42,0.00,,,0.00,408.00,VWS V14.00,2013-10-15 21:38:00,
2013-10-15 15:39:00,55.2,31.3,31.15,NNW,327,0.0,5.0,40,0.00,,,0.00,406.00,VWS V14.00,2013-10-15 21:39:00,
2013-10-15 15:40:00,55.2,30.7,31.15,NNW,329,3.0,5.0,39,0.00,,,0.00,404.00,VWS V14.00,2013-10-15 21:40:00,
2013-10-15 15:41:00,55.2,31.3,31.15,NNW,328,5.0,7.0,40,0.00,,,0.00,403.00,VWS V14.00,2013-10-15 21:41:00,
2013-10-15 15:42:00,55.2,31.3,31.15,NNW,329,0.0,7.0,40,0.00,,,0.00,401.00,VWS V14.00,2013-10-15 21:42:00,
2013-10-15 15:43:00,55.1,31.2,31.15,NNW,329,0.0,7.0,40,0.00,,,0.00,397.00,VWS V14.00,2013-10-15 21:43:00,
2013-10-15 15:44:00,55.2,31.3,31.15,NNW,327,4.0,7.0,40,0.00,,,0.00,396.00,VWS V14.00,2013-10-15 21:44:00,
2013-10-15 15:45:00,55.1,31.2,31.15,NW,326,0.0,7.0,40,0.00,,,0.00,394.00,VWS V14.00,2013-10-15 21:45:00,
2013-10-15 15:46:00,55.1,30.6,31.15,NW,326,0.0,0.0,39,0.00,,,0.00,392.00,VWS V14.00,2013-10-15 21:46:00,
2013-10-15 15:47:00,55.1,31.8,31.15,NW,326,3.0,3.0,41,0.00,,,0.00,390.00,VWS V14.00,2013-10-15 21:47:00,
2013-10-15 15:48:00,55.1,30.6,31.15,NNW,328,0.0,5.0,39,0.00,,,0.00,388.00,VWS V14.00,2013-10-15 21:48:00,
2013-10-15 15:49:00,55.1,31.2,31.15,NNW,328,0.0,5.0,40,0.00,,,0.00,385.00,VWS V14.00,2013-10-15 21:49:00,
2013-10-15 15:50:00,55.1,31.8,31.15,NNW,327,0.0,5.0,41,0.00,,,0.00,383.00,VWS V14.00,2013-10-15 21:50:00,
2013-10-15 15:51:00,55.2,31.3,31.15,NNW,333,5.0,5.0,40,0.00,,,0.00,380.00,VWS V14.00,2013-10-15 21:51:00,
2013-10-15 15:52:00,55.1,31.2,31.15,NNW,335,0.0,5.0,40,0.00,,,0.00,380.00,VWS V14.00,2013-10-15 21:52:00,
2013-10-15 15:53:00,55.1,33.0,31.15,NNW,338,0.0,5.0,43,0.00,,,0.00,380.00,VWS V14.00,2013-10-15 21:53:00,
2013-10-15 15:54:00,55.2,32.5,31.14,NNW,338,0.0,5.0,42,0.00,,,0.00,376.00,VWS V14.00,2013-10-15 21:54:00,
2013-10-15 15:55:00,55.2,31.3,31.15,NNW,338,0.0,5.0,40,0.00,,,0.00,371.00,VWS V14.00,2013-10-15 21:55:00,
2013-10-15 15:56:00,55.2,30.7,31.15,NNW,338,0.0,5.0,39,0.00,,,0.00,369.00,VWS V14.00,2013-10-15 21:56:00,
2013-10-15 15:57:00,55.2,31.3,31.15,NNW,338,0.0,5.0,40,0.00,,,0.00,367.00,VWS V14.00,2013-10-15 21:57:00,
2013-10-15 15:58:00,55.3,31.4,31.15,NNW,337,0.0,5.0,40,0.00,,,0.00,366.00,VWS V14.00,2013-10-15 21:58:00,
2013-10-15 15:59:00,55.3,30.8,31.15,NNW,337,0.0,5.0,39,0.00,,,0.00,364.00,VWS V14.00,2013-10-15 21:59:00,
2013-10-15 16:00:00,55.3,30.8,31.15,NNW,338,1.0,5.0,39,0.00,,,0.00,360.00,VWS V14.00,2013-10-15 22:00:00,
2013-10-15 16:01:00,55.3,31.4,31.16,NNW,337,2.0,5.0,40,0.00,,,0.00,359.00,VWS V14.00,2013-10-15 22:01:00,
2013-10-15 16:02:00,55.2,31.3,31.16,NNW,338,0.0,5.0,40,0.00,,,0.00,357.00,VWS V14.00,2013-10-15 22:02:00,
2013-10-15 16:03:00,55.2,31.3,31.16,NNW,337,0.0,5.0,40,0.00,,,0.00,355.00,VWS V14.00,2013-10-15 22:03:00,
2013-10-15 16:04:00,55.3,30.8,31.16,NNW,338,4.0,5.0,39,0.00,,,0.00,353.00,VWS V14.00,2013-10-15 22:04:00,
2013-10-15 16:05:00,55.2,30.7,31.16,NNW,337,0.0,5.0,39,0.00,,,0.00,352.00,VWS V14.00,2013-10-15 22:05:00,
2013-10-15 16:06:00,55.2,30.7,31.16,NNW,337,2.0,5.0,39,0.00,,,0.00,348.00,VWS V14.00,2013-10-15 22:06:00,
2013-10-15 16:07:00,55.2,30.7,31.15,NNW,338,2.0,5.0,39,0.00,,,0.00,346.00,VWS V14.00,2013-10-15 22:07:00,
2013-10-15 16:08:00,55.2,30.7,31.16,NNW,338,0.0,5.0,39,0.00,,,0.00,345.00,VWS V14.00,2013-10-15 22:08:00,
2013-10-15 16:09:00,55.2,31.3,31.15,NNW,338,0.0,5.0,40,0.00,,,0.00,341.00,VWS V14.00,2013-10-15 22:09:00,
2013-10-15 16:10:00,55.2,30.7,31.15,NNW,338,0.0,5.0,39,0.00,,,0.00,339.00,VWS V14.00,2013-10-15 22:10:00,
2013-10-15 16:11:00,55.2,31.3,31.15,NNW,337,0.0,5.0,40,0.00,,,0.00,338.00,VWS V14.00,2013-10-15 22:11:00,
2013-10-15 16:12:00,55.3,30.8,31.16,NNW,338,0.0,5.0,39,0.00,,,0.00,332.00,VWS V14.00,2013-10-15 22:12:00,
2013-10-15 16:13:00,55.3,30.8,31.15,NNW,338,0.0,5.0,39,0.00,,,0.00,332.00,VWS V14.00,2013-10-15 22:13:00,
2013-10-15 16:14:00,55.3,30.8,31.15,NNW,338,1.0,5.0,39,0.00,,,0.00,330.00,VWS V14.00,2013-10-15 22:14:00,
2013-10-15 16:15:00,55.3,31.4,31.15,NNW,338,0.0,5.0,40,0.00,,,0.00,327.00,VWS V14.00,2013-10-15 22:15:00,
2013-10-15 16:16:00,55.3,30.8,31.16,NNW,338,0.0,0.0,39,0.00,,,0.00,325.00,VWS V14.00,2013-10-15 22:16:00,
2013-10-15 16:17:00,55.4,31.5,31.15,NNW,337,0.0,0.0,40,0.00,,,0.00,323.00,VWS V14.00,2013-10-15 22:17:00,
2013-10-15 16:18:00,55.4,30.9,31.15,NNW,338,0.0,0.0,39,0.00,,,0.00,318.00,VWS V14.00,2013-10-15 22:18:00,
2013-10-15 16:19:00,55.4,31.5,31.15,NNW,338,0.0,0.0,40,0.00,,,0.00,316.00,VWS V14.00,2013-10-15 22:19:00,
2013-10-15 16:20:00,55.4,30.9,31.15,NNW,338,0.0,0.0,39,0.00,,,0.00,315.00,VWS V14.00,2013-10-15 22:20:00,
2013-10-15 16:21:00,55.4,31.5,31.15,NNW,338,0.0,0.0,40,0.00,,,0.00,313.00,VWS V14.00,2013-10-15 22:21:00,
2013-10-15 16:22:00,55.5,31.0,31.15,NNW,338,0.0,0.0,39,0.00,,,0.00,311.00,VWS V14.00,2013-10-15 22:22:00,
2013-10-15 16:23:00,55.5,32.2,31.14,NNW,338,0.0,0.0,41,0.00,,,0.00,309.00,VWS V14.00,2013-10-15 22:23:00,
2013-10-15 16:24:00,55.5,32.2,31.14,NNW,338,0.0,0.0,41,0.00,,,0.00,306.00,VWS V14.00,2013-10-15 22:24:00,
2013-10-15 16:25:00,55.6,32.3,31.13,NNW,338,2.0,4.0,41,0.00,,,0.00,304.00,VWS V14.00,2013-10-15 22:25:00,
2013-10-15 16:26:00,55.6,31.7,31.14,NNW,338,3.0,5.0,40,0.00,,,0.00,302.00,VWS V14.00,2013-10-15 22:26:00,
2013-10-15 16:27:00,55.6,31.1,31.13,NNW,338,2.0,5.0,39,0.00,,,0.00,299.00,VWS V14.00,2013-10-15 22:27:00,
2013-10-15 16:28:00,55.6,31.1,31.13,NNW,338,3.0,5.0,39,0.00,,,0.00,297.00,VWS V14.00,2013-10-15 22:28:00,
2013-10-15 16:29:00,55.5,31.6,31.13,NNW,338,3.0,5.0,40,0.00,,,0.00,295.00,VWS V14.00,2013-10-15 22:29:00,
2013-10-15 16:30:00,55.5,31.0,31.13,NNW,338,0.0,5.0,39,0.00,,,0.00,292.00,VWS V14.00,2013-10-15 22:30:00,
2013-10-15 16:31:00,55.5,31.0,31.13,NNW,338,1.0,1.0,39,0.00,,,0.00,288.00,VWS V14.00,2013-10-15 22:31:00,
2013-10-15 16:32:00,55.5,32.2,31.13,NNW,338,3.0,3.0,41,0.00,,,0.00,287.00,VWS V14.00,2013-10-15 22:32:00,
2013-10-15 16:33:00,55.5,31.6,31.13,NNW,338,0.0,3.0,40,0.00,,,0.00,285.00,VWS V14.00,2013-10-15 22:33:00,
2013-10-15 16:34:00,55.5,30.3,31.13,NNW,338,0.0,3.0,38,0.00,,,0.00,281.00,VWS V14.00,2013-10-15 22:34:00,
2013-10-15 16:35:00,55.5,31.0,31.13,NNW,338,0.0,3.0,39,0.00,,,0.00,279.00,VWS V14.00,2013-10-15 22:35:00,
2013-10-15 16:36:00,55.5,31.6,31.13,NNW,338,0.0,3.0,40,0.00,,,0.00,274.00,VWS V14.00,2013-10-15 22:36:00,
2013-10-15 16:37:00,55.5,31.0,31.13,NNW,338,0.0,3.0,39,0.00,,,0.00,272.00,VWS V14.00,2013-10-15 22:37:00,
2013-10-15 16:38:00,55.5,31.6,31.13,NNW,338,0.0,3.0,40,0.00,,,0.00,271.00,VWS V14.00,2013-10-15 22:38:00,
2013-10-15 16:39:00,55.5,31.0,31.13,NNW,338,0.0,3.0,39,0.00,,,0.00,269.00,VWS V14.00,2013-10-15 22:39:00,
2013-10-15 16:40:00,55.5,30.3,31.13,NNW,338,0.0,3.0,38,0.00,,,0.00,267.00,VWS V14.00,2013-10-15 22:40:00,
2013-10-15 16:41:00,55.5,31.0,31.13,NNW,338,0.0,3.0,39,0.00,,,0.00,265.00,VWS V14.00,2013-10-15 22:41:00,
2013-10-15 16:42:00,55.5,31.0,31.13,NNW,338,0.0,3.0,39,0.00,,,0.00,262.00,VWS V14.00,2013-10-15 22:42:00,
2013-10-15 16:43:00,55.6,31.7,31.13,NNW,338,3.0,3.0,40,0.00,,,0.00,260.00,VWS V14.00,2013-10-15 22:43:00,
2013-10-15 16:44:00,55.6,32.3,31.13,NNW,338,3.0,4.0,41,0.00,,,0.00,258.00,VWS V14.00,2013-10-15 22:44:00,
2013-10-15 16:45:00,55.6,31.1,31.13,NNW,338,0.0,4.0,39,0.00,,,0.00,255.00,VWS V14.00,2013-10-15 22:45:00,
2013-10-15 16:46:00,55.6,31.1,31.13,NNW,338,0.0,0.0,39,0.00,,,0.00,253.00,VWS V14.00,2013-10-15 22:46:00,
2013-10-15 16:47:00,55.6,31.7,31.13,NNW,338,3.0,4.0,40,0.00,,,0.00,248.00,VWS V14.00,2013-10-15 22:47:00,
2013-10-15 16:48:00,55.6,32.3,31.13,NNW,339,3.0,5.0,41,0.00,,,0.00,246.00,VWS V14.00,2013-10-15 22:48:00,
2013-10-15 16:49:00,55.5,31.0,31.13,NNW,339,0.0,5.0,39,0.00,,,0.00,244.00,VWS V14.00,2013-10-15 22:49:00,
2013-10-15 16:50:00,55.5,31.6,31.13,NNW,338,0.0,5.0,40,0.00,,,0.00,243.00,VWS V14.00,2013-10-15 22:50:00,
2013-10-15 16:51:00,55.5,31.0,31.13,NNW,338,0.0,5.0,39,0.00,,,0.00,239.00,VWS V14.00,2013-10-15 22:51:00,
2013-10-15 16:52:00,55.5,30.3,31.13,NNW,339,0.0,5.0,38,0.00,,,0.00,237.00,VWS V14.00,2013-10-15 22:52:00,
2013-10-15 16:53:00,55.4,30.2,31.13,NNW,339,0.0,5.0,38,0.00,,,0.00,234.00,VWS V14.00,2013-10-15 22:53:00,
2013-10-15 16:54:00,55.4,30.2,31.14,NNW,338,0.0,5.0,38,0.00,,,0.00,230.00,VWS V14.00,2013-10-15 22:54:00,
2013-10-15 16:55:00,55.4,30.9,31.14,NNW,338,0.0,5.0,39,0.00,,,0.00,229.00,VWS V14.00,2013-10-15 22:55:00,
2013-10-15 16:56:00,55.4,30.9,31.13,NNW,339,0.0,5.0,39,0.00,,,0.00,227.00,VWS V14.00,2013-10-15 22:56:00,
2013-10-15 16:57:00,55.4,30.9,31.14,NNW,339,0.0,5.0,39,0.00,,,0.00,225.00,VWS V14.00,2013-10-15 22:57:00,
2013-10-15 16:58:00,55.4,31.5,31.13,NNW,338,0.0,5.0,40,0.00,,,0.00,221.00,VWS V14.00,2013-10-15 22:58:00,
2013-10-15 16:59:00,55.4,32.1,31.14,NNW,339,0.0,5.0,41,0.00,,,0.00,218.00,VWS V14.00,2013-10-15 22:59:00,
2013-10-15 17:00:00,55.4,32.1,31.13,NNW,339,0.0,5.0,41,0.00,,,0.00,216.00,VWS V14.00,2013-10-15 23:00:00,
2013-10-15 17:01:00,55.5,31.6,31.14,NNW,339,0.0,0.0,40,0.00,,,0.00,213.00,VWS V14.00,2013-10-15 23:01:00,
2013-10-15 17:02:00,55.4,30.9,31.15,NNW,339,1.0,3.0,39,0.00,,,0.00,211.00,VWS V14.00,2013-10-15 23:02:00,
2013-10-15 17:03:00,55.4,30.9,31.15,NNW,338,0.0,3.0,39,0.00,,,0.00,209.00,VWS V14.00,2013-10-15 23:03:00,
2013-10-15 17:04:00,55.4,31.5,31.14,NNW,338,3.0,3.0,40,0.00,,,0.00,207.00,VWS V14.00,2013-10-15 23:04:00,
2013-10-15 17:05:00,55.4,30.2,31.14,NNW,338,3.0,4.0,38,0.00,,,0.00,206.00,VWS V14.00,2013-10-15 23:05:00,
2013-10-15 17:06:00,55.3,30.8,31.14,NNW,339,0.0,4.0,39,0.00,,,0.00,200.00,VWS V14.00,2013-10-15 23:06:00,
2013-10-15 17:07:00,55.3,30.8,31.14,NNW,338,0.0,4.0,39,0.00,,,0.00,197.00,VWS V14.00,2013-10-15 23:07:00,
2013-10-15 17:08:00,55.3,31.4,31.14,NNW,338,3.0,4.0,40,0.00,,,0.00,195.00,VWS V14.00,2013-10-15 23:08:00,
2013-10-15 17:09:00,55.3,31.4,31.14,NNW,339,0.0,4.0,40,0.00,,,0.00,193.00,VWS V14.00,2013-10-15 23:09:00,
2013-10-15 17:10:00,55.2,30.7,31.14,NNW,339,1.0,4.0,39,0.00,,,0.00,190.00,VWS V14.00,2013-10-15 23:10:00,
2013-10-15 17:11:00,55.2,31.3,31.14,NNW,338,0.0,4.0,40,0.00,,,0.00,186.00,VWS V14.00,2013-10-15 23:11:00,
2013-10-15 17:12:00,55.1,30.6,31.14,NNW,338,0.0,4.0,39,0.00,,,0.00,172.00,VWS V14.00,2013-10-15 23:12:00,
2013-10-15 17:13:00,55.1,30.6,31.14,NNW,339,0.0,4.0,39,0.00,,,0.00,149.00,VWS V14.00,2013-10-15 23:13:00,
2013-10-15 17:14:00,55.1,30.6,31.14,NNW,338,0.0,4.0,39,0.00,,,0.00,151.00,VWS V14.00,2013-10-15 23:14:00,
2013-10-15 17:15:00,55.1,30.6,31.14,NNW,339,0.0,4.0,39,0.00,,,0.00,172.00,VWS V14.00,2013-10-15 23:15:00,
2013-10-15 17:16:00,55.0,30.5,31.14,NNW,339,0.0,0.0,39,0.00,,,0.00,167.00,VWS V14.00,2013-10-15 23:16:00,
2013-10-15 17:17:00,55.0,30.5,31.14,NNW,339,0.0,0.0,39,0.00,,,0.00,171.00,VWS V14.00,2013-10-15 23:17:00,
2013-10-15 17:18:00,55.0,30.5,31.14,NNW,338,0.0,0.0,39,0.00,,,0.00,169.00,VWS V14.00,2013-10-15 23:18:00,
2013-10-15 17:19:00,54.9,30.4,31.14,NNW,338,0.0,2.0,39,0.00,,,0.00,167.00,VWS V14.00,2013-10-15 23:19:00,
2013-10-15 17:20:00,54.9,30.4,31.14,NNW,338,0.0,2.0,39,0.00,,,0.00,165.00,VWS V14.00,2013-10-15 23:20:00,
2013-10-15 17:21:00,54.8,30.3,31.14,NNW,339,0.0,2.0,39,0.00,,,0.00,163.00,VWS V14.00,2013-10-15 23:21:00,
2013-10-15 17:22:00,54.8,31.0,31.14,NNW,339,0.0,2.0,40,0.00,,,0.00,158.00,VWS V14.00,2013-10-15 23:22:00,
2013-10-15 17:23:00,54.8,31.6,31.14,NNW,339,0.0,2.0,41,0.00,,,0.00,156.00,VWS V14.00,2013-10-15 23:23:00,
2013-10-15 17:24:00,54.7,30.9,31.14,NNW,338,0.0,2.0,40,0.00,,,0.00,155.00,VWS V14.00,2013-10-15 23:24:00,
2013-10-15 17:25:00,54.7,30.9,31.14,NNW,339,0.0,2.0,40,0.00,,,0.00,153.00,VWS V14.00,2013-10-15 23:25:00,
2013-10-15 17:26:00,54.6,30.8,31.14,NNW,338,0.0,2.0,40,0.00,,,0.00,135.00,VWS V14.00,2013-10-15 23:26:00,
2013-10-15 17:27:00,54.6,30.8,31.14,NNW,338,0.0,2.0,40,0.00,,,0.00,123.00,VWS V14.00,2013-10-15 23:27:00,
2013-10-15 17:28:00,54.5,30.7,31.14,NNW,338,0.0,2.0,40,0.00,,,0.00,128.00,VWS V14.00,2013-10-15 23:28:00,
2013-10-15 17:29:00,54.5,31.3,31.14,NNW,339,0.0,2.0,41,0.00,,,0.00,128.00,VWS V14.00,2013-10-15 23:29:00,
2013-10-15 17:30:00,54.4,31.8,31.14,NNW,339,2.0,2.0,42,0.00,,,0.00,137.00,VWS V14.00,2013-10-15 23:30:00,
2013-10-15 17:31:00,54.4,31.2,31.13,NNW,339,0.0,2.0,41,0.00,,,0.00,134.00,VWS V14.00,2013-10-15 23:31:00,
2013-10-15 17:32:00,54.4,31.2,31.13,NNW,339,0.0,2.0,41,0.00,,,0.00,127.00,VWS V14.00,2013-10-15 23:32:00,
2013-10-15 17:33:00,54.3,31.1,31.13,NNW,338,0.0,2.0,41,0.00,,,0.00,116.00,VWS V14.00,2013-10-15 23:33:00,
2013-10-15 17:34:00,54.2,31.0,31.13,NNW,338,4.0,4.0,41,0.00,,,0.00,81.00,VWS V14.00,2013-10-15 23:34:00,
2013-10-15 17:35:00,54.1,30.9,31.13,NNW,339,0.0,4.0,41,0.00,,,0.00,62.00,VWS V14.00,2013-10-15 23:35:00,
2013-10-15 17:36:00,54.1,30.9,31.13,NNW,339,0.0,4.0,41,0.00,,,0.00,39.00,VWS V14.00,2013-10-15 23:36:00,
2013-10-15 17:37:00,54.0,30.9,31.13,NNW,339,0.0,4.0,41,0.00,,,0.00,33.00,VWS V14.00,2013-10-15 23:37:00,
2013-10-15 17:38:00,53.9,31.9,31.13,NNW,339,0.0,4.0,43,0.00,,,0.00,33.00,VWS V14.00,2013-10-15 23:38:00,
2013-10-15 17:39:00,53.9,32.5,31.13,NNW,339,0.0,4.0,44,0.00,,,0.00,32.00,VWS V14.00,2013-10-15 23:39:00,
2013-10-15 17:40:00,53.8,31.9,31.13,NNW,338,0.0,4.0,43,0.00,,,0.00,32.00,VWS V14.00,2013-10-15 23:40:00,
2013-10-15 17:41:00,53.7,31.2,31.13,NNW,339,0.0,4.0,42,0.00,,,0.00,28.00,VWS V14.00,2013-10-15 23:41:00,
2013-10-15 17:42:00,53.7,31.2,31.13,NNW,339,0.0,4.0,42,0.00,,,0.00,28.00,VWS V14.00,2013-10-15 23:42:00,
2013-10-15 17:43:00,53.6,32.2,31.13,NNW,338,0.0,4.0,44,0.00,,,0.00,30.00,VWS V14.00,2013-10-15 23:43:00,
2013-10-15 17:44:00,53.5,32.1,31.13,NNW,339,0.0,4.0,44,0.00,,,0.00,32.00,VWS V14.00,2013-10-15 23:44:00,
2013-10-15 17:45:00,53.5,32.1,31.13,NNW,339,0.0,4.0,44,0.00,,,0.00,30.00,VWS V14.00,2013-10-15 23:45:00,
2013-10-15 17:46:00,53.4,32.0,31.13,NNW,339,0.0,0.0,44,0.00,,,0.00,30.00,VWS V14.00,2013-10-15 23:46:00,
2013-10-15 17:47:00,53.3,32.0,31.14,NNW,338,0.0,0.0,44,0.00,,,0.00,33.00,VWS V14.00,2013-10-15 23:47:00,
2013-10-15 17:48:00,53.2,31.9,31.14,NNW,339,0.0,0.0,44,0.00,,,0.00,33.00,VWS V14.00,2013-10-15 23:48:00,
2013-10-15 17:49:00,53.2,31.3,31.14,NNW,338,0.0,0.0,43,0.00,,,0.00,37.00,VWS V14.00,2013-10-15 23:49:00,
2013-10-15 17:50:00,53.1,31.8,31.14,NNW,338,0.0,0.0,44,0.00,,,0.00,35.00,VWS V14.00,2013-10-15 23:50:00,
2013-10-15 17:51:00,53.0,31.7,31.14,NNW,339,0.0,0.0,44,0.00,,,0.00,35.00,VWS V14.00,2013-10-15 23:51:00,
2013-10-15 17:52:00,52.9,31.6,31.14,NNW,339,0.0,0.0,44,0.00,,,0.00,77.00,VWS V14.00,2013-10-15 23:52:00,
2013-10-15 17:53:00,52.8,32.1,31.14,NNW,338,0.0,0.0,45,0.00,,,0.00,79.00,VWS V14.00,2013-10-15 23:53:00,
2013-10-15 17:54:00,52.8,32.6,31.14,NNW,338,0.0,0.0,46,0.00,,,0.00,76.00,VWS V14.00,2013-10-15 23:54:00,
2013-10-15 17:55:00,52.8,32.6,31.14,NNW,338,0.0,0.0,46,0.00,,,0.00,74.00,VWS V14.00,2013-10-15 23:55:00,
2013-10-15 17:56:00,52.7,32.5,31.14,NNW,339,0.0,0.0,46,0.00,,,0.00,72.00,VWS V14.00,2013-10-15 23:56:00,
2013-10-15 17:57:00,52.6,32.4,31.14,NNW,339,0.0,0.0,46,0.00,,,0.00,69.00,VWS V14.00,2013-10-15 23:57:00,
2013-10-15 17:58:00,52.6,32.4,31.14,NNW,339,0.0,0.0,46,0.00,,,0.00,63.00,VWS V14.00,2013-10-15 23:58:00,
2013-10-15 17:59:00,52.6,32.4,31.14,NNW,339,0.0,0.0,46,0.00,,,0.00,62.00,VWS V14.00,2013-10-15 23:59:00,
2013-10-15 18:00:00,52.5,32.3,31.14,NNW,339,0.0,0.0,46,0.00,,,0.00,60.00,VWS V14.00,2013-10-16 00:00:00,
2013-10-15 18:01:00,52.4,31.7,31.13,NNW,338,0.0,1.0,45,0.00,,,0.00,56.00,VWS V14.00,2013-10-16 00:01:00,
2013-10-15 18:02:00,52.3,31.6,31.13,NNW,338,0.0,1.0,45,0.00,,,0.00,54.00,VWS V14.00,2013-10-16 00:02:00,
2013-10-15 18:03:00,52.3,32.2,31.13,NNW,339,0.0,1.0,46,0.00,,,0.00,53.00,VWS V14.00,2013-10-16 00:03:00,
2013-10-15 18:04:00,52.2,32.1,31.13,NNW,339,0.0,1.0,46,0.00,,,0.00,46.00,VWS V14.00,2013-10-16 00:04:00,
2013-10-15 18:05:00,52.2,32.1,31.13,NNW,339,0.0,1.0,46,0.00,,,0.00,44.00,VWS V14.00,2013-10-16 00:05:00,
2013-10-15 18:06:00,52.1,32.0,31.13,NNW,339,0.0,1.0,46,0.00,,,0.00,42.00,VWS V14.00,2013-10-16 00:06:00,
2013-10-15 18:07:00,52.1,31.4,31.13,NNW,338,0.0,1.0,45,0.00,,,0.00,40.00,VWS V14.00,2013-10-16 00:07:00,
2013-10-15 18:08:00,52.0,31.3,31.13,NNW,338,0.0,1.0,45,0.00,,,0.00,35.00,VWS V14.00,2013-10-16 00:08:00,
2013-10-15 18:09:00,51.9,31.2,31.13,NNW,339,0.0,1.0,45,0.00,,,0.00,18.00,VWS V14.00,2013-10-16 00:09:00,
2013-10-15 18:10:00,51.9,31.2,31.13,NNW,339,0.0,1.0,45,0.00,,,0.00,14.00,VWS V14.00,2013-10-16 00:10:00,
2013-10-15 18:11:00,51.9,31.2,31.13,NNW,339,0.0,1.0,45,0.00,,,0.00,14.00,VWS V14.00,2013-10-16 00:11:00,
2013-10-15 18:12:00,51.8,30.6,31.13,NNW,339,1.0,1.0,44,0.00,,,0.00,14.00,VWS V14.00,2013-10-16 00:12:00,
2013-10-15 18:13:00,51.7,30.5,31.13,NNW,338,0.0,1.0,44,0.00,,,0.00,14.00,VWS V14.00,2013-10-16 00:13:00,
2013-10-15 18:14:00,51.6,30.4,31.13,NNW,338,0.0,1.0,44,0.00,,,0.00,12.00,VWS V14.00,2013-10-16 00:14:00,
2013-10-15 18:15:00,51.6,30.4,31.13,NNW,339,0.0,1.0,44,0.00,,,0.00,12.00,VWS V14.00,2013-10-16 00:15:00,
2013-10-15 18:16:00,51.5,30.3,31.13,NNW,339,0.0,0.0,44,0.00,,,0.00,12.00,VWS V14.00,2013-10-16 00:16:00,
2013-10-15 18:17:00,51.5,30.3,31.13,NNW,339,0.0,0.0,44,0.00,,,0.00,12.00,VWS V14.00,2013-10-16 00:17:00,
2013-10-15 18:18:00,51.4,30.2,31.13,NNW,339,0.0,0.0,44,0.00,,,0.00,11.00,VWS V14.00,2013-10-16 00:18:00,
2013-10-15 18:19:00,51.3,30.1,31.14,NNW,339,0.0,0.0,44,0.00,,,0.00,11.00,VWS V14.00,2013-10-16 00:19:00,
2013-10-15 18:20:00,51.3,30.1,31.14,NNW,339,0.0,0.0,44,0.00,,,0.00,11.00,VWS V14.00,2013-10-16 00:20:00,
2013-10-15 18:21:00,51.2,30.0,31.14,NNW,339,0.0,0.0,44,0.00,,,0.00,11.00,VWS V14.00,2013-10-16 00:21:00,
2013-10-15 18:22:00,51.1,30.0,31.14,NNW,338,0.0,0.0,44,0.00,,,0.00,9.00,VWS V14.00,2013-10-16 00:22:00,
2013-10-15 18:23:00,51.0,29.9,31.14,NNW,339,0.0,0.0,44,0.00,,,0.00,9.00,VWS V14.00,2013-10-16 00:23:00,
2013-10-15 18:24:00,50.9,29.8,31.14,NNW,339,0.0,0.0,44,0.00,,,0.00,7.00,VWS V14.00,2013-10-16 00:24:00,
2013-10-15 18:25:00,50.8,29.7,31.14,NNW,339,0.0,0.0,44,0.00,,,0.00,7.00,VWS V14.00,2013-10-16 00:25:00,
2013-10-15 18:26:00,50.7,29.6,31.14,NNW,339,0.0,0.0,44,0.00,,,0.00,7.00,VWS V14.00,2013-10-16 00:26:00,
2013-10-15 18:27:00,50.6,29.5,31.14,NNW,339,0.0,0.0,44,0.00,,,0.00,5.00,VWS V14.00,2013-10-16 00:27:00,
2013-10-15 18:28:00,50.6,29.5,31.14,NNW,339,0.0,0.0,44,0.00,,,0.00,5.00,VWS V14.00,2013-10-16 00:28:00,
2013-10-15 18:29:00,50.5,30.0,31.14,NNW,339,0.0,0.0,45,0.00,,,0.00,5.00,VWS V14.00,2013-10-16 00:29:00,
2013-10-15 18:30:00,50.4,29.9,31.14,NNW,339,0.0,0.0,45,0.00,,,0.00,5.00,VWS V14.00,2013-10-16 00:30:00,
2013-10-15 18:31:00,50.3,29.8,31.14,NNW,338,0.0,0.0,45,0.00,,,0.00,0.00,VWS V14.00,2013-10-16 00:31:00,
2013-10-15 18:32:00,50.3,29.8,31.14,NNW,339,0.0,0.0,45,0.00,,,0.00,0.00,VWS V14.00,2013-10-16 00:32:00,
2013-10-15 18:33:00,50.2,29.7,31.14,NNW,339,0.0,0.0,45,0.00,,,0.00,0.00,VWS V14.00,2013-10-16 00:33:00,
2013-10-15 18:34:00,50.1,29.6,31.14,NNW,338,0.0,0.0,45,0.00,,,0.00,0.00,VWS V14.00,2013-10-16 00:34:00,
2013-10-15 18:35:00,50.0,29.5,31.14,NNW,339,0.0,0.0,45,0.00,,,0.00,0.00,VWS V14.00,2013-10-16 00:35:00,
2013-10-15 18:36:00,49.9,30.0,31.14,NNW,338,0.0,0.0,46,0.00,,,0.00,0.00,VWS V14.00,2013-10-16 00:36:00,
2013-10-15 18:37:00,49.8,29.3,31.14,NNW,338,0.0,0.0,45,0.00,,,0.00,0.00,VWS V14.00,2013-10-16 00:37:00,
2013-10-15 18:38:00,49.7,29.8,31.14,NNW,339,0.0,0.0,46,0.00,,,0.00,0.00,VWS V14.00,2013-10-16 00:38:00,
2013-10-15 18:39:00,49.6,29.1,31.14,NNW,339,0.0,0.0,45,0.00,,,0.00,0.00,VWS V14.00,2013-10-16 00:39:00,
2013-10-15 18:40:00,49.5,29.6,31.14,NNW,339,0.0,0.0,46,0.00,,,0.00,0.00,VWS V14.00,2013-10-16 00:40:00,
2013-10-15 18:41:00,49.4,29.5,31.14,NNW,339,0.0,0.0,46,0.00,,,0.00,0.00,VWS V14.00,2013-10-16 00:41:00,
2013-10-15 18:42:00,49.4,29.5,31.15,NNW,338,0.0,0.0,46,0.00,,,0.00,0.00,VWS V14.00,2013-10-16 00:42:00,
2013-10-15 18:43:00,49.2,29.3,31.15,NNW,339,0.0,0.0,46,0.00,,,0.00,0.00,VWS V14.00,2013-10-16 00:43:00,
2013-10-15 18:44:00,49.2,29.3,31.15,NNW,339,0.0,0.0,46,0.00,,,0.00,0.00,VWS V14.00,2013-10-16 00:44:00,
2013-10-15 18:45:00,49.1,29.2,31.15,NNW,339,0.0,0.0,46,0.00,,,0.00,0.00,VWS V14.00,2013-10-16 00:45:00,
2013-10-15 18:46:00,49.0,29.1,31.15,NNW,339,0.0,0.0,46,0.00,,,0.00,0.00,VWS V14.00,2013-10-16 00:46:00,
2013-10-15 18:47:00,49.0,29.1,31.15,NNW,338,0.0,0.0,46,0.00,,,0.00,0.00,VWS V14.00,2013-10-16 00:47:00,
2013-10-15 18:48:00,48.9,29.6,31.15,NNW,338,0.0,0.0,47,0.00,,,0.00,0.00,VWS V14.00,2013-10-16 00:48:00,
2013-10-15 18:49:00,48.8,29.5,31.15,NNW,338,0.0,0.0,47,0.00,,,0.00,0.00,VWS V14.00,2013-10-16 00:49:00,
2013-10-15 18:50:00,48.7,29.4,31.15,NNW,339,0.0,0.0,47,0.00,,,0.00,0.00,VWS V14.00,2013-10-16 00:50:00,
2013-10-15 18:51:00,48.7,29.4,31.15,NNW,339,0.0,0.0,47,0.00,,,0.00,0.00,VWS V14.00,2013-10-16 00:51:00,
2013-10-15 18:52:00,48.6,29.3,31.15,NNW,339,0.0,0.0,47,0.00,,,0.00,0.00,VWS V14.00,2013-10-16 00:52:00,
2013-10-15 18:53:00,48.5,29.2,31.15,NNW,339,0.0,0.0,47,0.00,,,0.00,0.00,VWS V14.00,2013-10-16 00:53:00,
2013-10-15 18:54:00,48.5,29.2,31.15,NNW,339,0.0,0.0,47,0.00,,,0.00,0.00,VWS V14.00,2013-10-16 00:54:00,
2013-10-15 18:55:00,48.4,29.1,31.15,NNW,338,0.0,0.0,47,0.00,,,0.00,0.00,VWS V14.00,2013-10-16 00:55:00,
2013-10-15 18:56:00,48.3,29.0,31.15,NNW,338,0.0,0.0,47,0.00,,,0.00,0.00,VWS V14.00,2013-10-16 00:56:00,
2013-10-15 18:57:00,48.3,29.0,31.15,NNW,338,0.0,0.0,47,0.00,,,0.00,0.00,VWS V14.00,2013-10-16 00:57:00,
2013-10-15 18:58:00,48.2,29.5,31.15,NNW,339,0.0,0.0,48,0.00,,,0.00,0.00,VWS V14.00,2013-10-16 00:58:00,
2013-10-15 18:59:00,48.1,29.4,31.15,NNW,339,0.0,0.0,48,0.00,,,0.00,0.00,VWS V14.00,2013-10-16 00:59:00,
2013-10-15 19:00:00,48.1,29.4,31.15,NNW,338,0.0,0.0,48,0.00,,,0.00,0.00,VWS V14.00,2013-10-16 01:00:00,
2013-10-15 19:01:00,48.0,29.3,31.16,NNW,338,0.0,0.0,48,0.00,,,0.00,0.00,VWS V14.00,2013-10-16 01:01:00,
2013-10-15 19:02:00,48.0,29.3,31.16,NNW,338,0.0,0.0,48,0.00,,,0.00,0.00,VWS V14.00,2013-10-16 01:02:00,
2013-10-15 19:03:00,47.9,29.2,31.16,NNW,339,0.0,0.0,48,0.00,,,0.00,0.00,VWS V14.00,2013-10-16 01:03:00,
2013-10-15 19:04:00,47.8,29.1,31.16,NNW,339,0.0,0.0,48,0.00,,,0.00,0.00,VWS V14.00,2013-10-16 01:04:00,
2013-10-15 19:05:00,47.8,29.1,31.16,NNW,339,0.0,0.0,48,0.00,,,0.00,0.00,VWS V14.00,2013-10-16 01:05:00,
2013-10-15 19:06:00,47.7,29.5,31.16,NNW,338,3.0,4.0,49,0.00,,,0.00,0.00,VWS V14.00,2013-10-16 01:06:00,
2013-10-15 19:07:00,47.6,29.4,31.17,NNW,338,0.0,4.0,49,0.00,,,0.00,0.00,VWS V14.00,2013-10-16 01:07:00,
2013-10-15 19:08:00,47.4,29.2,31.17,NNW,338,0.0,4.0,49,0.00,,,0.00,0.00,VWS V14.00,2013-10-16 01:08:00,
2013-10-15 19:09:00,47.4,29.2,31.16,NNW,338,0.0,4.0,49,0.00,,,0.00,0.00,VWS V14.00,2013-10-16 01:09:00,
2013-10-15 19:10:00,47.1,28.9,31.16,NNW,338,0.0,4.0,49,0.00,,,0.00,0.00,VWS V14.00,2013-10-16 01:10:00,
2013-10-15 19:11:00,46.9,29.2,31.16,NNW,338,0.0,4.0,50,0.00,,,0.00,0.00,VWS V14.00,2013-10-16 01:11:00,
2013-10-15 19:12:00,46.5,29.4,31.16,NNW,338,0.0,4.0,51,0.00,,,0.00,0.00,VWS V14.00,2013-10-16 01:12:00,
2013-10-15 19:13:00,46.2,29.1,31.16,NNW,338,0.0,4.0,51,0.00,,,0.00,0.00,VWS V14.00,2013-10-16 01:13:00,
2013-10-15 19:14:00,45.9,29.3,31.17,NNW,338,0.0,4.0,52,0.00,,,0.00,0.00,VWS V14.00,2013-10-16 01:14:00,
2013-10-15 19:15:00,45.6,29.0,31.17,NNW,338,0.0,4.0,52,0.00,,,0.00,0.00,VWS V14.00,2013-10-16 01:15:00,
2013-10-15 19:16:00,45.4,28.8,31.17,NNW,338,0.0,0.0,52,0.00,,,0.00,0.00,VWS V14.00,2013-10-16 01:16:00,
2013-10-15 19:17:00,45.2,29.1,31.18,NNW,338,0.0,0.0,53,0.00,,,0.00,0.00,VWS V14.00,2013-10-16 01:17:00,
2013-10-15 19:18:00,45.0,29.4,31.18,NNW,338,0.0,0.0,54,0.00,,,0.00,0.00,VWS V14.00,2013-10-16 01:18:00,
2013-10-15 19:19:00,44.9,29.3,31.18,NNW,338,0.0,0.0,54,0.00,,,0.00,0.00,VWS V14.00,2013-10-16 01:19:00,
2013-10-15 19:20:00,44.7,29.1,31.18,NNW,338,0.0,0.0,54,0.00,,,0.00,0.00,VWS V14.00,2013-10-16 01:20:00,
2013-10-15 19:21:00,44.5,28.9,31.18,NNW,338,0.0,0.0,54,0.00,,,0.00,0.00,VWS V14.00,2013-10-16 01:21:00,
2013-10-15 19:22:00,44.4,29.3,31.18,NNW,338,0.0,0.0,55,0.00,,,0.00,0.00,VWS V14.00,2013-10-16 01:22:00,
2013-10-15 19:23:00,44.2,29.5,31.19,NNW,338,0.0,0.0,56,0.00,,,0.00,0.00,VWS V14.00,2013-10-16 01:23:00,
2013-10-15 19:24:00,44.1,29.4,31.19,NNW,338,0.0,0.0,56,0.00,,,0.00,0.00,VWS V14.00,2013-10-16 01:24:00,
2013-10-15 19:25:00,43.9,28.8,31.19,NNW,338,0.0,0.0,55,0.00,,,0.00,0.00,VWS V14.00,2013-10-16 01:25:00,
2013-10-15 19:26:00,43.8,28.7,31.19,NNW,338,0.0,0.0,55,0.00,,,0.00,0.00,VWS V14.00,2013-10-16 01:26:00,
2013-10-15 19:27:00,43.6,29.0,31.19,NNW,338,0.0,0.0,56,0.00,,,0.00,0.00,VWS V14.00,2013-10-16 01:27:00,
2013-10-15 19:28:00,43.5,28.9,31.19,NNW,338,0.0,0.0,56,0.00,,,0.00,0.00,VWS V14.00,2013-10-16 01:28:00,
2013-10-15 19:29:00,43.3,28.7,31.19,NNW,338,0.0,0.0,56,0.00,,,0.00,0.00,VWS V14.00,2013-10-16 01:29:00,
2013-10-15 19:30:00,43.2,29.0,31.19,NNW,338,0.0,0.0,57,0.00,,,0.00,0.00,VWS V14.00,2013-10-16 01:30:00,
2013-10-15 19:31:00,43.0,28.8,31.19,NNW,338,0.0,0.0,57,0.00,,,0.00,0.00,VWS V14.00,2013-10-16 01:31:00,
2013-10-15 19:32:00,42.9,28.7,31.19,NNW,338,0.0,0.0,57,0.00,,,0.00,0.00,VWS V14.00,2013-10-16 01:32:00,
2013-10-15 19:33:00,42.8,28.6,31.19,NNW,338,0.0,0.0,57,0.00,,,0.00,0.00,VWS V14.00,2013-10-16 01:33:00,
2013-10-15 19:34:00,42.7,28.5,31.19,NNW,338,0.0,0.0,57,0.00,,,0.00,0.00,VWS V14.00,2013-10-16 01:34:00,
2013-10-15 19:35:00,42.6,28.5,31.19,NNW,338,0.0,0.0,57,0.00,,,0.00,0.00,VWS V14.00,2013-10-16 01:35:00,
2013-10-15 19:36:00,42.5,28.4,31.19,NNW,338,0.0,0.0,57,0.00,,,0.00,0.00,VWS V14.00,2013-10-16 01:36:00,
2013-10-15 19:37:00,42.4,28.7,31.19,NNW,338,0.0,0.0,58,0.00,,,0.00,0.00,VWS V14.00,2013-10-16 01:37:00,
2013-10-15 19:38:00,42.3,29.0,31.20,NNW,338,0.0,0.0,59,0.00,,,0.00,0.00,VWS V14.00,2013-10-16 01:38:00,
2013-10-15 19:39:00,42.2,28.9,31.20,NNW,338,0.0,0.0,59,0.00,,,0.00,0.00,VWS V14.00,2013-10-16 01:39:00,
2013-10-15 19:40:00,42.1,28.8,31.20,NNW,338,0.0,0.0,59,0.00,,,0.00,0.00,VWS V14.00,2013-10-16 01:40:00,
2013-10-15 19:41:00,42.0,28.7,31.20,NNW,338,0.0,1.0,59,0.00,,,0.00,0.00,VWS V14.00,2013-10-16 01:41:00,
2013-10-15 19:42:00,41.9,28.6,31.20,NNW,338,1.0,1.0,59,0.00,,,0.00,0.00,VWS V14.00,2013-10-16 01:42:00,
2013-10-15 19:43:00,41.9,28.6,31.20,NNW,338,0.0,1.0,59,0.00,,,0.00,0.00,VWS V14.00,2013-10-16 01:43:00,
2013-10-15 19:44:00,41.8,28.5,31.20,NNW,338,0.0,1.0,59,0.00,,,0.00,0.00,VWS V14.00,2013-10-16 01:44:00,
2013-10-15 19:45:00,41.7,28.4,31.20,NNW,338,0.0,1.0,59,0.00,,,0.00,0.00,VWS V14.00,2013-10-16 01:45:00,
2013-10-15 19:46:00,41.7,28.4,31.20,NNW,338,0.0,0.0,59,0.00,,,0.00,0.00,VWS V14.00,2013-10-16 01:46:00,
2013-10-15 19:47:00,41.6,28.4,31.20,NNW,338,0.0,0.0,59,0.00,,,0.00,0.00,VWS V14.00,2013-10-16 01:47:00,
2013-10-15 19:48:00,41.5,28.3,31.20,NNW,338,0.0,0.0,59,0.00,,,0.00,0.00,VWS V14.00,2013-10-16 01:48:00,
2013-10-15 19:49:00,41.5,28.3,31.20,NNW,338,0.0,0.0,59,0.00,,,0.00,0.00,VWS V14.00,2013-10-16 01:49:00,
2013-10-15 19:50:00,41.5,28.3,31.20,NNW,338,0.0,0.0,59,0.00,,,0.00,0.00,VWS V14.00,2013-10-16 01:50:00,
2013-10-15 19:51:00,41.4,28.2,31.20,NNW,338,0.0,0.0,59,0.00,,,0.00,0.00,VWS V14.00,2013-10-16 01:51:00,
2013-10-15 19:52:00,41.4,28.6,31.19,NNW,338,0.0,0.0,60,0.00,,,0.00,0.00,VWS V14.00,2013-10-16 01:52:00,
2013-10-15 19:53:00,41.3,28.5,31.19,NNW,338,0.0,0.0,60,0.00,,,0.00,0.00,VWS V14.00,2013-10-16 01:53:00,
2013-10-15 19:54:00,41.3,28.5,31.20,NNW,338,0.0,0.0,60,0.00,,,0.00,0.00,VWS V14.00,2013-10-16 01:54:00,
2013-10-15 19:55:00,41.2,28.4,31.20,NNW,338,0.0,0.0,60,0.00,,,0.00,0.00,VWS V14.00,2013-10-16 01:55:00,
2013-10-15 19:56:00,41.1,28.3,31.20,NNW,338,0.0,0.0,60,0.00,,,0.00,0.00,VWS V14.00,2013-10-16 01:56:00,
2013-10-15 19:57:00,41.1,28.7,31.20,NNW,338,0.0,0.0,61,0.00,,,0.00,0.00,VWS V14.00,2013-10-16 01:57:00,
2013-10-15 19:58:00,41.0,28.6,31.20,NNW,338,0.0,0.0,61,0.00,,,0.00,0.00,VWS V14.00,2013-10-16 01:58:00,
2013-10-15 19:59:00,41.0,29.8,31.20,NNW,338,0.0,0.0,64,0.00,,,0.00,0.00,VWS V14.00,2013-10-16 01:59:00,
2013-10-15 20:00:00,41.0,28.6,31.20,NNW,338,0.0,0.0,61,0.00,,,0.00,0.00,VWS V14.00,2013-10-16 02:00:00,
2013-10-15 20:01:00,40.9,28.5,31.20,NNW,338,0.0,0.0,61,0.00,,,0.00,0.00,VWS V14.00,2013-10-16 02:01:00,
2013-10-15 20:02:00,40.9,28.5,31.20,NNW,338,0.0,0.0,61,0.00,,,0.00,0.00,VWS V14.00,2013-10-16 02:02:00,
2013-10-15 20:03:00,40.8,28.4,31.20,NNW,338,0.0,0.0,61,0.00,,,0.00,0.00,VWS V14.00,2013-10-16 02:03:00,
2013-10-15 20:04:00,40.7,28.3,31.20,NNW,338,0.0,0.0,61,0.00,,,0.00,0.00,VWS V14.00,2013-10-16 02:04:00,
2013-10-15 20:05:00,40.6,28.6,31.19,NNW,338,0.0,0.0,62,0.00,,,0.00,0.00,VWS V14.00,2013-10-16 02:05:00,
2013-10-15 20:06:00,40.6,28.6,31.20,NNW,338,0.0,0.0,62,0.00,,,0.00,0.00,VWS V14.00,2013-10-16 02:06:00,
2013-10-15 20:07:00,40.5,28.5,31.20,NNW,338,0.0,0.0,62,0.00,,,0.00,0.00,VWS V14.00,2013-10-16 02:07:00,
2013-10-15 20:08:00,40.4,28.4,31.19,NNW,338,0.0,0.0,62,0.00,,,0.00,0.00,VWS V14.00,2013-10-16 02:08:00,
2013-10-15 20:09:00,40.3,28.7,31.19,NNW,338,0.0,0.0,63,0.00,,,0.00,0.00,VWS V14.00,2013-10-16 02:09:00,
2013-10-15 20:10:00,40.2,29.0,31.19,NNW,338,0.0,0.0,64,0.00,,,0.00,0.00,VWS V14.00,2013-10-16 02:10:00,
2013-10-15 20:11:00,40.1,28.9,31.19,NNW,338,0.0,0.0,64,0.00,,,0.00,0.00,VWS V14.00,2013-10-16 02:11:00,
2013-10-15 20:12:00,40.0,28.8,31.19,NNW,338,0.0,0.0,64,0.00,,,0.00,0.00,VWS V14.00,2013-10-16 02:12:00,
2013-10-15 20:13:00,39.9,28.7,31.19,NNW,338,0.0,0.0,64,0.00,,,0.00,0.00,VWS V14.00,2013-10-16 02:13:00,
2013-10-15 20:14:00,39.8,28.6,31.19,NNW,338,0.0,0.0,64,0.00,,,0.00,0.00,VWS V14.00,2013-10-16 02:14:00,
2013-10-15 20:15:00,39.8,28.6,31.19,NNW,338,0.0,0.0,64,0.00,,,0.00,0.00,VWS V14.00,2013-10-16 02:15:00,
2013-10-15 20:16:00,39.7,28.5,31.19,NNW,338,0.0,0.0,64,0.00,,,0.00,0.00,VWS V14.00,2013-10-16 02:16:00,
2013-10-15 20:17:00,39.7,28.5,31.19,NNW,338,0.0,0.0,64,0.00,,,0.00,0.00,VWS V14.00,2013-10-16 02:17:00,
2013-10-15 20:18:00,39.7,28.5,31.19,NNW,338,0.0,0.0,64,0.00,,,0.00,0.00,VWS V14.00,2013-10-16 02:18:00,
2013-10-15 20:19:00,39.6,28.4,31.19,NNW,338,0.0,0.0,64,0.00,,,0.00,0.00,VWS V14.00,2013-10-16 02:19:00,
2013-10-15 20:20:00,39.5,28.4,31.19,NNW,338,0.0,0.0,64,0.00,,,0.00,0.00,VWS V14.00,2013-10-16 02:20:00,
2013-10-15 20:21:00,39.5,28.0,31.19,NNW,338,0.0,0.0,63,0.00,,,0.00,0.00,VWS V14.00,2013-10-16 02:21:00,
2013-10-15 20:22:00,39.3,27.8,31.20,NNW,338,1.0,4.0,63,0.00,,,0.00,0.00,VWS V14.00,2013-10-16 02:22:00,
2013-10-15 20:23:00,39.2,27.7,31.20,NNW,338,1.0,4.0,63,0.00,,,0.00,0.00,VWS V14.00,2013-10-16 02:23:00,
2013-10-15 20:24:00,39.0,27.9,31.21,NNW,338,0.0,4.0,64,0.00,,,0.00,0.00,VWS V14.00,2013-10-16 02:24:00,
2013-10-15 20:25:00,38.9,27.8,31.21,NNW,338,0.0,4.0,64,0.00,,,0.00,0.00,VWS V14.00,2013-10-16 02:25:00,
2013-10-15 20:26:00,38.8,27.7,31.20,NNW,338,0.0,4.0,64,0.00,,,0.00,0.00,VWS V14.00,2013-10-16 02:26:00,
2013-10-15 20:27:00,38.6,27.9,31.20,NNW,338,0.0,4.0,65,0.00,,,0.00,0.00,VWS V14.00,2013-10-16 02:27:00,
2013-10-15 20:28:00,38.4,28.0,31.20,NNW,338,0.0,4.0,66,0.00,,,0.00,0.00,VWS V14.00,2013-10-16 02:28:00,
2013-10-15 20:29:00,38.2,27.9,31.20,NNW,338,3.0,4.0,66,0.00,,,0.00,0.00,VWS V14.00,2013-10-16 02:29:00,
2013-10-15 20:30:00,38.1,27.8,31.20,NNW,338,2.0,4.0,66,0.00,,,0.00,0.00,VWS V14.00,2013-10-16 02:30:00,
2013-10-15 20:31:00,38.0,27.7,31.20,NNW,338,2.0,3.0,66,0.00,,,0.00,0.00,VWS V14.00,2013-10-16 02:31:00,
2013-10-15 20:32:00,37.9,27.6,31.21,NNW,338,2.0,3.0,66,0.00,,,0.00,0.00,VWS V14.00,2013-10-16 02:32:00,
2013-10-15 20:33:00,37.9,27.6,31.21,NNW,338,0.0,3.0,66,0.00,,,0.00,0.00,VWS V14.00,2013-10-16 02:33:00,
2013-10-15 20:34:00,37.8,27.8,31.20,NNW,338,0.0,3.0,67,0.00,,,0.00,0.00,VWS V14.00,2013-10-16 02:34:00,
2013-10-15 20:35:00,37.8,27.8,31.20,NNW,338,0.0,3.0,67,0.00,,,0.00,0.00,VWS V14.00,2013-10-16 02:35:00,
2013-10-15 20:36:00,37.8,27.8,31.20,NNW,338,0.0,3.0,67,0.00,,,0.00,0.00,VWS V14.00,2013-10-16 02:36:00,
2013-10-15 20:37:00,37.7,27.8,31.20,NNW,338,0.0,3.0,67,0.00,,,0.00,0.00,VWS V14.00,2013-10-16 02:37:00,
2013-10-15 20:38:00,37.7,27.8,31.20,NNW,338,0.0,3.0,67,0.00,,,0.00,0.00,VWS V14.00,2013-10-16 02:38:00,
2013-10-15 20:39:00,37.7,28.1,31.20,NNW,338,0.0,3.0,68,0.00,,,0.00,0.00,VWS V14.00,2013-10-16 02:39:00,
2013-10-15 20:40:00,37.6,27.6,31.20,NNW,338,0.0,3.0,67,0.00,,,0.00,0.00,VWS V14.00,2013-10-16 02:40:00,
2013-10-15 20:41:00,37.5,27.5,31.20,NNW,338,0.0,3.0,67,0.00,,,0.00,0.00,VWS V14.00,2013-10-16 02:41:00,
2013-10-15 20:42:00,37.5,27.5,31.21,NNW,338,0.0,3.0,67,0.00,,,0.00,0.00,VWS V14.00,2013-10-16 02:42:00,
2013-10-15 20:43:00,37.5,27.5,31.20,NNW,338,0.0,3.0,67,0.00,,,0.00,0.00,VWS V14.00,2013-10-16 02:43:00,
2013-10-15 20:44:00,37.4,27.8,31.21,NNW,338,0.0,3.0,68,0.00,,,0.00,0.00,VWS V14.00,2013-10-16 02:44:00,
2013-10-15 20:45:00,37.3,27.7,31.21,NNW,338,0.0,3.0,68,0.00,,,0.00,0.00,VWS V14.00,2013-10-16 02:45:00,
2013-10-15 20:46:00,37.3,27.7,31.21,NNW,338,0.0,0.0,68,0.00,,,0.00,0.00,VWS V14.00,2013-10-16 02:46:00,
2013-10-15 20:47:00,37.2,27.6,31.21,NNW,338,0.0,0.0,68,0.00,,,0.00,0.00,VWS V14.00,2013-10-16 02:47:00,
2013-10-15 20:48:00,37.1,27.5,31.21,NNW,338,0.0,0.0,68,0.00,,,0.00,0.00,VWS V14.00,2013-10-16 02:48:00,
2013-10-15 20:49:00,37.1,27.5,31.22,NNW,338,0.0,0.0,68,0.00,,,0.00,0.00,VWS V14.00,2013-10-16 02:49:00,
2013-10-15 20:50:00,37.0,27.4,31.22,NNW,338,0.0,0.0,68,0.00,,,0.00,0.00,VWS V14.00,2013-10-16 02:50:00,
2013-10-15 20:51:00,37.0,27.8,31.22,NNW,338,0.0,0.0,69,0.00,,,0.00,0.00,VWS V14.00,2013-10-16 02:51:00,
2013-10-15 20:52:00,36.9,27.3,31.22,NNW,338,0.0,0.0,68,0.00,,,0.00,0.00,VWS V14.00,2013-10-16 02:52:00,
2013-10-15 20:53:00,36.9,27.3,31.22,NNW,338,0.0,0.0,68,0.00,,,0.00,0.00,VWS V14.00,2013-10-16 02:53:00,
2013-10-15 20:54:00,36.8,27.2,31.22,NNW,338,0.0,0.0,68,0.00,,,0.00,0.00,VWS V14.00,2013-10-16 02:54:00,
2013-10-15 20:55:00,36.8,27.2,31.22,NNW,338,0.0,0.0,68,0.00,,,0.00,0.00,VWS V14.00,2013-10-16 02:55:00,
2013-10-15 20:56:00,36.8,27.2,31.22,NNW,338,0.0,0.0,68,0.00,,,0.00,0.00,VWS V14.00,2013-10-16 02:56:00,
2013-10-15 20:57:00,36.7,27.1,31.22,NNW,338,0.0,0.0,68,0.00,,,0.00,0.00,VWS V14.00,2013-10-16 02:57:00,
2013-10-15 20:58:00,36.7,27.1,31.22,NNW,338,0.0,0.0,68,0.00,,,0.00,0.00,VWS V14.00,2013-10-16 02:58:00,
2013-10-15 20:59:00,36.7,28.5,31.22,NNW,338,0.0,0.0,72,0.00,,,0.00,0.00,VWS V14.00,2013-10-16 02:59:00,
2013-10-15 21:00:00,36.6,27.0,31.21,NNW,338,0.0,0.0,68,0.00,,,0.00,0.00,VWS V14.00,2013-10-16 03:00:00,
2013-10-15 21:01:00,36.6,27.0,31.19,NNW,338,0.0,0.0,68,0.00,,,0.00,0.00,VWS V14.00,2013-10-16 03:01:00,
2013-10-15 21:02:00,36.6,27.0,31.19,NNW,338,0.0,0.0,68,0.00,,,0.00,0.00,VWS V14.00,2013-10-16 03:02:00,
2013-10-15 21:03:00,36.6,27.0,31.19,NNW,338,0.0,0.0,68,0.00,,,0.00,0.00,VWS V14.00,2013-10-16 03:03:00,
2013-10-15 21:04:00,36.5,27.0,31.19,NNW,338,0.0,0.0,68,0.00,,,0.00,0.00,VWS V14.00,2013-10-16 03:04:00,
2013-10-15 21:05:00,36.5,27.3,31.19,NNW,338,0.0,0.0,69,0.00,,,0.00,0.00,VWS V14.00,2013-10-16 03:05:00,
2013-10-15 21:06:00,36.5,27.0,31.19,NNW,338,0.0,0.0,68,0.00,,,0.00,0.00,VWS V14.00,2013-10-16 03:06:00,
2013-10-15 21:07:00,36.5,27.0,31.19,NNW,338,0.0,0.0,68,0.00,,,0.00,0.00,VWS V14.00,2013-10-16 03:07:00,
2013-10-15 21:08:00,36.5,27.0,31.19,NNW,338,0.0,0.0,68,0.00,,,0.00,0.00,VWS V14.00,2013-10-16 03:08:00,
2013-10-15 21:09:00,36.5,27.0,31.19,NNW,338,0.0,0.0,68,0.00,,,0.00,0.00,VWS V14.00,2013-10-16 03:09:00,
2013-10-15 21:10:00,36.5,27.0,31.19,NNW,338,0.0,0.0,68,0.00,,,0.00,0.00,VWS V14.00,2013-10-16 03:10:00,
2013-10-15 21:11:00,36.5,27.0,31.19,NNW,338,0.0,0.0,68,0.00,,,0.00,0.00,VWS V14.00,2013-10-16 03:11:00,
2013-10-15 21:12:00,36.5,27.0,31.19,NNW,338,0.0,0.0,68,0.00,,,0.00,0.00,VWS V14.00,2013-10-16 03:12:00,
2013-10-15 21:13:00,36.5,27.0,31.19,NNW,338,0.0,0.0,68,0.00,,,0.00,0.00,VWS V14.00,2013-10-16 03:13:00,
2013-10-15 21:14:00,36.5,27.0,31.19,NNW,338,0.0,0.0,68,0.00,,,0.00,0.00,VWS V14.00,2013-10-16 03:14:00,
2013-10-15 21:15:00,36.5,27.3,31.19,NNW,338,0.0,0.0,69,0.00,,,0.00,0.00,VWS V14.00,2013-10-16 03:15:00,
2013-10-15 21:16:00,36.5,27.3,31.19,NNW,338,0.0,0.0,69,0.00,,,0.00,0.00,VWS V14.00,2013-10-16 03:16:00,
2013-10-15 21:17:00,36.5,27.0,31.19,NNW,338,0.0,0.0,68,0.00,,,0.00,0.00,VWS V14.00,2013-10-16 03:17:00,
2013-10-15 21:18:00,36.5,27.0,31.19,NNW,338,2.0,3.0,68,0.00,,,0.00,0.00,VWS V14.00,2013-10-16 03:18:00,
2013-10-15 21:19:00,36.4,27.2,31.19,NNW,338,2.0,3.0,69,0.00,,,0.00,0.00,VWS V14.00,2013-10-16 03:19:00,
2013-10-15 21:20:00,36.4,26.9,31.20,NNW,338,1.0,3.0,68,0.00,,,0.00,0.00,VWS V14.00,2013-10-16 03:20:00,
2013-10-15 21:21:00,36.4,26.9,31.20,NNW,338,0.0,3.0,68,0.00,,,0.00,0.00,VWS V14.00,2013-10-16 03:21:00,
2013-10-15 21:22:00,36.3,26.8,31.20,NNW,338,0.0,3.0,68,0.00,,,0.00,0.00,VWS V14.00,2013-10-16 03:22:00,
2013-10-15 21:23:00,36.2,27.0,31.20,NNW,338,0.0,3.0,69,0.00,,,0.00,0.00,VWS V14.00,2013-10-16 03:23:00,
2013-10-15 21:24:00,36.2,27.0,31.20,NNW,338,0.0,3.0,69,0.00,,,0.00,0.00,VWS V14.00,2013-10-16 03:24:00,
2013-10-15 21:25:00,36.2,27.4,31.20,NNW,338,0.0,3.0,70,0.00,,,0.00,0.00,VWS V14.00,2013-10-16 03:25:00,
2013-10-15 21:26:00,36.2,27.4,31.20,NNW,338,0.0,3.0,70,0.00,,,0.00,0.00,VWS V14.00,2013-10-16 03:26:00,
2013-10-15 21:27:00,36.2,27.4,31.20,NNW,338,0.0,3.0,70,0.00,,,0.00,0.00,VWS V14.00,2013-10-16 03:27:00,
2013-10-15 21:28:00,36.2,27.4,31.20,NNW,338,0.0,3.0,70,0.00,,,0.00,0.00,VWS V14.00,2013-10-16 03:28:00,
2013-10-15 21:29:00,36.1,27.3,31.20,NNW,338,0.0,3.0,70,0.00,,,0.00,0.00,VWS V14.00,2013-10-16 03:29:00,
2013-10-15 21:30:00,36.1,27.3,31.20,NNW,338,0.0,3.0,70,0.00,,,0.00,0.00,VWS V14.00,2013-10-16 03:30:00,
2013-10-15 21:31:00,36.1,27.3,31.20,NNW,338,0.0,0.0,70,0.00,,,0.00,0.00,VWS V14.00,2013-10-16 03:31:00,
2013-10-15 21:32:00,36.1,26.9,31.20,NNW,338,0.0,0.0,69,0.00,,,0.00,0.00,VWS V14.00,2013-10-16 03:32:00,
2013-10-15 21:33:00,36.1,26.9,31.20,NNW,338,0.0,0.0,69,0.00,,,0.00,0.00,VWS V14.00,2013-10-16 03:33:00,
2013-10-15 21:34:00,36.0,26.8,31.20,NNW,338,0.0,0.0,69,0.00,,,0.00,0.00,VWS V14.00,2013-10-16 03:34:00,
2013-10-15 21:35:00,36.0,26.8,31.20,NNW,338,0.0,0.0,69,0.00,,,0.00,0.00,VWS V14.00,2013-10-16 03:35:00,
2013-10-15 21:36:00,35.9,26.7,31.20,NNW,338,0.0,0.0,69,0.00,,,0.00,0.00,VWS V14.00,2013-10-16 03:36:00,
2013-10-15 21:37:00,35.9,26.7,31.20,NNW,338,0.0,0.0,69,0.00,,,0.00,0.00,VWS V14.00,2013-10-16 03:37:00,
2013-10-15 21:38:00,35.9,26.7,31.20,NNW,338,0.0,0.0,69,0.00,,,0.00,0.00,VWS V14.00,2013-10-16 03:38:00,
2013-10-15 21:39:00,35.8,26.6,31.20,NNW,338,0.0,0.0,69,0.00,,,0.00,0.00,VWS V14.00,2013-10-16 03:39:00,
2013-10-15 21:40:00,35.8,27.0,31.20,NNW,338,0.0,0.0,70,0.00,,,0.00,0.00,VWS V14.00,2013-10-16 03:40:00,
2013-10-15 21:41:00,35.7,26.9,31.20,NNW,338,0.0,0.0,70,0.00,,,0.00,0.00,VWS V14.00,2013-10-16 03:41:00,
2013-10-15 21:42:00,35.7,26.9,31.20,NNW,338,0.0,0.0,70,0.00,,,0.00,0.00,VWS V14.00,2013-10-16 03:42:00,
2013-10-15 21:43:00,35.7,26.5,31.20,NNW,338,0.0,0.0,69,0.00,,,0.00,0.00,VWS V14.00,2013-10-16 03:43:00,
2013-10-15 21:44:00,35.7,26.9,31.20,NNW,338,0.0,0.0,70,0.00,,,0.00,0.00,VWS V14.00,2013-10-16 03:44:00,
2013-10-15 21:45:00,35.6,26.8,31.19,NNW,338,0.0,0.0,70,0.00,,,0.00,0.00,VWS V14.00,2013-10-16 03:45:00,
2013-10-15 21:46:00,35.6,26.8,31.19,NNW,338,0.0,0.0,70,0.00,,,0.00,0.00,VWS V14.00,2013-10-16 03:46:00,
2013-10-15 21:47:00,35.6,26.8,31.19,NNW,338,0.0,0.0,70,0.00,,,0.00,0.00,VWS V14.00,2013-10-16 03:47:00,
2013-10-15 21:48:00,35.5,26.7,31.19,NNW,338,0.0,0.0,70,0.00,,,0.00,0.00,VWS V14.00,2013-10-16 03:48:00,
2013-10-15 21:49:00,35.5,27.0,31.19,NNW,338,0.0,0.0,71,0.00,,,0.00,0.00,VWS V14.00,2013-10-16 03:49:00,
2013-10-15 21:50:00,35.5,27.0,31.20,NNW,338,0.0,0.0,71,0.00,,,0.00,0.00,VWS V14.00,2013-10-16 03:50:00,
2013-10-15 21:51:00,35.4,27.0,31.20,NNW,338,0.0,0.0,71,0.00,,,0.00,0.00,VWS V14.00,2013-10-16 03:51:00,
2013-10-15 21:52:00,35.4,27.0,31.20,NNW,338,0.0,0.0,71,0.00,,,0.00,0.00,VWS V14.00,2013-10-16 03:52:00,
2013-10-15 21:53:00,35.4,27.0,31.20,NNW,338,0.0,0.0,71,0.00,,,0.00,0.00,VWS V14.00,2013-10-16 03:53:00,
2013-10-15 21:54:00,35.3,27.2,31.20,NNW,338,0.0,0.0,72,0.00,,,0.00,0.00,VWS V14.00,2013-10-16 03:54:00,
2013-10-15 21:55:00,35.3,26.9,31.20,NNW,338,0.0,0.0,71,0.00,,,0.00,0.00,VWS V14.00,2013-10-16 03:55:00,
2013-10-15 21:56:00,35.3,26.9,31.20,NNW,338,0.0,0.0,71,0.00,,,0.00,0.00,VWS V14.00,2013-10-16 03:56:00,
2013-10-15 21:57:00,35.3,26.9,31.20,NNW,338,0.0,0.0,71,0.00,,,0.00,0.00,VWS V14.00,2013-10-16 03:57:00,
2013-10-15 21:58:00,35.2,26.8,31.20,NNW,338,0.0,0.0,71,0.00,,,0.00,0.00,VWS V14.00,2013-10-16 03:58:00,
2013-10-15 21:59:00,35.2,26.8,31.20,NNW,338,0.0,0.0,71,0.00,,,0.00,0.00,VWS V14.00,2013-10-16 03:59:00,
2013-10-15 22:00:00,35.2,26.8,31.20,NNW,338,0.0,0.0,71,0.00,,,0.00,0.00,VWS V14.00,2013-10-16 04:00:00,
2013-10-15 22:01:00,35.2,27.1,31.20,NNW,338,0.0,1.0,72,0.00,,,0.00,0.00,VWS V14.00,2013-10-16 04:01:00,
2013-10-15 22:02:00,35.2,27.1,31.16,NNW,338,0.0,1.0,72,0.00,,,0.00,0.00,VWS V14.00,2013-10-16 04:02:00,
2013-10-15 22:03:00,35.2,27.1,31.16,NNW,338,0.0,1.0,72,0.00,,,0.00,0.00,VWS V14.00,2013-10-16 04:03:00,
2013-10-15 22:04:00,35.2,27.1,31.16,NNW,338,0.0,1.0,72,0.00,,,0.00,0.00,VWS V14.00,2013-10-16 04:04:00,
2013-10-15 22:05:00,35.2,27.1,31.16,NNW,338,0.0,1.0,72,0.00,,,0.00,0.00,VWS V14.00,2013-10-16 04:05:00,
2013-10-15 22:06:00,35.2,27.1,31.16,NNW,338,0.0,1.0,72,0.00,,,0.00,0.00,VWS V14.00,2013-10-16 04:06:00,
2013-10-15 22:07:00,35.3,27.2,31.16,NNW,338,0.0,1.0,72,0.00,,,0.00,0.00,VWS V14.00,2013-10-16 04:07:00,
2013-10-15 22:08:00,35.3,27.2,31.16,NNW,338,0.0,1.0,72,0.00,,,0.00,0.00,VWS V14.00,2013-10-16 04:08:00,
2013-10-15 22:09:00,35.3,27.2,31.16,NNW,338,0.0,1.0,72,0.00,,,0.00,0.00,VWS V14.00,2013-10-16 04:09:00,
2013-10-15 22:10:00,35.3,27.2,31.16,NNW,338,0.0,1.0,72,0.00,,,0.00,0.00,VWS V14.00,2013-10-16 04:10:00,
2013-10-15 22:11:00,35.3,27.2,31.16,NNW,338,0.0,1.0,72,0.00,,,0.00,0.00,VWS V14.00,2013-10-16 04:11:00,
2013-10-15 22:12:00,35.3,27.2,31.16,NNW,338,0.0,1.0,72,0.00,,,0.00,0.00,VWS V14.00,2013-10-16 04:12:00,
2013-10-15 22:13:00,35.3,27.2,31.16,NNW,338,0.0,1.0,72,0.00,,,0.00,0.00,VWS V14.00,2013-10-16 04:13:00,
2013-10-15 22:14:00,35.3,27.2,31.16,NNW,338,0.0,1.0,72,0.00,,,0.00,0.00,VWS V14.00,2013-10-16 04:14:00,
2013-10-15 22:15:00,35.3,27.2,31.16,NNW,338,0.0,1.0,72,0.00,,,0.00,0.00,VWS V14.00,2013-10-16 04:15:00,
2013-10-15 22:16:00,35.4,27.3,31.16,NNW,338,0.0,0.0,72,0.00,,,0.00,0.00,VWS V14.00,2013-10-16 04:16:00,
2013-10-15 22:17:00,35.4,27.3,31.16,NNW,338,0.0,0.0,72,0.00,,,0.00,0.00,VWS V14.00,2013-10-16 04:17:00,
2013-10-15 22:18:00,35.4,27.3,31.16,NNW,338,0.0,0.0,72,0.00,,,0.00,0.00,VWS V14.00,2013-10-16 04:18:00,
2013-10-15 22:19:00,35.4,27.3,31.16,NNW,338,0.0,0.0,72,0.00,,,0.00,0.00,VWS V14.00,2013-10-16 04:19:00,
2013-10-15 22:20:00,35.4,27.3,31.16,NNW,338,0.0,0.0,72,0.00,,,0.00,0.00,VWS V14.00,2013-10-16 04:20:00,
2013-10-15 22:21:00,35.5,27.4,31.16,NNW,338,0.0,0.0,72,0.00,,,0.00,0.00,VWS V14.00,2013-10-16 04:21:00,
2013-10-15 22:22:00,35.5,27.4,31.15,NNW,338,0.0,0.0,72,0.00,,,0.00,0.00,VWS V14.00,2013-10-16 04:22:00,
2013-10-15 22:23:00,35.5,27.4,31.15,NNW,338,0.0,0.0,72,0.00,,,0.00,0.00,VWS V14.00,2013-10-16 04:23:00,
2013-10-15 22:24:00,35.5,27.4,31.15,NNW,338,0.0,0.0,72,0.00,,,0.00,0.00,VWS V14.00,2013-10-16 04:24:00,
2013-10-15 22:25:00,35.5,27.4,31.15,NNW,338,0.0,0.0,72,0.00,,,0.00,0.00,VWS V14.00,2013-10-16 04:25:00,
2013-10-15 22:26:00,35.4,27.3,31.15,NNW,338,0.0,0.0,72,0.00,,,0.00,0.00,VWS V14.00,2013-10-16 04:26:00,
2013-10-15 22:27:00,35.4,27.3,31.15,NNW,338,0.0,0.0,72,0.00,,,0.00,0.00,VWS V14.00,2013-10-16 04:27:00,
2013-10-15 22:28:00,35.3,27.2,31.16,NNW,338,0.0,0.0,72,0.00,,,0.00,0.00,VWS V14.00,2013-10-16 04:28:00,
2013-10-15 22:29:00,35.3,26.9,31.16,NNW,338,0.0,0.0,71,0.00,,,0.00,0.00,VWS V14.00,2013-10-16 04:29:00,
2013-10-15 22:30:00,35.2,26.8,31.16,NNW,338,0.0,0.0,71,0.00,,,0.00,0.00,VWS V14.00,2013-10-16 04:30:00,
2013-10-15 22:31:00,35.2,27.1,31.15,NNW,338,0.0,0.0,72,0.00,,,0.00,0.00,VWS V14.00,2013-10-16 04:31:00,
2013-10-15 22:32:00,35.2,27.1,31.15,NNW,338,0.0,0.0,72,0.00,,,0.00,0.00,VWS V14.00,2013-10-16 04:32:00,
2013-10-15 22:33:00,35.2,27.1,31.15,NNW,338,0.0,0.0,72,0.00,,,0.00,0.00,VWS V14.00,2013-10-16 04:33:00,
2013-10-15 22:34:00,35.2,27.1,31.16,NNW,338,0.0,0.0,72,0.00,,,0.00,0.00,VWS V14.00,2013-10-16 04:34:00,
2013-10-15 22:35:00,35.1,27.0,31.16,NNW,338,0.0,0.0,72,0.00,,,0.00,0.00,VWS V14.00,2013-10-16 04:35:00,
2013-10-15 22:36:00,35.1,27.0,31.16,NNW,338,0.0,0.0,72,0.00,,,0.00,0.00,VWS V14.00,2013-10-16 04:36:00,
2013-10-15 22:37:00,35.1,27.0,31.15,NNW,338,0.0,0.0,72,0.00,,,0.00,0.00,VWS V14.00,2013-10-16 04:37:00,
2013-10-15 22:38:00,35.1,27.0,31.15,NNW,338,0.0,0.0,72,0.00,,,0.00,0.00,VWS V14.00,2013-10-16 04:38:00,
2013-10-15 22:39:00,35.1,27.0,31.16,NNW,338,0.0,0.0,72,0.00,,,0.00,0.00,VWS V14.00,2013-10-16 04:39:00,
2013-10-15 22:40:00,35.1,27.0,31.16,NNW,338,0.0,0.0,72,0.00,,,0.00,0.00,VWS V14.00,2013-10-16 04:40:00,
2013-10-15 22:41:00,35.1,27.0,31.16,NNW,338,0.0,0.0,72,0.00,,,0.00,0.00,VWS V14.00,2013-10-16 04:41:00,
2013-10-15 22:42:00,35.1,27.0,31.16,NNW,338,0.0,0.0,72,0.00,,,0.00,0.00,VWS V14.00,2013-10-16 04:42:00,
2013-10-15 22:43:00,35.0,26.9,31.16,NNW,338,0.0,0.0,72,0.00,,,0.00,0.00,VWS V14.00,2013-10-16 04:43:00,
2013-10-15 22:44:00,35.0,26.9,31.16,NNW,338,0.0,0.0,72,0.00,,,0.00,0.00,VWS V14.00,2013-10-16 04:44:00,
2013-10-15 22:45:00,35.0,26.9,31.16,NNW,338,0.0,0.0,72,0.00,,,0.00,0.00,VWS V14.00,2013-10-16 04:45:00,
2013-10-15 22:46:00,35.0,26.9,31.16,NNW,338,0.0,0.0,72,0.00,,,0.00,0.00,VWS V14.00,2013-10-16 04:46:00,
2013-10-15 22:47:00,35.0,26.9,31.16,NNW,338,0.0,0.0,72,0.00,,,0.00,0.00,VWS V14.00,2013-10-16 04:47:00,
2013-10-15 22:48:00,35.0,26.9,31.16,NNW,338,0.0,0.0,72,0.00,,,0.00,0.00,VWS V14.00,2013-10-16 04:48:00,
2013-10-15 22:49:00,35.0,26.9,31.16,NNW,338,0.0,0.0,72,0.00,,,0.00,0.00,VWS V14.00,2013-10-16 04:49:00,
2013-10-15 22:50:00,35.0,26.9,31.16,NNW,338,0.0,0.0,72,0.00,,,0.00,0.00,VWS V14.00,2013-10-16 04:50:00,
2013-10-15 22:51:00,35.0,26.9,31.16,NNW,338,0.0,0.0,72,0.00,,,0.00,0.00,VWS V14.00,2013-10-16 04:51:00,
2013-10-15 22:52:00,35.0,26.9,31.16,NNW,338,0.0,0.0,72,0.00,,,0.00,0.00,VWS V14.00,2013-10-16 04:52:00,
2013-10-15 22:53:00,34.9,26.8,31.16,NNW,338,0.0,0.0,72,0.00,,,0.00,0.00,VWS V14.00,2013-10-16 04:53:00,
2013-10-15 22:54:00,34.9,26.8,31.16,NNW,338,0.0,0.0,72,0.00,,,0.00,0.00,VWS V14.00,2013-10-16 04:54:00,
2013-10-15 22:55:00,34.8,26.4,31.16,NNW,338,0.0,0.0,71,0.00,,,0.00,0.00,VWS V14.00,2013-10-16 04:55:00,
2013-10-15 22:56:00,34.6,26.2,31.16,NNW,338,0.0,0.0,71,0.00,,,0.00,0.00,VWS V14.00,2013-10-16 04:56:00,
2013-10-15 22:57:00,34.4,26.0,31.16,NNW,338,0.0,0.0,71,0.00,,,0.00,0.00,VWS V14.00,2013-10-16 04:57:00,
2013-10-15 22:58:00,34.4,26.0,31.16,NNW,338,0.0,0.0,71,0.00,,,0.00,0.00,VWS V14.00,2013-10-16 04:58:00,
2013-10-15 22:59:00,34.4,26.3,31.16,NNW,338,0.0,0.0,72,0.00,,,0.00,0.00,VWS V14.00,2013-10-16 04:59:00,
2013-10-15 23:00:00,34.3,26.2,31.16,NNW,338,0.0,0.0,72,0.00,,,0.00,0.00,VWS V14.00,2013-10-16 05:00:00,
2013-10-15 23:01:00,34.3,26.6,31.14,NNW,338,0.0,0.0,73,0.00,,,0.00,0.00,VWS V14.00,2013-10-16 05:01:00,
2013-10-15 23:02:00,34.1,26.4,31.14,NNW,338,0.0,0.0,73,0.00,,,0.00,0.00,VWS V14.00,2013-10-16 05:02:00,
2013-10-15 23:03:00,34.0,26.3,31.14,NNW,338,0.0,0.0,73,0.00,,,0.00,0.00,VWS V14.00,2013-10-16 05:03:00,
2013-10-15 23:04:00,33.9,26.2,31.14,NNW,338,0.0,0.0,73,0.00,,,0.00,0.00,VWS V14.00,2013-10-16 05:04:00,
2013-10-15 23:05:00,33.8,25.7,31.14,NNW,338,0.0,0.0,72,0.00,,,0.00,0.00,VWS V14.00,2013-10-16 05:05:00,
2013-10-15 23:06:00,33.7,25.6,31.14,NNW,338,0.0,0.0,72,0.00,,,0.00,0.00,VWS V14.00,2013-10-16 05:06:00,
2013-10-15 23:07:00,33.5,25.5,31.13,NNW,338,0.0,0.0,72,0.00,,,0.00,0.00,VWS V14.00,2013-10-16 05:07:00,
2013-10-15 23:08:00,33.4,25.7,31.13,NNW,338,0.0,0.0,73,0.00,,,0.00,0.00,VWS V14.00,2013-10-16 05:08:00,
2013-10-15 23:09:00,33.3,25.6,31.13,NNW,338,0.0,0.0,73,0.00,,,0.00,0.00,VWS V14.00,2013-10-16 05:09:00,
2013-10-15 23:10:00,33.2,25.5,31.13,NNW,338,0.0,0.0,73,0.00,,,0.00,0.00,VWS V14.00,2013-10-16 05:10:00,
2013-10-15 23:11:00,33.1,25.7,31.13,NNW,338,0.0,0.0,74,0.00,,,0.00,0.00,VWS V14.00,2013-10-16 05:11:00,
2013-10-15 23:12:00,33.0,25.6,31.13,NNW,338,0.0,0.0,74,0.00,,,0.00,0.00,VWS V14.00,2013-10-16 05:12:00,
2013-10-15 23:13:00,33.0,26.0,31.13,NNW,338,0.0,0.0,75,0.00,,,0.00,0.00,VWS V14.00,2013-10-16 05:13:00,
2013-10-15 23:14:00,32.9,25.9,31.13,NNW,338,0.0,0.0,75,0.00,,,0.00,0.00,VWS V14.00,2013-10-16 05:14:00,
2013-10-15 23:15:00,32.9,25.9,31.13,NNW,338,0.0,0.0,75,0.00,,,0.00,0.00,VWS V14.00,2013-10-16 05:15:00,
2013-10-15 23:16:00,32.9,25.9,31.13,NNW,338,0.0,0.0,75,0.00,,,0.00,0.00,VWS V14.00,2013-10-16 05:16:00,
2013-10-15 23:17:00,32.8,25.8,31.13,NNW,338,0.0,0.0,75,0.00,,,0.00,0.00,VWS V14.00,2013-10-16 05:17:00,
2013-10-15 23:18:00,32.8,25.8,31.13,NNW,338,0.0,0.0,75,0.00,,,0.00,0.00,VWS V14.00,2013-10-16 05:18:00,
2013-10-15 23:19:00,32.7,25.7,31.13,NNW,338,0.0,0.0,75,0.00,,,0.00,0.00,VWS V14.00,2013-10-16 05:19:00,
2013-10-15 23:20:00,32.7,25.7,31.13,NNW,338,0.0,0.0,75,0.00,,,0.00,0.00,VWS V14.00,2013-10-16 05:20:00,
2013-10-15 23:21:00,32.6,25.6,31.13,NNW,338,0.0,0.0,75,0.00,,,0.00,0.00,VWS V14.00,2013-10-16 05:21:00,
2013-10-15 23:22:00,32.6,25.9,31.13,NNW,338,0.0,0.0,76,0.00,,,0.00,0.00,VWS V14.00,2013-10-16 05:22:00,
2013-10-15 23:23:00,32.5,25.8,31.13,NNW,338,0.0,0.0,76,0.00,,,0.00,0.00,VWS V14.00,2013-10-16 05:23:00,
2013-10-15 23:24:00,32.5,26.1,31.13,NNW,338,0.0,0.0,77,0.00,,,0.00,0.00,VWS V14.00,2013-10-16 05:24:00,
2013-10-15 23:25:00,32.5,26.1,31.13,NNW,338,0.0,0.0,77,0.00,,,0.00,0.00,VWS V14.00,2013-10-16 05:25:00,
2013-10-15 23:26:00,32.5,25.8,31.13,NNW,338,0.0,0.0,76,0.00,,,0.00,0.00,VWS V14.00,2013-10-16 05:26:00,
2013-10-15 23:27:00,32.5,25.8,31.13,NNW,338,0.0,0.0,76,0.00,,,0.00,0.00,VWS V14.00,2013-10-16 05:27:00,
2013-10-15 23:28:00,32.5,25.8,31.13,NNW,338,0.0,0.0,76,0.00,,,0.00,0.00,VWS V14.00,2013-10-16 05:28:00,
2013-10-15 23:29:00,32.5,25.8,31.13,NNW,338,0.0,0.0,76,0.00,,,0.00,0.00,VWS V14.00,2013-10-16 05:29:00,
2013-10-15 23:30:00,32.5,25.8,31.13,NNW,338,0.0,0.0,76,0.00,,,0.00,0.00,VWS V14.00,2013-10-16 05:30:00,
2013-10-15 23:31:00,32.4,25.7,31.14,NNW,338,0.0,0.0,76,0.00,,,0.00,0.00,VWS V14.00,2013-10-16 05:31:00,
2013-10-15 23:32:00,32.4,25.7,31.14,NNW,338,0.0,0.0,76,0.00,,,0.00,0.00,VWS V14.00,2013-10-16 05:32:00,
2013-10-15 23:33:00,32.4,25.7,31.14,NNW,338,0.0,0.0,76,0.00,,,0.00,0.00,VWS V14.00,2013-10-16 05:33:00,
2013-10-15 23:34:00,32.4,25.7,31.14,NNW,338,0.0,0.0,76,0.00,,,0.00,0.00,VWS V14.00,2013-10-16 05:34:00,
2013-10-15 23:35:00,32.3,25.3,31.14,NNW,338,0.0,0.0,75,0.00,,,0.00,0.00,VWS V14.00,2013-10-16 05:35:00,
2013-10-15 23:36:00,32.2,25.5,31.14,NNW,338,0.0,0.0,76,0.00,,,0.00,0.00,VWS V14.00,2013-10-16 05:36:00,
2013-10-15 23:37:00,32.1,25.4,31.14,NNW,338,0.0,0.0,76,0.00,,,0.00,0.00,VWS V14.00,2013-10-16 05:37:00,
2013-10-15 23:38:00,32.1,25.1,31.14,NNW,338,0.0,0.0,75,0.00,,,0.00,0.00,VWS V14.00,2013-10-16 05:38:00,
2013-10-15 23:39:00,32.0,25.0,31.14,NNW,338,0.0,0.0,75,0.00,,,0.00,0.00,VWS V14.00,2013-10-16 05:39:00,
2013-10-15 23:40:00,31.9,25.2,31.14,NNW,338,0.0,0.0,76,0.00,,,0.00,0.00,VWS V14.00,2013-10-16 05:40:00,
2013-10-15 23:41:00,31.8,25.1,31.14,NNW,338,0.0,0.0,76,0.00,,,0.00,0.00,VWS V14.00,2013-10-16 05:41:00,
2013-10-15 23:42:00,31.7,25.0,31.14,NNW,338,0.0,0.0,76,0.00,,,0.00,0.00,VWS V14.00,2013-10-16 05:42:00,
2013-10-15 23:43:00,31.6,24.9,31.14,NNW,338,0.0,0.0,76,0.00,,,0.00,0.00,VWS V14.00,2013-10-16 05:43:00,
2013-10-15 23:44:00,31.5,24.8,31.14,NNW,338,0.0,0.0,76,0.00,,,0.00,0.00,VWS V14.00,2013-10-16 05:44:00,
2013-10-15 23:45:00,31.5,25.1,31.14,NNW,338,0.0,0.0,77,0.00,,,0.00,0.00,VWS V14.00,2013-10-16 05:45:00,
2013-10-15 23:46:00,31.4,25.0,31.14,NNW,338,0.0,0.0,77,0.00,,,0.00,0.00,VWS V14.00,2013-10-16 05:46:00,
2013-10-15 23:47:00,31.4,25.0,31.14,NNW,338,0.0,0.0,77,0.00,,,0.00,0.00,VWS V14.00,2013-10-16 05:47:00,
2013-10-15 23:48:00,31.3,24.9,31.14,NNW,338,0.0,0.0,77,0.00,,,0.00,0.00,VWS V14.00,2013-10-16 05:48:00,
2013-10-15 23:49:00,31.2,25.1,31.14,NNW,338,0.0,0.0,78,0.00,,,0.00,0.00,VWS V14.00,2013-10-16 05:49:00,
2013-10-15 23:50:00,31.2,25.1,31.14,NNW,338,0.0,0.0,78,0.00,,,0.00,0.00,VWS V14.00,2013-10-16 05:50:00,
2013-10-15 23:51:00,31.1,25.0,31.14,NNW,338,0.0,0.0,78,0.00,,,0.00,0.00,VWS V14.00,2013-10-16 05:51:00,
2013-10-15 23:52:00,31.1,25.0,31.14,NNW,338,0.0,0.0,78,0.00,,,0.00,0.00,VWS V14.00,2013-10-16 05:52:00,
2013-10-15 23:53:00,31.1,25.0,31.14,NNW,338,0.0,0.0,78,0.00,,,0.00,0.00,VWS V14.00,2013-10-16 05:53:00,
2013-10-15 23:54:00,31.1,25.0,31.14,NNW,338,0.0,0.0,78,0.00,,,0.00,0.00,VWS V14.00,2013-10-16 05:54:00,
2013-10-15 23:55:00,31.1,25.4,31.14,NNW,338,0.0,0.0,79,0.00,,,0.00,0.00,VWS V14.00,2013-10-16 05:55:00,
2013-10-15 23:56:00,31.1,25.0,31.14,NNW,338,0.0,0.0,78,0.00,,,0.00,0.00,VWS V14.00,2013-10-16 05:56:00,
2013-10-15 23:57:00,31.1,25.0,31.14,NNW,338,0.0,0.0,78,0.00,,,0.00,0.00,VWS V14.00,2013-10-16 05:57:00,
2013-10-15 23:58:00,31.1,25.0,31.14,NNW,338,0.0,0.0,78,0.00,,,0.00,0.00,VWS V14.00,2013-10-16 05:58:00,
2013-10-15 23:59:00,31.2,25.5,31.14,NNW,338,0.0,0.0,79,0.00,,,0.00,0.00,VWS V14.00,2013-10-16 05:59:00,